Darstellungsparameter: Aktuell verwendete Einstellungen:
Skalierung der Graphiken ... ?
xyx+y,   Skalierungsfaktor:      Skalierung: Modus: x, Faktor: 1
Darstellungszeitraum ... ?
Vom - - bis: - -   Zeitraum: 30.03.2020 - 29.04.2020
Min/Max/Avg-Anzeige ... ?
Zeige MMA aktuell
Zeige MMA Monat
Zeige MMA alles
Zeige --A aktuell
Zeige --A Monat
Zeige --A alles
Keine MMA-Anzeige
MMA:
Average (ber die Originaldaten)
MMA-Basis: 30.03.2020 - 29.04.2020
Quicknavigation für Darstellung... ?
Tage:      1T, 2T, 3T, 5T -1T -2T -3T -5T +1T +2T +3T +5T
Wochen: 1W, 2W, 3W -1W -2W -3W +1W +2W +3W
Monate: 1M, 3M, 6M -1M -3M -6M +1M +3M +6M
Jahre:    1J, 3J, 5J, 10J -1J -3J -5J -10J +1J +3J +5J +10J
Nutze für die Darstellung ... ?
Originaldaten oder Mittelwerte auf ...
Stundenbasis Tagesbasis Wochenbasis
Monatsbasis Jahresbasis      Datenbasis: Original-Daten
Darstellen als:
Statistik (Auto) Statistik J:M      Darstellung:
Zur Graphik,    zurück zur Übersicht aller Sensoren.
 
Tabellarische Datenbersicht: ?
 
Sensor: Nr:Datum:Temp:Feuchte:
Aussen-T/F 1 30-03-2020 00:00:18 2.5 C 34 %
2 30-03-2020 00:10:18 2.4 C 33 %
3 30-03-2020 00:20:17 2.4 C 33 %
4 30-03-2020 00:30:17 1.7 C 35 %
5 30-03-2020 00:40:17 1 C 36 %
6 30-03-2020 00:50:17 0.3 C 38 %
7 30-03-2020 01:00:18 0.2 C 38 %
8 30-03-2020 01:10:18 0.3 C 38 %
9 30-03-2020 01:20:17 0.3 C 37 %
10 30-03-2020 01:30:18 0.5 C 36 %
11 30-03-2020 01:40:18 -0.1 C 37 %
12 30-03-2020 01:50:17 -0.3 C 37 %
13 30-03-2020 02:00:17 -0.8 C 38 %
14 30-03-2020 02:10:17 -0.9 C 38 %
15 30-03-2020 02:20:17 -1.5 C 39 %
16 30-03-2020 02:30:18 -1.7 C 39 %
17 30-03-2020 02:40:18 -1.6 C 40 %
18 30-03-2020 02:50:17 -1.6 C 39 %
19 30-03-2020 03:00:18 -1.7 C 39 %
20 30-03-2020 03:10:18 -1.3 C 38 %
21 30-03-2020 03:20:18 -1.7 C 39 %
22 30-03-2020 03:30:18 -2.2 C 40 %
23 30-03-2020 03:40:18 -2.1 C 40 %
24 30-03-2020 03:50:17 -2.1 C 40 %
25 30-03-2020 04:00:18 -1.9 C 39 %
Sensor: Nr:Datum:Temp:Feuchte:
Aussen-T/F 26 30-03-2020 04:10:18 -2.2 C 39 %
27 30-03-2020 04:20:17 -2 C 39 %
28 30-03-2020 04:30:17 -2.4 C 39 %
29 30-03-2020 04:40:17 -2.6 C 39 %
30 30-03-2020 04:50:17 -2.4 C 39 %
31 30-03-2020 05:00:17 -2.4 C 38 %
32 30-03-2020 05:10:17 -2.5 C 38 %
33 30-03-2020 05:20:17 -2.7 C 38 %
34 30-03-2020 05:30:18 -3 C 39 %
35 30-03-2020 05:40:18 -3 C 38 %
36 30-03-2020 05:50:17 -3 C 38 %
37 30-03-2020 06:00:18 -3 C 38 %
38 30-03-2020 06:10:18 -3.4 C 38 %
39 30-03-2020 06:20:17 -3.7 C 39 %
40 30-03-2020 06:30:17 -3.9 C 40 %
41 30-03-2020 06:40:17 -4.1 C 40 %
42 30-03-2020 06:50:17 -3.3 C 39 %
43 30-03-2020 07:00:17 -3.7 C 40 %
44 30-03-2020 07:10:17 -3.2 C 39 %
45 30-03-2020 07:20:17 -3.8 C 39 %
46 30-03-2020 07:30:18 -4.3 C 40 %
47 30-03-2020 07:40:18 -4.5 C 40 %
48 30-03-2020 07:50:17 -4.5 C 40 %
49 30-03-2020 08:00:18 -3.8 C 40 %
50 30-03-2020 08:10:18 -3.9 C 40 %
Sensor: Nr:Datum:Temp:Feuchte:
Aussen-T/F 51 30-03-2020 08:20:18 -4.1 C 40 %
52 30-03-2020 08:30:18 -3.7 C 39 %
53 30-03-2020 08:40:18 -3.3 C 39 %
54 30-03-2020 08:50:17 -3.2 C 38 %
55 30-03-2020 09:00:18 -3.1 C 38 %
56 30-03-2020 09:10:18 -2.7 C 37 %
57 30-03-2020 09:20:18 -2.6 C 37 %
58 30-03-2020 09:30:18 -2.5 C 37 %
59 30-03-2020 09:40:18 -2.1 C 37 %
60 30-03-2020 09:50:18 -2.1 C 37 %
61 30-03-2020 10:00:18 -1.6 C 36 %
62 30-03-2020 10:10:18 -1.7 C 37 %
63 30-03-2020 10:20:17 -1.5 C 37 %
64 30-03-2020 10:30:17 -1.3 C 36 %
65 30-03-2020 10:40:17 0.1 C 31 %
66 30-03-2020 10:50:17 1 C 21 %
67 30-03-2020 11:00:17 1.1 C 23 %
68 30-03-2020 11:10:18 2 C 20 %
69 30-03-2020 11:20:18 2.4 C 20 %
70 30-03-2020 11:30:18 2.8 C 20 %
71 30-03-2020 11:40:18 2.9 C 20 %
72 30-03-2020 11:50:18 3.2 C 20 %
73 30-03-2020 12:00:18 3.7 C 20 %
74 30-03-2020 12:10:18 4 C 20 %
75 30-03-2020 12:20:18 6.4 C 20 %
Sensor: Nr:Datum:Temp:Feuchte:
Aussen-T/F 76 30-03-2020 12:30:18 7.6 C 20 %
77 30-03-2020 12:40:18 6.3 C 20 %
78 30-03-2020 12:50:18 5.1 C 20 %
79 30-03-2020 13:00:18 6.6 C 20 %
80 30-03-2020 13:10:18 6.5 C 20 %
81 30-03-2020 13:20:18 5.6 C 20 %
82 30-03-2020 13:30:17 5.9 C 20 %
83 30-03-2020 13:40:17 7 C 20 %
84 30-03-2020 13:50:17 6.4 C 20 %
85 30-03-2020 14:00:17 7.1 C 20 %
86 30-03-2020 14:10:17 8.4 C 20 %
87 30-03-2020 14:20:18 8.9 C 20 %
88 30-03-2020 14:30:18 9.5 C 20 %
89 30-03-2020 14:40:18 9.7 C 20 %
90 30-03-2020 14:50:18 10.8 C 20 %
91 30-03-2020 15:00:18 11.3 C 20 %
92 30-03-2020 15:10:18 11.7 C 20 %
93 30-03-2020 15:20:17 11.6 C 20 %
94 30-03-2020 15:30:18 13.5 C 20 %
95 30-03-2020 15:40:18 13.6 C 20 %
96 30-03-2020 15:50:18 11.9 C 20 %
97 30-03-2020 16:00:18 12.9 C 20 %
98 30-03-2020 16:10:18 13.6 C 20 %
99 30-03-2020 16:20:17 15.2 C 20 %
100 30-03-2020 16:30:18 9.9 C 20 %
Sensor: Nr:Datum:Temp:Feuchte:
Aussen-T/F 101 30-03-2020 16:40:18 13.9 C 20 %
102 30-03-2020 16:50:18 13.6 C 20 %
103 30-03-2020 17:00:17 10.1 C 20 %
104 30-03-2020 17:10:17 13.4 C 20 %
105 30-03-2020 17:20:18 12.5 C 20 %
106 30-03-2020 17:30:18 12.6 C 20 %
107 30-03-2020 17:40:18 11.6 C 20 %
108 30-03-2020 17:50:18 10.2 C 20 %
109 30-03-2020 18:00:18 8.7 C 20 %
110 30-03-2020 18:10:18 7.6 C 20 %
111 30-03-2020 18:20:18 7.9 C 20 %
112 30-03-2020 18:30:18 8.2 C 20 %
113 30-03-2020 18:40:18 7.7 C 20 %
114 30-03-2020 18:50:18 7.8 C 20 %
115 30-03-2020 19:00:18 7.3 C 20 %
116 30-03-2020 19:10:18 7.1 C 20 %
117 30-03-2020 19:20:17 6.5 C 20 %
118 30-03-2020 19:30:18 6.3 C 20 %
119 30-03-2020 19:40:18 5.8 C 20 %
120 30-03-2020 19:50:17 5 C 20 %
121 30-03-2020 20:00:18 3.8 C 27 %
122 30-03-2020 20:10:18 3 C 30 %
123 30-03-2020 20:20:17 2.8 C 30 %
124 30-03-2020 20:30:18 3.3 C 31 %
125 30-03-2020 20:40:18 3.2 C 30 %
Sensor: Nr:Datum:Temp:Feuchte:
Aussen-T/F 126 30-03-2020 20:50:18 3.3 C 31 %
127 30-03-2020 21:00:18 4 C 29 %
128 30-03-2020 21:10:18 4.1 C 29 %
129 30-03-2020 21:20:18 4.2 C 30 %
130 30-03-2020 21:30:18 4.3 C 30 %
131 30-03-2020 21:40:18 4.2 C 30 %
132 30-03-2020 21:50:18 4.1 C 30 %
133 30-03-2020 22:00:18 3.7 C 32 %
134 30-03-2020 22:10:18 3.7 C 33 %
135 30-03-2020 22:20:17 3.9 C 32 %
136 30-03-2020 22:30:18 4 C 31 %
137 30-03-2020 22:40:18 4.1 C 31 %
138 30-03-2020 22:50:18 4.2 C 31 %
139 30-03-2020 23:00:18 4.1 C 31 %
140 30-03-2020 23:10:18 4.2 C 30 %
141 30-03-2020 23:20:18 4.2 C 31 %
142 30-03-2020 23:30:18 4.1 C 31 %
143 30-03-2020 23:40:18 4.2 C 31 %
144 30-03-2020 23:50:17 4.2 C 31 %
145 31-03-2020 00:00:18 4.3 C 30 %
146 31-03-2020 00:10:18 4.3 C 30 %
147 31-03-2020 00:20:18 4.2 C 31 %
148 31-03-2020 00:30:18 4.2 C 31 %
149 31-03-2020 00:40:18 4.2 C 31 %
150 31-03-2020 00:50:18 4.3 C 31 %
Sensor: Nr:Datum:Temp:Feuchte:
Aussen-T/F 151 31-03-2020 01:00:18 4.4 C 32 %
152 31-03-2020 01:10:18 4 C 34 %
153 31-03-2020 01:20:18 3.8 C 36 %
154 31-03-2020 01:30:18 3.8 C 36 %
155 31-03-2020 01:40:18 3.7 C 37 %
156 31-03-2020 01:50:18 4 C 37 %
157 31-03-2020 02:00:18 3.9 C 38 %
158 31-03-2020 02:10:18 3.4 C 39 %
159 31-03-2020 02:20:17 3.5 C 39 %
160 31-03-2020 02:30:18 3.7 C 39 %
161 31-03-2020 02:40:18 3.3 C 40 %
162 31-03-2020 02:50:18 2.8 C 41 %
163 31-03-2020 03:00:18 2.5 C 41 %
164 31-03-2020 03:10:18 2.2 C 42 %
165 31-03-2020 03:20:17 2.4 C 42 %
166 31-03-2020 03:30:18 2.3 C 42 %
167 31-03-2020 03:40:18 2.3 C 43 %
168 31-03-2020 03:50:18 2.7 C 43 %
169 31-03-2020 04:00:18 2.9 C 42 %
170 31-03-2020 04:10:18 3 C 42 %
171 31-03-2020 04:20:18 3.1 C 42 %
172 31-03-2020 04:30:17 3.2 C 42 %
173 31-03-2020 04:40:18 3.2 C 41 %
174 31-03-2020 04:50:17 3.5 C 41 %
175 31-03-2020 05:00:18 3.4 C 41 %
Sensor: Nr:Datum:Temp:Feuchte:
Aussen-T/F 176 31-03-2020 05:10:18 3 C 41 %
177 31-03-2020 05:20:17 2.8 C 43 %
178 31-03-2020 05:30:18 2.5 C 43 %
179 31-03-2020 05:40:18 2.3 C 43 %
180 31-03-2020 05:50:18 1.9 C 44 %
181 31-03-2020 06:00:18 1.7 C 44 %
182 31-03-2020 06:10:18 1.6 C 45 %
183 31-03-2020 06:20:18 1.5 C 45 %
184 31-03-2020 06:30:18 1.7 C 45 %
185 31-03-2020 06:40:18 2 C 45 %
186 31-03-2020 06:50:18 2.1 C 45 %
187 31-03-2020 07:00:18 2.2 C 45 %
188 31-03-2020 07:10:18 2.3 C 45 %
189 31-03-2020 07:20:18 2.2 C 44 %
190 31-03-2020 07:30:18 2.1 C 44 %
191 31-03-2020 07:40:18 1.7 C 45 %
192 31-03-2020 07:50:17 2 C 45 %
193 31-03-2020 08:00:18 2.5 C 45 %
194 31-03-2020 08:10:18 3.1 C 43 %
195 31-03-2020 08:20:18 3.3 C 42 %
196 31-03-2020 08:30:18 3.5 C 41 %
197 31-03-2020 08:40:18 3.7 C 40 %
198 31-03-2020 08:50:17 4 C 38 %
199 31-03-2020 09:00:18 3.9 C 38 %
200 31-03-2020 09:10:18 3.9 C 37 %
Sensor: Nr:Datum:Temp:Feuchte:
Aussen-T/F 201 31-03-2020 09:20:18 4 C 36 %
202 31-03-2020 09:30:17 4 C 36 %
203 31-03-2020 09:40:17 4.1 C 35 %
204 31-03-2020 09:50:18 4.3 C 35 %
205 31-03-2020 10:00:18 4.8 C 34 %
206 31-03-2020 10:10:18 4.7 C 34 %
207 31-03-2020 10:20:18 4.5 C 34 %
208 31-03-2020 10:30:18 4.4 C 34 %
209 31-03-2020 10:40:18 4.3 C 34 %
210 31-03-2020 10:50:17 4.3 C 33 %
211 31-03-2020 11:00:17 4.3 C 33 %
212 31-03-2020 11:10:17 4.4 C 32 %
213 31-03-2020 11:20:18 4.7 C 31 %
214 31-03-2020 11:30:18 5.4 C 30 %
215 31-03-2020 11:40:18 5.3 C 30 %
216 31-03-2020 11:50:17 5.3 C 29 %
217 31-03-2020 12:00:18 5.6 C 27 %
218 31-03-2020 12:10:18 6.3 C 25 %
219 31-03-2020 12:20:17 6.4 C 20 %
220 31-03-2020 12:30:18 9.2 C 20 %
221 31-03-2020 12:40:18 8.4 C 20 %
222 31-03-2020 12:50:18 7 C 20 %
223 31-03-2020 13:00:17 7.5 C 20 %
224 31-03-2020 13:10:17 7.1 C 20 %
225 31-03-2020 13:20:17 7.3 C 20 %
Sensor: Nr:Datum:Temp:Feuchte:
Aussen-T/F 226 31-03-2020 13:30:17 7 C 20 %
227 31-03-2020 13:40:17 8.1 C 20 %
228 31-03-2020 13:51:17 8.4 C 20 %
229 31-03-2020 14:00:17 8.5 C 20 %
230 31-03-2020 14:10:17 9.7 C 20 %
231 31-03-2020 14:20:17 11.2 C 20 %
232 31-03-2020 14:30:17 12.6 C 20 %
233 31-03-2020 14:40:17 11.7 C 20 %
234 31-03-2020 14:51:17 12 C 20 %
235 31-03-2020 15:00:17 12 C 20 %
236 31-03-2020 15:10:18 13.1 C 20 %
237 31-03-2020 15:20:17 13.2 C 20 %
238 31-03-2020 15:30:17 13.5 C 20 %
239 31-03-2020 15:40:17 14.6 C 20 %
240 31-03-2020 15:50:18 13.9 C 20 %
241 31-03-2020 16:00:17 16.8 C 20 %
242 31-03-2020 16:10:17 14.8 C 20 %
243 31-03-2020 16:20:17 15.8 C 20 %
244 31-03-2020 16:31:17 15.1 C 20 %
245 31-03-2020 16:40:17 14 C 20 %
246 31-03-2020 16:50:17 13.3 C 20 %
247 31-03-2020 17:00:17 14.4 C 20 %
248 31-03-2020 17:10:17 16.2 C 20 %
249 31-03-2020 17:21:17 15.3 C 20 %
250 31-03-2020 17:31:17 14.7 C 20 %
Sensor: Nr:Datum:Temp:Feuchte:
Aussen-T/F 251 31-03-2020 17:40:17 15.5 C 20 %
252 31-03-2020 17:51:17 10.6 C 20 %
253 31-03-2020 18:01:17 10.5 C 20 %
254 31-03-2020 18:11:17 10.2 C 20 %
255 31-03-2020 18:21:17 9.8 C 20 %
256 31-03-2020 18:31:17 9.6 C 20 %
257 31-03-2020 18:40:17 9.4 C 20 %
258 31-03-2020 18:51:17 9.1 C 20 %
259 31-03-2020 19:00:17 9.1 C 20 %
260 31-03-2020 19:10:17 8.8 C 20 %
261 31-03-2020 19:20:17 8.7 C 20 %
262 31-03-2020 19:31:17 8.2 C 20 %
263 31-03-2020 19:41:17 7.7 C 20 %
264 31-03-2020 19:50:17 6.6 C 20 %
265 31-03-2020 20:01:17 5.6 C 20 %
266 31-03-2020 20:11:17 5.5 C 20 %
267 31-03-2020 20:21:17 5.3 C 20 %
268 31-03-2020 20:31:17 4.7 C 20 %
269 31-03-2020 20:41:17 4.4 C 20 %
270 31-03-2020 20:51:17 4 C 20 %
271 31-03-2020 21:00:17 3.7 C 20 %
272 31-03-2020 21:10:18 3.9 C 20 %
273 31-03-2020 21:21:17 3.7 C 20 %
274 31-03-2020 21:31:17 3.5 C 20 %
275 31-03-2020 21:41:17 3.2 C 23 %
Sensor: Nr:Datum:Temp:Feuchte:
Aussen-T/F 276 31-03-2020 21:51:17 3.2 C 23 %
277 31-03-2020 22:00:18 3 C 23 %
278 31-03-2020 22:10:18 2.7 C 25 %
279 31-03-2020 22:21:17 2.7 C 25 %
280 31-03-2020 22:31:17 2.6 C 25 %
281 31-03-2020 22:41:17 1.8 C 30 %
282 31-03-2020 22:50:18 1.6 C 30 %
283 31-03-2020 23:01:17 1.6 C 30 %
284 31-03-2020 23:11:17 1.7 C 30 %
285 31-03-2020 23:21:17 1.4 C 31 %
286 31-03-2020 23:30:17 1.3 C 31 %
287 31-03-2020 23:40:18 1.6 C 31 %
288 31-03-2020 23:51:17 0.9 C 32 %
289 01-04-2020 00:01:17 1.2 C 31 %
290 01-04-2020 00:11:17 0 C 35 %
291 01-04-2020 00:21:17 0.8 C 33 %
292 01-04-2020 00:31:17 0.6 C 32 %
293 01-04-2020 00:41:17 0.5 C 33 %
294 01-04-2020 00:51:17 -0.3 C 35 %
295 01-04-2020 01:01:17 -0.1 C 36 %
296 01-04-2020 01:11:17 -0.3 C 35 %
297 01-04-2020 01:21:17 -1 C 37 %
298 01-04-2020 01:30:18 -1.4 C 38 %
299 01-04-2020 01:40:18 -1.7 C 38 %
300 01-04-2020 01:51:17 -1.9 C 38 %
Sensor: Nr:Datum:Temp:Feuchte:
Aussen-T/F 301 01-04-2020 02:01:17 -1.9 C 38 %
302 01-04-2020 02:11:17 -2 C 38 %
303 01-04-2020 02:21:17 -2.1 C 38 %
304 01-04-2020 02:31:17 -2.3 C 39 %
305 01-04-2020 02:41:17 -2.4 C 38 %
306 01-04-2020 02:50:18 -2.4 C 39 %
307 01-04-2020 03:01:17 -2.5 C 38 %
308 01-04-2020 03:11:17 -2.6 C 38 %
309 01-04-2020 03:21:17 -2.8 C 39 %
310 01-04-2020 03:31:17 -2.7 C 38 %
311 01-04-2020 03:41:18 -3 C 38 %
312 01-04-2020 03:51:17 -3 C 39 %
313 01-04-2020 04:01:17 -2.8 C 39 %
314 01-04-2020 04:11:17 -3.1 C 38 %
315 01-04-2020 04:21:17 -3.2 C 39 %
316 01-04-2020 04:31:18 -3.5 C 38 %
317 01-04-2020 04:41:19 -3.4 C 39 %
318 01-04-2020 04:51:17 -3.5 C 39 %
319 01-04-2020 05:01:18 -3.6 C 39 %
320 01-04-2020 05:11:19 -3.8 C 40 %
321 01-04-2020 05:21:17 -3.8 C 40 %
322 01-04-2020 05:31:18 -3.8 C 40 %
323 01-04-2020 05:41:18 -4 C 40 %
324 01-04-2020 05:51:17 -4.2 C 40 %
325 01-04-2020 06:01:18 -4.2 C 40 %
Sensor: Nr:Datum:Temp:Feuchte:
Aussen-T/F 326 01-04-2020 06:11:18 -4 C 40 %
327 01-04-2020 06:21:17 -4.2 C 40 %
328 01-04-2020 06:31:17 -4.2 C 41 %
329 01-04-2020 06:41:17 -4.3 C 41 %
330 01-04-2020 06:51:17 -4.5 C 41 %
331 01-04-2020 07:01:18 -4.6 C 41 %
332 01-04-2020 07:11:19 -4.7 C 41 %
333 01-04-2020 07:21:17 -4.5 C 41 %
334 01-04-2020 07:31:18 -4.4 C 41 %
335 01-04-2020 07:41:18 -4.5 C 41 %
336 01-04-2020 07:51:17 -4.3 C 41 %
337 01-04-2020 08:01:17 -4.2 C 41 %
338 01-04-2020 08:11:17 -4.2 C 41 %
339 01-04-2020 08:21:17 -3.7 C 41 %
340 01-04-2020 08:31:17 -3.8 C 41 %
341 01-04-2020 08:41:17 -3.7 C 41 %
342 01-04-2020 08:51:17 -3.4 C 40 %
343 01-04-2020 09:01:17 -3.4 C 40 %
344 01-04-2020 09:11:17 -2.7 C 40 %
345 01-04-2020 09:21:17 -2.6 C 40 %
346 01-04-2020 09:31:17 -2.5 C 40 %
347 01-04-2020 09:41:17 -2.1 C 40 %
348 01-04-2020 09:51:17 -1.5 C 39 %
349 01-04-2020 10:01:17 -1 C 39 %
350 01-04-2020 10:11:17 -0.9 C 40 %
Sensor: Nr:Datum:Temp:Feuchte:
Aussen-T/F 351 01-04-2020 10:21:17 -0.4 C 40 %
352 01-04-2020 10:31:18 0.5 C 39 %
353 01-04-2020 10:41:18 1 C 37 %
354 01-04-2020 10:51:17 1.6 C 36 %
355 01-04-2020 11:01:17 2.4 C 35 %
356 01-04-2020 11:11:17 3.2 C 33 %
357 01-04-2020 11:21:17 4.2 C 29 %
358 01-04-2020 11:31:17 4.8 C 20 %
359 01-04-2020 11:41:17 5.3 C 20 %
360 01-04-2020 11:51:17 6 C 20 %
361 01-04-2020 12:01:17 6.6 C 20 %
362 01-04-2020 12:11:18 7.1 C 20 %
363 01-04-2020 12:21:17 8.9 C 20 %
364 01-04-2020 12:31:17 10.3 C 20 %
365 01-04-2020 12:41:17 9.2 C 20 %
366 01-04-2020 12:51:17 8 C 20 %
367 01-04-2020 13:01:17 9.3 C 20 %
368 01-04-2020 13:11:17 9.3 C 20 %
369 01-04-2020 13:21:16 8.6 C 20 %
370 01-04-2020 13:31:17 9.2 C 20 %
371 01-04-2020 13:41:17 9.6 C 20 %
372 01-04-2020 13:51:17 10 C 20 %
373 01-04-2020 14:01:17 10.3 C 20 %
374 01-04-2020 14:11:17 10.7 C 20 %
375 01-04-2020 14:21:17 13.2 C 20 %
Sensor: Nr:Datum:Temp:Feuchte:
Aussen-T/F 376 01-04-2020 14:31:16 15.9 C 20 %
377 01-04-2020 14:41:16 16.3 C 20 %
378 01-04-2020 14:51:17 13.7 C 20 %
379 01-04-2020 15:01:17 14.2 C 20 %
380 01-04-2020 15:11:17 17.2 C 20 %
381 01-04-2020 15:21:17 16.8 C 20 %
382 01-04-2020 15:31:16 16.3 C 20 %
383 01-04-2020 15:41:16 18.2 C 20 %
384 01-04-2020 15:51:17 19.5 C 20 %
385 01-04-2020 16:01:16 18.7 C 20 %
386 01-04-2020 16:11:16 18.7 C 20 %
387 01-04-2020 16:21:16 19.7 C 20 %
388 01-04-2020 16:31:17 21.3 C 20 %
389 01-04-2020 16:41:17 15.5 C 20 %
390 01-04-2020 16:51:16 18.4 C 20 %
391 01-04-2020 17:01:16 17.2 C 20 %
392 01-04-2020 17:11:16 17.4 C 20 %
393 01-04-2020 17:21:17 17.7 C 20 %
394 01-04-2020 17:31:17 18.5 C 20 %
395 01-04-2020 17:41:17 16.8 C 20 %
396 01-04-2020 17:51:17 15.8 C 20 %
397 01-04-2020 18:01:17 12.6 C 20 %
398 01-04-2020 18:11:17 12 C 20 %
399 01-04-2020 18:21:16 12.1 C 20 %
400 01-04-2020 18:31:17 11.7 C 20 %
Sensor: Nr:Datum:Temp:Feuchte:
Aussen-T/F 401 01-04-2020 18:41:17 11.8 C 20 %
402 01-04-2020 18:51:16 11.6 C 20 %
403 01-04-2020 19:01:17 11 C 20 %
404 01-04-2020 19:11:17 10.7 C 20 %
405 01-04-2020 19:21:17 10.4 C 20 %
406 01-04-2020 19:31:17 9.9 C 20 %
407 01-04-2020 19:41:17 9.6 C 20 %
408 01-04-2020 19:51:16 8.9 C 20 %
409 01-04-2020 20:01:17 8.1 C 20 %
410 01-04-2020 20:11:17 7.8 C 20 %
411 01-04-2020 20:21:16 8.1 C 20 %
412 01-04-2020 20:31:16 7.1 C 20 %
413 01-04-2020 20:41:16 6.2 C 20 %
414 01-04-2020 20:51:16 5.9 C 20 %
415 01-04-2020 21:01:16 6 C 20 %
416 01-04-2020 21:11:16 6 C 20 %
417 01-04-2020 21:21:16 5.7 C 20 %
418 01-04-2020 21:31:16 5.7 C 20 %
419 01-04-2020 21:41:16 5.4 C 20 %
420 01-04-2020 21:51:16 4 C 21 %
421 01-04-2020 22:01:16 4.2 C 21 %
422 01-04-2020 22:11:16 3.7 C 26 %
423 01-04-2020 22:21:16 3.2 C 26 %
424 01-04-2020 22:31:16 2.5 C 29 %
425 01-04-2020 22:41:16 2.6 C 28 %
Sensor: Nr:Datum:Temp:Feuchte:
Aussen-T/F 426 01-04-2020 22:51:16 2 C 30 %
427 01-04-2020 23:01:17 1.7 C 33 %
428 01-04-2020 23:11:17 1.7 C 32 %
429 01-04-2020 23:21:16 1.4 C 34 %
430 01-04-2020 23:31:16 1.2 C 34 %
431 01-04-2020 23:41:16 1 C 35 %
432 01-04-2020 23:51:16 1.1 C 34 %
433 02-04-2020 00:01:17 1 C 35 %
434 02-04-2020 00:11:17 0.4 C 36 %
435 02-04-2020 00:21:16 0.4 C 36 %
436 02-04-2020 00:31:17 0.2 C 36 %
437 02-04-2020 00:41:17 0.3 C 37 %
438 02-04-2020 00:51:16 0.3 C 36 %
439 02-04-2020 01:01:17 0 C 37 %
440 02-04-2020 01:11:17 -0.4 C 38 %
441 02-04-2020 01:21:16 -0.6 C 38 %
442 02-04-2020 01:31:17 -0.7 C 38 %
443 02-04-2020 01:41:17 -0.7 C 38 %
444 02-04-2020 01:51:16 -0.9 C 39 %
445 02-04-2020 02:01:16 -1 C 39 %
446 02-04-2020 02:11:16 -1 C 39 %
447 02-04-2020 02:21:16 -1.2 C 39 %
448 02-04-2020 02:31:17 -1.3 C 40 %
449 02-04-2020 02:41:17 -1.6 C 40 %
450 02-04-2020 02:51:17 -1.5 C 40 %
Sensor: Nr:Datum:Temp:Feuchte:
Aussen-T/F 451 02-04-2020 03:01:17 -1.5 C 40 %
452 02-04-2020 03:11:17 -1.5 C 40 %
453 02-04-2020 03:21:17 -1.3 C 40 %
454 02-04-2020 03:31:17 -1.4 C 40 %
455 02-04-2020 03:41:17 -1.6 C 40 %
456 02-04-2020 03:51:18 -1.7 C 40 %
457 02-04-2020 04:01:18 -2.1 C 40 %
458 02-04-2020 04:11:18 -1.7 C 41 %
459 02-04-2020 04:21:18 -1.6 C 40 %
460 02-04-2020 04:31:17 -2 C 40 %
461 02-04-2020 04:41:17 -2.4 C 41 %
462 02-04-2020 04:51:17 -2.7 C 41 %
463 02-04-2020 05:01:18 -2.6 C 41 %
464 02-04-2020 05:11:18 -2.6 C 41 %
465 02-04-2020 05:21:17 -2.6 C 41 %
466 02-04-2020 05:31:18 -2.7 C 41 %
467 02-04-2020 05:41:18 -2.6 C 41 %
468 02-04-2020 05:51:17 -2.5 C 41 %
469 02-04-2020 06:01:17 -2.6 C 41 %
470 02-04-2020 06:11:17 -3 C 41 %
471 02-04-2020 06:21:17 -3 C 42 %
472 02-04-2020 06:31:17 -2.6 C 43 %
473 02-04-2020 06:41:17 -3.1 C 42 %
474 02-04-2020 06:51:17 -2.9 C 42 %
475 02-04-2020 07:01:17 -3.3 C 42 %
Sensor: Nr:Datum:Temp:Feuchte:
Aussen-T/F 476 02-04-2020 07:11:17 -3 C 42 %
477 02-04-2020 07:21:17 -3.1 C 42 %
478 02-04-2020 07:31:17 -3 C 43 %
479 02-04-2020 07:41:18 -2.9 C 42 %
480 02-04-2020 07:51:17 -3 C 43 %
481 02-04-2020 08:01:17 -2.7 C 43 %
482 02-04-2020 08:11:18 -2.5 C 43 %
483 02-04-2020 08:21:17 -2.2 C 42 %
484 02-04-2020 08:31:17 -2.2 C 42 %
485 02-04-2020 08:41:17 -2 C 42 %
486 02-04-2020 08:51:17 -1.8 C 42 %
487 02-04-2020 09:01:17 -1.7 C 42 %
488 02-04-2020 09:11:17 -1.5 C 41 %
489 02-04-2020 09:21:17 -1.3 C 41 %
490 02-04-2020 09:31:17 -1 C 41 %
491 02-04-2020 09:41:17 -0.6 C 41 %
492 02-04-2020 09:51:18 -0.3 C 41 %
493 02-04-2020 10:01:18 0.1 C 41 %
494 02-04-2020 10:11:18 0.6 C 41 %
495 02-04-2020 10:21:17 0.8 C 41 %
496 02-04-2020 10:31:17 1.7 C 40 %
497 02-04-2020 10:41:17 2.2 C 39 %
498 02-04-2020 10:51:17 3.1 C 37 %
499 02-04-2020 11:01:17 3.6 C 37 %
500 02-04-2020 11:11:17 4.6 C 35 %
Sensor: Nr:Datum:Temp:Feuchte:
Aussen-T/F 501 02-04-2020 11:21:17 5.7 C 30 %
502 02-04-2020 11:31:18 6.5 C 30 %
503 02-04-2020 11:41:18 6.9 C 29 %
504 02-04-2020 11:51:17 7.4 C 27 %
505 02-04-2020 12:01:17 8.1 C 27 %
506 02-04-2020 12:11:17 8.5 C 25 %
507 02-04-2020 12:21:17 10.5 C 20 %
508 02-04-2020 12:31:18 12.2 C 20 %
509 02-04-2020 12:41:18 10.8 C 20 %
510 02-04-2020 12:51:17 10.3 C 20 %
511 02-04-2020 13:01:17 11 C 20 %
512 02-04-2020 13:11:18 11.5 C 20 %
513 02-04-2020 13:21:17 11.6 C 20 %
514 02-04-2020 13:31:17 11.4 C 20 %
515 02-04-2020 13:41:17 12.3 C 20 %
516 02-04-2020 13:51:17 12.5 C 20 %
517 02-04-2020 14:01:17 11.8 C 20 %
518 02-04-2020 14:11:17 12.6 C 20 %
519 02-04-2020 14:21:17 15.5 C 20 %
520 02-04-2020 14:31:18 18.1 C 20 %
521 02-04-2020 14:41:18 18.3 C 20 %
522 02-04-2020 14:51:17 18.3 C 20 %
523 02-04-2020 15:01:18 19.7 C 20 %
524 02-04-2020 15:11:18 17.5 C 20 %
525 02-04-2020 15:21:17 19.2 C 20 %
Sensor: Nr:Datum:Temp:Feuchte:
Aussen-T/F 526 02-04-2020 15:31:18 19.8 C 20 %
527 02-04-2020 15:41:18 19.3 C 20 %
528 02-04-2020 15:51:17 19.4 C 20 %
529 02-04-2020 16:01:17 21.3 C 20 %
530 02-04-2020 16:11:17 19.9 C 20 %
531 02-04-2020 16:21:17 16.6 C 20 %
532 02-04-2020 16:31:18 18 C 20 %
533 02-04-2020 16:41:18 17.6 C 20 %
534 02-04-2020 16:51:17 17.8 C 20 %
535 02-04-2020 17:01:17 17.3 C 20 %
536 02-04-2020 17:11:17 16.6 C 20 %
537 02-04-2020 17:21:17 15.8 C 20 %
538 02-04-2020 17:31:18 15.5 C 20 %
539 02-04-2020 17:41:18 14.7 C 20 %
540 02-04-2020 17:51:17 14.8 C 20 %
541 02-04-2020 18:01:17 12.8 C 20 %
542 02-04-2020 18:11:17 12.2 C 20 %
543 02-04-2020 18:21:17 12.3 C 20 %
544 02-04-2020 18:31:17 11.8 C 20 %
545 02-04-2020 18:41:17 11.3 C 20 %
546 02-04-2020 18:51:17 11.1 C 20 %
547 02-04-2020 19:01:17 10.7 C 20 %
548 02-04-2020 19:11:17 10.2 C 20 %
549 02-04-2020 19:21:17 10 C 20 %
550 02-04-2020 19:31:17 9.6 C 20 %
Sensor: Nr:Datum:Temp:Feuchte:
Aussen-T/F 551 02-04-2020 19:41:17 9.5 C 20 %
552 02-04-2020 19:51:17 8.7 C 20 %
553 02-04-2020 20:01:17 8.5 C 20 %
554 02-04-2020 20:11:17 8.5 C 20 %
555 02-04-2020 20:21:17 7.9 C 20 %
556 02-04-2020 20:31:17 7.8 C 20 %
557 02-04-2020 20:41:17 7.2 C 21 %
558 02-04-2020 20:51:17 6.9 C 25 %
559 02-04-2020 21:01:17 6.4 C 26 %
560 02-04-2020 21:11:17 6.3 C 27 %
561 02-04-2020 21:21:17 5.9 C 28 %
562 02-04-2020 21:31:18 5.7 C 29 %
563 02-04-2020 21:41:18 5.6 C 30 %
564 02-04-2020 21:51:17 5.3 C 30 %
565 02-04-2020 22:01:17 5.2 C 30 %
566 02-04-2020 22:11:17 5.5 C 30 %
567 02-04-2020 22:21:17 5 C 30 %
568 02-04-2020 22:31:18 5.3 C 31 %
569 02-04-2020 22:41:18 5.2 C 31 %
570 02-04-2020 22:51:17 5.1 C 31 %
571 02-04-2020 23:01:17 4.8 C 32 %
572 02-04-2020 23:11:17 5 C 31 %
573 02-04-2020 23:21:17 5 C 31 %
574 02-04-2020 23:31:18 4.7 C 33 %
575 02-04-2020 23:41:18 3.9 C 35 %
Sensor: Nr:Datum:Temp:Feuchte:
Aussen-T/F 576 02-04-2020 23:51:17 3.1 C 36 %
577 03-04-2020 00:01:18 2.7 C 38 %
578 03-04-2020 00:11:18 2.3 C 39 %
579 03-04-2020 00:21:17 2.6 C 40 %
580 03-04-2020 00:31:17 2.6 C 39 %
581 03-04-2020 00:41:17 3.2 C 38 %
582 03-04-2020 00:51:17 2.4 C 39 %
583 03-04-2020 01:01:18 2.4 C 39 %
584 03-04-2020 01:11:18 2.4 C 39 %
585 03-04-2020 01:21:17 2.6 C 39 %
586 03-04-2020 01:31:18 2.7 C 39 %
587 03-04-2020 01:41:18 2.5 C 39 %
588 03-04-2020 01:51:17 2.3 C 39 %
589 03-04-2020 02:01:18 2.2 C 39 %
590 03-04-2020 02:11:18 2.3 C 39 %
591 03-04-2020 02:21:18 3.1 C 38 %
592 03-04-2020 02:31:18 3.2 C 38 %
593 03-04-2020 02:41:18 2.6 C 39 %
594 03-04-2020 02:51:17 2.8 C 39 %
595 03-04-2020 03:01:18 3 C 38 %
596 03-04-2020 03:11:18 3.6 C 38 %
597 03-04-2020 03:21:17 3.9 C 38 %
598 03-04-2020 03:31:17 4.4 C 36 %
599 03-04-2020 03:41:17 4.7 C 36 %
600 03-04-2020 03:51:17 4.6 C 36 %
Sensor: Nr:Datum:Temp:Feuchte:
Aussen-T/F 601 03-04-2020 04:01:17 5 C 35 %
602 03-04-2020 04:11:17 5.6 C 35 %
603 03-04-2020 04:21:17 4.9 C 35 %
604 03-04-2020 04:31:18 4.7 C 36 %
605 03-04-2020 04:41:18 4.6 C 36 %
606 03-04-2020 04:51:18 4.4 C 36 %
607 03-04-2020 05:01:18 4.3 C 36 %
608 03-04-2020 05:11:18 4.5 C 36 %
609 03-04-2020 05:21:17 4.8 C 36 %
610 03-04-2020 05:31:17 4.8 C 36 %
611 03-04-2020 05:41:17 5.2 C 35 %
612 03-04-2020 05:51:17 5.3 C 35 %
613 03-04-2020 06:01:18 5.4 C 35 %
614 03-04-2020 06:11:18 5.4 C 35 %
615 03-04-2020 06:21:17 5.1 C 35 %
616 03-04-2020 06:31:17 5.1 C 36 %
617 03-04-2020 06:41:17 5.1 C 35 %
618 03-04-2020 06:51:17 5.2 C 35 %
619 03-04-2020 07:01:17 5.7 C 35 %
620 03-04-2020 07:11:17 5.6 C 35 %
621 03-04-2020 07:21:18 5.5 C 35 %
622 03-04-2020 07:31:17 5.7 C 35 %
623 03-04-2020 07:41:17 5.6 C 35 %
624 03-04-2020 07:51:17 5.6 C 35 %
625 03-04-2020 08:01:17 5.7 C 35 %
Sensor: Nr:Datum:Temp:Feuchte:
Aussen-T/F 626 03-04-2020 08:11:17 5.9 C 35 %
627 03-04-2020 08:21:18 5.9 C 35 %
628 03-04-2020 08:31:17 5.9 C 35 %
629 03-04-2020 08:41:17 6.1 C 35 %
630 03-04-2020 08:51:18 6.6 C 35 %
631 03-04-2020 09:01:17 7 C 34 %
632 03-04-2020 09:11:17 7.1 C 34 %
633 03-04-2020 09:21:18 7.6 C 34 %
634 03-04-2020 09:31:18 7.7 C 34 %
635 03-04-2020 09:41:18 8 C 33 %
636 03-04-2020 09:51:17 8.4 C 33 %
637 03-04-2020 10:01:18 8.6 C 32 %
638 03-04-2020 10:11:18 8.6 C 32 %
639 03-04-2020 10:21:17 9 C 32 %
640 03-04-2020 10:31:18 9.4 C 32 %
641 03-04-2020 10:41:18 9.2 C 32 %
642 03-04-2020 10:51:17 9.6 C 32 %
643 03-04-2020 11:01:17 10.6 C 31 %
644 03-04-2020 11:11:17 11.2 C 29 %
645 03-04-2020 11:21:17 10.9 C 29 %
646 03-04-2020 11:31:17 11.1 C 28 %
647 03-04-2020 11:41:17 11.5 C 26 %
648 03-04-2020 11:51:17 11.4 C 26 %
649 03-04-2020 12:01:17 11.1 C 26 %
650 03-04-2020 12:11:17 11.2 C 26 %
Sensor: Nr:Datum:Temp:Feuchte:
Aussen-T/F 651 03-04-2020 12:21:17 11.4 C 26 %
652 03-04-2020 12:31:17 11.6 C 25 %
653 03-04-2020 12:41:18 11.1 C 25 %
654 03-04-2020 12:51:17 11.1 C 25 %
655 03-04-2020 13:01:18 11.2 C 25 %
656 03-04-2020 13:11:18 11.7 C 25 %
657 03-04-2020 13:21:17 12.2 C 22 %
658 03-04-2020 13:31:17 11.8 C 22 %
659 03-04-2020 13:41:17 11.8 C 23 %
660 03-04-2020 13:51:17 12.2 C 22 %
661 03-04-2020 14:01:18 12.3 C 20 %
662 03-04-2020 14:11:18 11.6 C 21 %
663 03-04-2020 14:21:17 11.7 C 21 %
664 03-04-2020 14:31:17 11.6 C 21 %
665 03-04-2020 14:41:18 11.4 C 23 %
666 03-04-2020 14:51:17 11.7 C 21 %
667 03-04-2020 15:01:17 11.8 C 20 %
668 03-04-2020 15:11:17 11.7 C 20 %
669 03-04-2020 15:21:18 11.8 C 20 %
670 03-04-2020 15:31:17 12.1 C 20 %
671 03-04-2020 15:41:17 12.5 C 20 %
672 03-04-2020 15:51:17 13.1 C 20 %
673 03-04-2020 16:01:17 12.6 C 20 %
674 03-04-2020 16:11:17 12.4 C 20 %
675 03-04-2020 16:21:17 12.4 C 20 %
Sensor: Nr:Datum:Temp:Feuchte:
Aussen-T/F 676 03-04-2020 16:31:17 12.3 C 20 %
677 03-04-2020 16:41:17 12.4 C 20 %
678 03-04-2020 16:51:17 12.4 C 20 %
679 03-04-2020 17:01:17 12.2 C 20 %
680 03-04-2020 17:11:17 12.2 C 20 %
681 03-04-2020 17:21:17 12.2 C 20 %
682 03-04-2020 17:31:17 12.2 C 20 %
683 03-04-2020 17:41:17 12.4 C 20 %
684 03-04-2020 17:51:17 11.9 C 20 %
685 03-04-2020 18:01:17 11.5 C 20 %
686 03-04-2020 18:11:17 11.7 C 20 %
687 03-04-2020 18:21:17 11.5 C 20 %
688 03-04-2020 18:31:18 11.4 C 20 %
689 03-04-2020 18:41:18 11 C 20 %
690 03-04-2020 18:51:17 11 C 20 %
691 03-04-2020 19:01:18 10.8 C 20 %
692 03-04-2020 19:11:18 10.7 C 20 %
693 03-04-2020 19:21:17 10.5 C 20 %
694 03-04-2020 19:31:17 10.2 C 20 %
695 03-04-2020 19:41:17 10.3 C 20 %
696 03-04-2020 19:51:17 9.9 C 20 %
697 03-04-2020 20:01:17 9.8 C 20 %
698 03-04-2020 20:11:17 9.5 C 20 %
699 03-04-2020 20:21:17 9.1 C 20 %
700 03-04-2020 20:31:18 9.5 C 20 %
Sensor: Nr:Datum:Temp:Feuchte:
Aussen-T/F 701 03-04-2020 20:41:18 9.2 C 20 %
702 03-04-2020 20:51:18 9.1 C 20 %
703 03-04-2020 21:01:17 9.2 C 20 %
704 03-04-2020 21:11:17 9.1 C 20 %
705 03-04-2020 21:21:17 8.9 C 20 %
706 03-04-2020 21:31:17 8.7 C 20 %
707 03-04-2020 21:41:17 8.6 C 20 %
708 03-04-2020 21:51:17 8.3 C 20 %
709 03-04-2020 22:01:17 8.1 C 20 %
710 03-04-2020 22:11:17 7.9 C 20 %
711 03-04-2020 22:21:17 7.2 C 23 %
712 03-04-2020 22:31:18 6.8 C 25 %
713 03-04-2020 22:41:18 6.5 C 26 %
714 03-04-2020 22:51:17 6.3 C 26 %
715 03-04-2020 23:01:17 6.4 C 26 %
716 03-04-2020 23:11:18 6.4 C 25 %
717 03-04-2020 23:21:18 6.2 C 26 %
718 03-04-2020 23:31:17 5.2 C 28 %
719 03-04-2020 23:41:18 5 C 29 %
720 03-04-2020 23:51:17 4.7 C 30 %
721 04-04-2020 00:01:17 4.8 C 30 %
722 04-04-2020 00:11:18 4.8 C 30 %
723 04-04-2020 00:21:17 4.7 C 30 %
724 04-04-2020 00:31:17 5.2 C 28 %
725 04-04-2020 00:41:17 4.5 C 29 %
Sensor: Nr:Datum:Temp:Feuchte:
Aussen-T/F 726 04-04-2020 00:51:17 4 C 30 %
727 04-04-2020 01:01:17 4.6 C 30 %
728 04-04-2020 01:11:17 4.3 C 30 %
729 04-04-2020 01:21:18 3.9 C 31 %
730 04-04-2020 01:31:17 4 C 32 %
731 04-04-2020 01:41:17 3.1 C 35 %
732 04-04-2020 01:51:17 2.2 C 37 %
733 04-04-2020 02:01:18 1.7 C 39 %
734 04-04-2020 02:11:18 1.4 C 40 %
735 04-04-2020 02:21:17 1.2 C 40 %
736 04-04-2020 02:31:17 0.9 C 41 %
737 04-04-2020 02:41:17 0.8 C 41 %
738 04-04-2020 02:51:17 0.8 C 42 %
739 04-04-2020 03:01:18 0.6 C 42 %
740 04-04-2020 03:11:18 0.4 C 42 %
741 04-04-2020 03:21:17 0.3 C 43 %
742 04-04-2020 03:31:18 0.6 C 43 %
743 04-04-2020 03:41:18 0.5 C 42 %
744 04-04-2020 03:51:17 -0.1 C 43 %
745 04-04-2020 04:01:17 -0.4 C 43 %
746 04-04-2020 04:11:17 -0.6 C 43 %
747 04-04-2020 04:21:17 -0.7 C 44 %
748 04-04-2020 04:31:17 -0.6 C 44 %
749 04-04-2020 04:41:17 -0.9 C 44 %
750 04-04-2020 04:51:17 -0.9 C 45 %
Sensor: Nr:Datum:Temp:Feuchte:
Aussen-T/F 751 04-04-2020 05:01:18 -0.9 C 45 %
752 04-04-2020 05:11:18 -1.2 C 45 %
753 04-04-2020 05:21:18 -1.2 C 45 %
754 04-04-2020 05:31:17 -1 C 45 %
755 04-04-2020 05:41:17 -1.2 C 45 %
756 04-04-2020 05:51:17 -1.2 C 45 %
757 04-04-2020 06:01:18 -1.5 C 45 %
758 04-04-2020 06:11:18 -1.5 C 45 %
759 04-04-2020 06:21:17 -1.5 C 45 %
760 04-04-2020 06:31:17 -1.8 C 45 %
761 04-04-2020 06:41:17 -1.4 C 46 %
762 04-04-2020 06:51:17 -1.5 C 45 %
763 04-04-2020 07:01:18 -1.6 C 45 %
764 04-04-2020 07:11:18 -1.8 C 45 %
765 04-04-2020 07:21:17 -1.5 C 46 %
766 04-04-2020 07:31:18 -1.8 C 45 %
767 04-04-2020 07:41:18 -1.7 C 46 %
768 04-04-2020 07:51:17 -1.8 C 45 %
769 04-04-2020 08:01:17 -1.8 C 46 %
770 04-04-2020 08:11:18 -1.7 C 46 %
771 04-04-2020 08:21:17 -1.5 C 46 %
772 04-04-2020 08:31:17 -1.1 C 46 %
773 04-04-2020 08:41:18 -1 C 46 %
774 04-04-2020 08:51:17 -0.7 C 45 %
775 04-04-2020 09:01:17 -0.3 C 45 %
Sensor: Nr:Datum:Temp:Feuchte:
Aussen-T/F 776 04-04-2020 09:11:17 0 C 45 %
777 04-04-2020 09:21:17 -0.2 C 45 %
778 04-04-2020 09:31:18 0.2 C 45 %
779 04-04-2020 09:41:18 0.8 C 44 %
780 04-04-2020 09:51:17 1.1 C 43 %
781 04-04-2020 10:01:17 1.5 C 43 %
782 04-04-2020 10:11:18 1.8 C 43 %
783 04-04-2020 10:21:17 2.2 C 41 %
784 04-04-2020 10:31:17 2.9 C 41 %
785 04-04-2020 10:41:17 3.5 C 40 %
786 04-04-2020 10:51:17 4.5 C 37 %
787 04-04-2020 11:01:17 5.3 C 36 %
788 04-04-2020 11:11:17 6.4 C 35 %
789 04-04-2020 11:21:18 7.1 C 32 %
790 04-04-2020 11:31:18 7.9 C 32 %
791 04-04-2020 11:41:18 8.4 C 29 %
792 04-04-2020 11:51:18 8.7 C 29 %
793 04-04-2020 12:01:18 9.7 C 26 %
794 04-04-2020 12:11:18 9.7 C 26 %
795 04-04-2020 12:21:17 10.6 C 22 %
796 04-04-2020 12:31:17 10.9 C 20 %
797 04-04-2020 12:41:17 11.4 C 20 %
798 04-04-2020 12:51:17 10.8 C 20 %
799 04-04-2020 13:01:17 11.1 C 20 %
800 04-04-2020 13:11:17 12.1 C 20 %
Sensor: Nr:Datum:Temp:Feuchte:
Aussen-T/F 801 04-04-2020 13:21:17 11.6 C 20 %
802 04-04-2020 13:31:17 11.4 C 20 %
803 04-04-2020 13:41:17 12.2 C 20 %
804 04-04-2020 13:51:18 12.5 C 20 %
805 04-04-2020 14:01:17 12.1 C 20 %
806 04-04-2020 14:11:17 13.7 C 20 %
807 04-04-2020 14:21:17 14.6 C 20 %
808 04-04-2020 14:31:17 16.6 C 20 %
809 04-04-2020 14:41:17 17 C 20 %
810 04-04-2020 14:51:17 16.3 C 20 %
811 04-04-2020 15:01:18 18.1 C 20 %
812 04-04-2020 15:11:18 18.9 C 20 %
813 04-04-2020 15:21:17 16.9 C 20 %
814 04-04-2020 15:31:17 19.1 C 20 %
815 04-04-2020 15:41:17 19.8 C 20 %
816 04-04-2020 15:51:17 17.4 C 20 %
817 04-04-2020 16:01:17 19.9 C 20 %
818 04-04-2020 16:11:17 19.3 C 20 %
819 04-04-2020 16:21:17 18.7 C 20 %
820 04-04-2020 16:31:17 19.3 C 20 %
821 04-04-2020 16:41:17 20.5 C 20 %
822 04-04-2020 16:51:17 20.4 C 20 %
823 04-04-2020 17:01:17 20.3 C 20 %
824 04-04-2020 17:11:17 20.1 C 20 %
825 04-04-2020 17:21:17 20.5 C 20 %
Sensor: Nr:Datum:Temp:Feuchte:
Aussen-T/F 826 04-04-2020 17:31:17 19.2 C 20 %
827 04-04-2020 17:41:17 18.7 C 20 %
828 04-04-2020 17:51:18 17.8 C 20 %
829 04-04-2020 18:01:17 16.8 C 20 %
830 04-04-2020 18:11:17 16.2 C 20 %
831 04-04-2020 18:21:17 15.4 C 20 %
832 04-04-2020 18:31:17 15.4 C 20 %
833 04-04-2020 18:41:17 15.6 C 20 %
834 04-04-2020 18:51:17 15.1 C 20 %
835 04-04-2020 19:01:17 14.9 C 20 %
836 04-04-2020 19:11:17 14.4 C 20 %
837 04-04-2020 19:21:17 14 C 20 %
838 04-04-2020 19:31:17 13.9 C 20 %
839 04-04-2020 19:41:17 12.6 C 20 %
840 04-04-2020 19:51:17 11.5 C 20 %
841 04-04-2020 20:01:17 11.3 C 20 %
842 04-04-2020 20:11:17 10.7 C 20 %
843 04-04-2020 20:21:17 10.3 C 21 %
844 04-04-2020 20:31:17 9.8 C 25 %
845 04-04-2020 20:41:17 9.5 C 23 %
846 04-04-2020 20:51:17 9.2 C 25 %
847 04-04-2020 21:01:17 9.2 C 21 %
848 04-04-2020 21:11:17 8.7 C 25 %
849 04-04-2020 21:21:17 8.8 C 25 %
850 04-04-2020 21:31:17 8.5 C 25 %
Sensor: Nr:Datum:Temp:Feuchte:
Aussen-T/F 851 04-04-2020 21:41:17 8.2 C 25 %
852 04-04-2020 21:51:17 7.1 C 28 %
853 04-04-2020 22:01:18 5.8 C 31 %
854 04-04-2020 22:11:18 5.5 C 32 %
855 04-04-2020 22:21:18 5.1 C 32 %
856 04-04-2020 22:31:17 4.8 C 35 %
857 04-04-2020 22:41:17 4.7 C 34 %
858 04-04-2020 22:51:17 4.6 C 34 %
859 04-04-2020 23:01:17 4.4 C 34 %
860 04-04-2020 23:11:17 4.1 C 34 %
861 04-04-2020 23:21:17 3.9 C 35 %
862 04-04-2020 23:31:17 3.6 C 36 %
863 04-04-2020 23:41:17 3.5 C 36 %
864 04-04-2020 23:51:17 3.4 C 37 %
865 05-04-2020 00:01:17 3 C 37 %
866 05-04-2020 00:11:17 2.9 C 38 %
867 05-04-2020 00:21:17 2.8 C 39 %
868 05-04-2020 00:31:17 2.5 C 39 %
869 05-04-2020 00:41:17 2.5 C 40 %
870 05-04-2020 00:51:18 2.4 C 40 %
871 05-04-2020 01:01:18 2.3 C 40 %
872 05-04-2020 01:11:18 2.3 C 40 %
873 05-04-2020 01:21:17 2.2 C 40 %
874 05-04-2020 01:31:18 2.1 C 41 %
875 05-04-2020 01:41:18 1.9 C 42 %
Sensor: Nr:Datum:Temp:Feuchte:
Aussen-T/F 876 05-04-2020 01:51:17 1.8 C 42 %
877 05-04-2020 02:01:18 1.6 C 42 %
878 05-04-2020 02:11:18 1.3 C 42 %
879 05-04-2020 02:21:17 1.4 C 43 %
880 05-04-2020 02:31:18 1.4 C 43 %
881 05-04-2020 02:41:18 1.1 C 43 %
882 05-04-2020 02:51:17 1.1 C 43 %
883 05-04-2020 03:01:18 1.3 C 43 %
884 05-04-2020 03:11:18 1.1 C 43 %
885 05-04-2020 03:21:17 1 C 43 %
886 05-04-2020 03:31:17 0.7 C 45 %
887 05-04-2020 03:41:17 0.5 C 45 %
888 05-04-2020 03:51:17 0.7 C 45 %
889 05-04-2020 04:01:17 0.6 C 45 %
890 05-04-2020 04:11:17 0.4 C 45 %
891 05-04-2020 04:21:17 0.4 C 46 %
892 05-04-2020 04:31:17 0.2 C 46 %
893 05-04-2020 04:41:17 0.2 C 46 %
894 05-04-2020 04:51:17 0.2 C 46 %
895 05-04-2020 05:01:17 0 C 46 %
896 05-04-2020 05:11:17 -0.3 C 46 %
897 05-04-2020 05:21:17 -0.2 C 47 %
898 05-04-2020 05:31:17 -0.3 C 46 %
899 05-04-2020 05:41:17 -0.4 C 47 %
900 05-04-2020 05:51:17 -0.5 C 47 %
Sensor: Nr:Datum:Temp:Feuchte:
Aussen-T/F 901 05-04-2020 06:01:17 -0.4 C 47 %
902 05-04-2020 06:11:17 -0.5 C 47 %
903 05-04-2020 06:21:17 -0.6 C 47 %
904 05-04-2020 06:31:18 -0.8 C 48 %
905 05-04-2020 06:41:18 -0.8 C 47 %
906 05-04-2020 06:51:17 -0.8 C 47 %
907 05-04-2020 07:01:18 -0.9 C 47 %
908 05-04-2020 07:11:18 -0.7 C 48 %
909 05-04-2020 07:21:18 -0.6 C 48 %
910 05-04-2020 07:31:17 -0.5 C 48 %
911 05-04-2020 07:41:17 -0.5 C 48 %
912 05-04-2020 07:51:17 -0.4 C 48 %
913 05-04-2020 08:01:17 -0.3 C 48 %
914 05-04-2020 08:11:17 0 C 49 %
915 05-04-2020 08:21:17 0.1 C 48 %
916 05-04-2020 08:31:17 0.4 C 48 %
917 05-04-2020 08:41:17 0.5 C 49 %
918 05-04-2020 08:51:18 0.8 C 49 %
919 05-04-2020 09:01:17 1.1 C 47 %
920 05-04-2020 09:11:17 1.4 C 47 %
921 05-04-2020 09:21:17 1.8 C 47 %
922 05-04-2020 09:31:17 2.4 C 46 %
923 05-04-2020 09:41:17 2.8 C 46 %
924 05-04-2020 09:51:18 3.4 C 44 %
925 05-04-2020 10:01:18 3.9 C 43 %
Sensor: Nr:Datum:Temp:Feuchte:
Aussen-T/F 926 05-04-2020 10:11:18 4.5 C 41 %
927 05-04-2020 10:21:17 5.4 C 40 %
928 05-04-2020 10:31:17 5.9 C 40 %
929 05-04-2020 10:41:17 7 C 38 %
930 05-04-2020 10:51:17 7.9 C 37 %
931 05-04-2020 11:01:17 8.6 C 36 %
932 05-04-2020 11:11:17 10.7 C 32 %
933 05-04-2020 11:21:17 11.2 C 30 %
934 05-04-2020 11:31:17 13.1 C 21 %
935 05-04-2020 11:41:17 13.9 C 20 %
936 05-04-2020 11:51:17 14.8 C 20 %
937 05-04-2020 12:01:17 15.6 C 20 %
938 05-04-2020 12:11:17 15.9 C 20 %
939 05-04-2020 12:21:17 16.7 C 20 %
940 05-04-2020 12:31:18 17.6 C 20 %
941 05-04-2020 12:41:18 17.4 C 20 %
942 05-04-2020 12:51:17 17.4 C 20 %
943 05-04-2020 13:01:17 17.2 C 20 %
944 05-04-2020 13:11:17 18.4 C 20 %
945 05-04-2020 13:21:17 17.5 C 20 %
946 05-04-2020 13:31:17 17.1 C 20 %
947 05-04-2020 13:41:17 17.9 C 20 %
948 05-04-2020 13:51:17 17.7 C 20 %
949 05-04-2020 14:01:17 17.9 C 20 %
950 05-04-2020 14:11:17 19 C 20 %
Sensor: Nr:Datum:Temp:Feuchte:
Aussen-T/F 951 05-04-2020 14:21:17 19.8 C 20 %
952 05-04-2020 14:31:18 21.7 C 20 %
953 05-04-2020 14:41:18 23.4 C 20 %
954 05-04-2020 14:51:18 23.3 C 20 %
955 05-04-2020 15:01:17 24.7 C 20 %
956 05-04-2020 15:11:18 26.9 C 20 %
957 05-04-2020 15:21:17 24.5 C 20 %
958 05-04-2020 15:31:17 24.8 C 20 %
959 05-04-2020 15:41:17 25.1 C 20 %
960 05-04-2020 15:51:18 26.6 C 20 %
961 05-04-2020 16:01:17 25 C 20 %
962 05-04-2020 16:11:17 23.3 C 20 %
963 05-04-2020 16:21:17 25.5 C 20 %
964 05-04-2020 16:31:17 24.8 C 20 %
965 05-04-2020 16:41:17 23.1 C 20 %
966 05-04-2020 16:51:17 23.4 C 20 %
967 05-04-2020 17:01:17 23.5 C 20 %
968 05-04-2020 17:11:17 26.4 C 20 %
969 05-04-2020 17:21:17 25.9 C 20 %
970 05-04-2020 17:31:17 24.4 C 20 %
971 05-04-2020 17:41:17 24.2 C 20 %
972 05-04-2020 17:51:17 23.6 C 20 %
973 05-04-2020 18:01:17 20.8 C 20 %
974 05-04-2020 18:11:17 19.7 C 20 %
975 05-04-2020 18:21:17 20 C 20 %
Sensor: Nr:Datum:Temp:Feuchte:
Aussen-T/F 976 05-04-2020 18:31:17 19.7 C 20 %
977 05-04-2020 18:41:17 19.4 C 20 %
978 05-04-2020 18:51:17 18.9 C 20 %
979 05-04-2020 19:01:17 18.8 C 20 %
980 05-04-2020 19:11:17 18.4 C 20 %
981 05-04-2020 19:21:17 18 C 20 %
982 05-04-2020 19:31:18 17.5 C 20 %
983 05-04-2020 19:41:18 16.3 C 20 %
984 05-04-2020 19:51:17 15 C 20 %
985 05-04-2020 20:01:18 14.3 C 20 %
986 05-04-2020 20:11:18 14.1 C 20 %
987 05-04-2020 20:21:17 13.5 C 20 %
988 05-04-2020 20:31:17 13.3 C 20 %
989 05-04-2020 20:41:17 13 C 20 %
990 05-04-2020 20:51:17 12.7 C 20 %
991 05-04-2020 21:01:18 12.3 C 20 %
992 05-04-2020 21:11:18 12 C 20 %
993 05-04-2020 21:21:17 12.1 C 20 %
994 05-04-2020 21:31:17 11.7 C 20 %
995 05-04-2020 21:41:17 11.5 C 20 %
996 05-04-2020 21:51:17 10.3 C 20 %
997 05-04-2020 22:01:17 10.5 C 20 %
998 05-04-2020 22:11:17 9.2 C 25 %
999 05-04-2020 22:21:17 8.9 C 26 %
1000 05-04-2020 22:31:17 8.8 C 26 %
Sensor: Nr:Datum:Temp:Feuchte:
Aussen-T/F 1001 05-04-2020 22:41:17 8.4 C 27 %
1002 05-04-2020 22:51:17 8.2 C 27 %
1003 05-04-2020 23:01:17 8 C 28 %
1004 05-04-2020 23:11:17 7.4 C 30 %
1005 05-04-2020 23:21:17 7.4 C 29 %
1006 05-04-2020 23:31:17 7 C 30 %
1007 05-04-2020 23:41:17 6.7 C 31 %
1008 05-04-2020 23:51:17 6.3 C 31 %
1009 06-04-2020 00:01:17 6.2 C 32 %
1010 06-04-2020 00:11:17 6.3 C 32 %
1011 06-04-2020 00:21:17 6.3 C 32 %
1012 06-04-2020 00:31:18 6 C 32 %
1013 06-04-2020 00:41:18 5.6 C 33 %
1014 06-04-2020 00:51:17 5.6 C 34 %
1015 06-04-2020 01:01:18 5.4 C 35 %
1016 06-04-2020 01:11:18 5.3 C 35 %
1017 06-04-2020 01:21:17 5.1 C 35 %
1018 06-04-2020 01:31:17 4.8 C 36 %
1019 06-04-2020 01:41:17 4.7 C 36 %
1020 06-04-2020 01:51:17 4.6 C 36 %
1021 06-04-2020 02:01:17 4.5 C 37 %
1022 06-04-2020 02:11:17 4.1 C 37 %
1023 06-04-2020 02:21:17 4.2 C 37 %
1024 06-04-2020 02:31:17 4 C 37 %
1025 06-04-2020 02:41:17 4.1 C 37 %
Sensor: Nr:Datum:Temp:Feuchte:
Aussen-T/F 1026 06-04-2020 02:51:17 3.8 C 38 %
1027 06-04-2020 03:01:17 3.9 C 39 %
1028 06-04-2020 03:11:17 3.6 C 39 %
1029 06-04-2020 03:21:17 3.3 C 39 %
1030 06-04-2020 03:31:18 3.3 C 40 %
1031 06-04-2020 03:41:18 3.2 C 40 %
1032 06-04-2020 03:51:17 3.3 C 40 %
1033 06-04-2020 04:01:17 3.2 C 40 %
1034 06-04-2020 04:11:17 3.3 C 40 %
1035 06-04-2020 04:21:17 3.1 C 40 %
1036 06-04-2020 04:31:17 2.8 C 40 %
1037 06-04-2020 04:41:17 2.6 C 41 %
1038 06-04-2020 04:51:17 2.5 C 41 %
1039 06-04-2020 05:01:17 2.4 C 41 %
1040 06-04-2020 05:11:17 2.3 C 41 %
1041 06-04-2020 05:21:18 2.2 C 41 %
1042 06-04-2020 05:31:17 1.9 C 42 %
1043 06-04-2020 05:41:17 1.8 C 43 %
1044 06-04-2020 05:51:17 1.7 C 43 %
1045 06-04-2020 06:01:17 1.6 C 44 %
1046 06-04-2020 06:11:17 1.5 C 44 %
1047 06-04-2020 06:21:18 1.3 C 45 %
1048 06-04-2020 06:31:17 1.2 C 45 %
1049 06-04-2020 06:41:18 1.3 C 45 %
1050 06-04-2020 06:51:17 1.3 C 45 %
Sensor: Nr:Datum:Temp:Feuchte:
Aussen-T/F 1051 06-04-2020 07:01:17 1.4 C 45 %
1052 06-04-2020 07:11:17 1.5 C 45 %
1053 06-04-2020 07:21:17 1.6 C 45 %
1054 06-04-2020 07:31:18 1.5 C 45 %
1055 06-04-2020 07:41:18 1.6 C 45 %
1056 06-04-2020 07:51:17 2 C 45 %
1057 06-04-2020 08:01:17 1.9 C 45 %
1058 06-04-2020 08:11:17 2.2 C 44 %
1059 06-04-2020 08:21:17 2.5 C 44 %
1060 06-04-2020 08:31:17 3 C 42 %
1061 06-04-2020 08:41:17 3.2 C 42 %
1062 06-04-2020 08:51:17 3.4 C 41 %
1063 06-04-2020 09:01:18 3.5 C 41 %
1064 06-04-2020 09:11:18 3.4 C 41 %
1065 06-04-2020 09:21:17 3.9 C 41 %
1066 06-04-2020 09:31:17 4.3 C 40 %
1067 06-04-2020 09:41:17 4.8 C 40 %
1068 06-04-2020 09:51:18 5.2 C 40 %
1069 06-04-2020 10:01:18 6 C 38 %
1070 06-04-2020 10:11:18 6.5 C 37 %
1071 06-04-2020 10:21:17 7.2 C 36 %
1072 06-04-2020 10:31:17 7.9 C 36 %
1073 06-04-2020 10:41:17 8.8 C 35 %
1074 06-04-2020 10:51:17 9.8 C 34 %
1075 06-04-2020 11:01:17 11.1 C 31 %
Sensor: Nr:Datum:Temp:Feuchte:
Aussen-T/F 1076 06-04-2020 11:11:18 12.2 C 29 %
1077 06-04-2020 11:21:17 13.3 C 26 %
1078 06-04-2020 11:31:17 16 C 20 %
1079 06-04-2020 11:41:17 17.1 C 20 %
1080 06-04-2020 11:51:18 17.6 C 20 %
1081 06-04-2020 12:01:18 18.1 C 20 %
1082 06-04-2020 12:11:18 18.6 C 20 %
1083 06-04-2020 12:21:17 20.3 C 20 %
1084 06-04-2020 12:31:17 21 C 20 %
1085 06-04-2020 12:41:17 19.4 C 20 %
1086 06-04-2020 12:51:17 20.2 C 20 %
1087 06-04-2020 13:01:17 20.6 C 20 %
1088 06-04-2020 13:11:17 20.8 C 20 %
1089 06-04-2020 13:21:17 20.4 C 20 %
1090 06-04-2020 13:31:18 20.3 C 20 %
1091 06-04-2020 13:41:18 21.2 C 20 %
1092 06-04-2020 13:51:17 21.3 C 20 %
1093 06-04-2020 14:01:18 22.3 C 20 %
1094 06-04-2020 14:11:18 22.3 C 20 %
1095 06-04-2020 14:21:17 23.7 C 20 %
1096 06-04-2020 14:31:17 26.8 C 20 %
1097 06-04-2020 14:41:17 27.4 C 20 %
1098 06-04-2020 14:51:18 28.3 C 20 %
1099 06-04-2020 15:01:17 28 C 20 %
1100 06-04-2020 15:11:17 26.6 C 20 %
Sensor: Nr:Datum:Temp:Feuchte:
Aussen-T/F 1101 06-04-2020 15:21:17 27.1 C 20 %
1102 06-04-2020 15:31:17 25.8 C 20 %
1103 06-04-2020 15:41:17 26.9 C 20 %
1104 06-04-2020 15:51:17 27.9 C 20 %
1105 06-04-2020 16:01:17 29.7 C 20 %
1106 06-04-2020 16:11:17 27.4 C 20 %
1107 06-04-2020 16:21:18 27.4 C 20 %
1108 06-04-2020 16:31:18 28.3 C 20 %
1109 06-04-2020 16:41:18 28.5 C 20 %
1110 06-04-2020 16:51:17 27.1 C 20 %
1111 06-04-2020 17:01:17 27.6 C 20 %
1112 06-04-2020 17:11:17 26 C 20 %
1113 06-04-2020 17:21:17 26.7 C 20 %
1114 06-04-2020 17:31:17 25.7 C 20 %
1115 06-04-2020 17:41:17 25.5 C 20 %
1116 06-04-2020 17:51:17 24.2 C 20 %
1117 06-04-2020 18:01:17 23.3 C 20 %
1118 06-04-2020 18:11:17 23.1 C 20 %
1119 06-04-2020 18:21:17 22.6 C 20 %
1120 06-04-2020 18:31:18 22.6 C 20 %
1121 06-04-2020 18:41:18 22.3 C 20 %
1122 06-04-2020 18:51:17 22 C 20 %
1123 06-04-2020 19:01:17 21.7 C 20 %
1124 06-04-2020 19:11:17 21.1 C 20 %
1125 06-04-2020 19:21:17 20.5 C 20 %
Sensor: Nr:Datum:Temp:Feuchte:
Aussen-T/F 1126 06-04-2020 19:31:17 20.2 C 20 %
1127 06-04-2020 19:41:17 19.1 C 20 %
1128 06-04-2020 19:51:17 18.3 C 20 %
1129 06-04-2020 20:01:18 16.4 C 20 %
1130 06-04-2020 20:11:18 16.3 C 20 %
1131 06-04-2020 20:21:17 15.8 C 20 %
1132 06-04-2020 20:31:17 15.3 C 20 %
1133 06-04-2020 20:41:18 15.1 C 20 %
1134 06-04-2020 20:51:17 13.7 C 20 %
1135 06-04-2020 21:01:18 13.2 C 20 %
1136 06-04-2020 21:11:18 12.9 C 20 %
1137 06-04-2020 21:21:17 12 C 20 %
1138 06-04-2020 21:31:18 11.8 C 22 %
1139 06-04-2020 21:41:18 11.6 C 22 %
1140 06-04-2020 21:51:17 11.1 C 22 %
1141 06-04-2020 22:01:17 10.8 C 25 %
1142 06-04-2020 22:11:17 10.6 C 25 %
1143 06-04-2020 22:21:17 10.2 C 25 %
1144 06-04-2020 22:31:17 10 C 26 %
1145 06-04-2020 22:41:17 10 C 26 %
1146 06-04-2020 22:51:17 9.9 C 26 %
1147 06-04-2020 23:01:18 9.8 C 26 %
1148 06-04-2020 23:11:18 9.6 C 26 %
1149 06-04-2020 23:21:17 9.5 C 27 %
1150 06-04-2020 23:31:17 9.4 C 27 %
Sensor: Nr:Datum:Temp:Feuchte:
Aussen-T/F 1151 06-04-2020 23:41:17 9.2 C 27 %
1152 06-04-2020 23:51:17 9.5 C 29 %
1153 07-04-2020 00:01:17 10.2 C 26 %
1154 07-04-2020 00:11:17 9.1 C 29 %
1155 07-04-2020 00:21:18 8.7 C 30 %
1156 07-04-2020 00:31:17 8.8 C 30 %
1157 07-04-2020 00:41:17 9 C 30 %
1158 07-04-2020 00:51:17 8.6 C 30 %
1159 07-04-2020 01:01:17 8.7 C 30 %
1160 07-04-2020 01:11:17 9.1 C 30 %
1161 07-04-2020 01:21:17 9.4 C 30 %
1162 07-04-2020 01:31:17 9.8 C 30 %
1163 07-04-2020 01:41:17 10.1 C 30 %
1164 07-04-2020 01:51:18 10 C 29 %
1165 07-04-2020 02:01:18 9.2 C 30 %
1166 07-04-2020 02:11:18 8.8 C 31 %
1167 07-04-2020 02:21:17 8.2 C 33 %
1168 07-04-2020 02:31:17 7.9 C 34 %
1169 07-04-2020 02:41:17 7.5 C 34 %
1170 07-04-2020 02:51:17 7.2 C 35 %
1171 07-04-2020 03:01:17 7.3 C 35 %
1172 07-04-2020 03:11:17 7.6 C 35 %
1173 07-04-2020 03:21:17 7.9 C 35 %
1174 07-04-2020 03:31:17 8 C 35 %
1175 07-04-2020 03:41:17 7.7 C 36 %
Sensor: Nr:Datum:Temp:Feuchte:
Aussen-T/F 1176 07-04-2020 03:51:17 7.8 C 35 %
1177 07-04-2020 04:01:17 7.8 C 36 %
1178 07-04-2020 04:11:17 7.6 C 36 %
1179 07-04-2020 04:21:17 7.4 C 36 %
1180 07-04-2020 04:31:17 7.2 C 36 %
1181 07-04-2020 04:41:18 6.9 C 37 %
1182 07-04-2020 04:51:17 6.8 C 37 %
1183 07-04-2020 05:01:17 6.3 C 38 %
1184 07-04-2020 05:11:17 6.1 C 38 %
1185 07-04-2020 05:21:18 5.9 C 40 %
1186 07-04-2020 05:31:17 5.8 C 40 %
1187 07-04-2020 05:41:17 5.7 C 40 %
1188 07-04-2020 05:51:17 5.6 C 41 %
1189 07-04-2020 06:01:17 5.6 C 41 %
1190 07-04-2020 06:11:17 5.2 C 40 %
1191 07-04-2020 06:21:17 5.3 C 41 %
1192 07-04-2020 06:31:17 5.2 C 41 %
1193 07-04-2020 06:41:17 5 C 41 %
1194 07-04-2020 06:51:17 4.8 C 42 %
1195 07-04-2020 07:01:18 4.8 C 43 %
1196 07-04-2020 07:11:18 4.7 C 43 %
1197 07-04-2020 07:21:18 4.8 C 44 %
1198 07-04-2020 07:31:17 5 C 43 %
1199 07-04-2020 07:41:18 5.7 C 43 %
1200 07-04-2020 07:51:17 5.8 C 42 %
Sensor: Nr:Datum:Temp:Feuchte:
Aussen-T/F 1201 07-04-2020 08:01:17 5.7 C 41 %
1202 07-04-2020 08:11:18 5.8 C 41 %
1203 07-04-2020 08:21:17 6 C 41 %
1204 07-04-2020 08:31:17 6 C 41 %
1205 07-04-2020 08:41:17 6.3 C 41 %
1206 07-04-2020 08:51:17 6.6 C 41 %
1207 07-04-2020 09:01:17 7.1 C 40 %
1208 07-04-2020 09:11:17 7.3 C 40 %
1209 07-04-2020 09:21:17 7.5 C 40 %
1210 07-04-2020 09:31:17 8 C 39 %
1211 07-04-2020 09:41:18 8.9 C 39 %
1212 07-04-2020 09:51:17 9.3 C 37 %
1213 07-04-2020 10:01:17 9.4 C 38 %
1214 07-04-2020 10:11:18 10 C 37 %
1215 07-04-2020 10:21:17 10.7 C 37 %
1216 07-04-2020 10:31:18 11.4 C 36 %
1217 07-04-2020 10:41:18 12.3 C 35 %
1218 07-04-2020 10:51:17 13.1 C 33 %
1219 07-04-2020 11:01:17 14 C 31 %
1220 07-04-2020 11:11:17 14.6 C 31 %
1221 07-04-2020 11:21:17 15.2 C 30 %
1222 07-04-2020 11:31:17 16 C 28 %
1223 07-04-2020 11:41:17 16.5 C 27 %
1224 07-04-2020 11:51:17 16.9 C 27 %
1225 07-04-2020 12:01:17 17.2 C 26 %
Sensor: Nr:Datum:Temp:Feuchte:
Aussen-T/F 1226 07-04-2020 12:11:17 17.7 C 25 %
1227 07-04-2020 12:21:18 18.7 C 23 %
1228 07-04-2020 12:31:17 20.9 C 21 %
1229 07-04-2020 12:41:17 19.6 C 20 %
1230 07-04-2020 12:51:18 19.6 C 20 %
1231 07-04-2020 13:01:17 20.7 C 20 %
1232 07-04-2020 13:11:17 21.3 C 20 %
1233 07-04-2020 13:21:17 20.8 C 20 %
1234 07-04-2020 13:31:17 19.8 C 20 %
1235 07-04-2020 13:41:17 20.4 C 20 %
1236 07-04-2020 13:51:18 20.6 C 20 %
1237 07-04-2020 14:01:17 21.1 C 20 %
1238 07-04-2020 14:11:17 22 C 20 %
1239 07-04-2020 14:21:17 23.6 C 20 %
1240 07-04-2020 14:31:17 26.2 C 20 %
1241 07-04-2020 14:41:17 22.9 C 20 %
1242 07-04-2020 14:51:17 26.7 C 20 %
1243 07-04-2020 15:01:17 26.4 C 20 %
1244 07-04-2020 15:11:17 27.1 C 20 %
1245 07-04-2020 15:21:17 30.1 C 20 %
1246 07-04-2020 15:31:17 28.4 C 20 %
1247 07-04-2020 15:41:18 27.2 C 20 %
1248 07-04-2020 15:51:17 26.6 C 20 %
1249 07-04-2020 16:01:17 27.4 C 20 %
1250 07-04-2020 16:11:17 25.1 C 20 %
Sensor: Nr:Datum:Temp:Feuchte:
Aussen-T/F 1251 07-04-2020 16:21:17 27.8 C 20 %
1252 07-04-2020 16:31:17 23.9 C 20 %
1253 07-04-2020 16:41:18 24.3 C 20 %
1254 07-04-2020 16:51:18 29.2 C 20 %
1255 07-04-2020 17:01:17 31 C 20 %
1256 07-04-2020 17:11:17 25 C 20 %
1257 07-04-2020 17:21:17 24.2 C 20 %
1258 07-04-2020 17:31:18 24.2 C 20 %
1259 07-04-2020 17:41:18 26.9 C 20 %
1260 07-04-2020 17:51:18 24.6 C 20 %
1261 07-04-2020 18:01:17 23.7 C 20 %
1262 07-04-2020 18:11:17 23.7 C 20 %
1263 07-04-2020 18:21:17 22.9 C 20 %
1264 07-04-2020 18:31:17 22.7 C 20 %
1265 07-04-2020 18:41:17 22.3 C 20 %
1266 07-04-2020 18:51:17 22 C 20 %
1267 07-04-2020 19:01:17 21.8 C 20 %
1268 07-04-2020 19:11:18 21 C 20 %
1269 07-04-2020 19:21:17 20 C 20 %
1270 07-04-2020 19:31:17 19.1 C 20 %
1271 07-04-2020 19:41:17 18.4 C 20 %
1272 07-04-2020 19:51:17 18.3 C 20 %
1273 07-04-2020 20:01:18 17.6 C 20 %
1274 07-04-2020 20:11:18 17.3 C 20 %
1275 07-04-2020 20:21:17 17.1 C 20 %
Sensor: Nr:Datum:Temp:Feuchte:
Aussen-T/F 1276 07-04-2020 20:31:17 16.8 C 20 %
1277 07-04-2020 20:41:17 16.5 C 20 %
1278 07-04-2020 20:51:17 16.3 C 20 %
1279 07-04-2020 21:01:17 16.1 C 20 %
1280 07-04-2020 21:11:17 15.9 C 20 %
1281 07-04-2020 21:21:18 15.8 C 20 %
1282 07-04-2020 21:31:17 15.4 C 21 %
1283 07-04-2020 21:41:17 15.2 C 21 %
1284 07-04-2020 21:51:17 15.1 C 22 %
1285 07-04-2020 22:01:18 14.6 C 25 %
1286 07-04-2020 22:11:18 13.1 C 27 %
1287 07-04-2020 22:21:17 12.9 C 29 %
1288 07-04-2020 22:31:17 12.7 C 30 %
1289 07-04-2020 22:41:17 12.7 C 30 %
1290 07-04-2020 22:51:18 12.7 C 30 %
1291 07-04-2020 23:01:18 12.7 C 30 %
1292 07-04-2020 23:11:18 12.6 C 30 %
1293 07-04-2020 23:21:17 13.1 C 29 %
1294 07-04-2020 23:31:17 12.8 C 30 %
1295 07-04-2020 23:41:17 12.8 C 30 %
1296 07-04-2020 23:51:17 12.3 C 31 %
1297 08-04-2020 00:01:17 11.7 C 33 %
1298 08-04-2020 00:11:17 11.7 C 33 %
1299 08-04-2020 00:21:17 11.5 C 33 %
1300 08-04-2020 00:31:17 11.5 C 33 %
Sensor: Nr:Datum:Temp:Feuchte:
Aussen-T/F 1301 08-04-2020 00:41:17 11.2 C 34 %
1302 08-04-2020 00:51:18 10.8 C 35 %
1303 08-04-2020 01:01:17 10.8 C 36 %
1304 08-04-2020 01:11:17 10.9 C 35 %
1305 08-04-2020 01:21:17 10.4 C 36 %
1306 08-04-2020 01:31:18 10.2 C 36 %
1307 08-04-2020 01:41:18 9.9 C 37 %
1308 08-04-2020 01:51:17 9.6 C 38 %
1309 08-04-2020 02:01:18 9.2 C 38 %
1310 08-04-2020 02:11:18 8.7 C 39 %
1311 08-04-2020 02:21:17 8.5 C 40 %
1312 08-04-2020 02:31:17 8.2 C 40 %
1313 08-04-2020 02:41:18 8 C 40 %
1314 08-04-2020 02:51:17 7.7 C 41 %
1315 08-04-2020 03:01:18 7.4 C 41 %
1316 08-04-2020 03:11:18 7.1 C 41 %
1317 08-04-2020 03:21:17 7.1 C 42 %
1318 08-04-2020 03:31:17 7.1 C 42 %
1319 08-04-2020 03:41:17 6.8 C 43 %
1320 08-04-2020 03:51:17 6.7 C 43 %
1321 08-04-2020 04:01:17 6.6 C 44 %
1322 08-04-2020 04:11:18 6.7 C 44 %
1323 08-04-2020 04:21:17 6.3 C 44 %
1324 08-04-2020 04:31:17 6.3 C 45 %
1325 08-04-2020 04:41:17 6.4 C 45 %
Sensor: Nr:Datum:Temp:Feuchte:
Aussen-T/F 1326 08-04-2020 04:51:17 6.3 C 45 %
1327 08-04-2020 05:01:18 6.1 C 44 %
1328 08-04-2020 05:11:18 5.9 C 45 %
1329 08-04-2020 05:21:17 5.6 C 45 %
1330 08-04-2020 05:31:17 5.4 C 45 %
1331 08-04-2020 05:41:18 5.4 C 45 %
1332 08-04-2020 05:51:17 5.4 C 46 %
1333 08-04-2020 06:01:17 5.3 C 46 %
1334 08-04-2020 06:11:17 5.4 C 46 %
1335 08-04-2020 06:21:17 5.3 C 46 %
1336 08-04-2020 06:31:17 5.3 C 46 %
1337 08-04-2020 06:41:17 5.1 C 46 %
1338 08-04-2020 06:51:18 5 C 46 %
1339 08-04-2020 07:01:18 5 C 46 %
1340 08-04-2020 07:11:18 5.1 C 46 %
1341 08-04-2020 07:21:17 5.2 C 46 %
1342 08-04-2020 07:31:17 5.3 C 46 %
1343 08-04-2020 07:41:17 5.4 C 46 %
1344 08-04-2020 07:51:17 5.8 C 46 %
1345 08-04-2020 08:01:17 5.7 C 46 %
1346 08-04-2020 08:11:17 6 C 46 %
1347 08-04-2020 08:21:17 6.3 C 46 %
1348 08-04-2020 08:31:18 6.3 C 46 %
1349 08-04-2020 08:41:18 6.5 C 46 %
1350 08-04-2020 08:51:18 6.7 C 46 %
Sensor: Nr:Datum:Temp:Feuchte:
Aussen-T/F 1351 08-04-2020 09:01:18 7 C 45 %
1352 08-04-2020 09:11:18 7.1 C 45 %
1353 08-04-2020 09:21:17 7.6 C 45 %
1354 08-04-2020 09:31:17 7.9 C 45 %
1355 08-04-2020 09:41:17 8.3 C 45 %
1356 08-04-2020 09:51:17 8.7 C 44 %
1357 08-04-2020 10:01:17 9.1 C 43 %
1358 08-04-2020 10:11:17 9.7 C 43 %
1359 08-04-2020 10:21:17 10.2 C 41 %
1360 08-04-2020 10:31:18 11 C 40 %
1361 08-04-2020 10:41:18 11.8 C 39 %
1362 08-04-2020 10:51:18 12.6 C 38 %
1363 08-04-2020 11:01:18 13.7 C 36 %
1364 08-04-2020 11:11:18 14.5 C 35 %
1365 08-04-2020 11:21:17 15.5 C 34 %
1366 08-04-2020 11:31:18 16.2 C 32 %
1367 08-04-2020 11:41:18 17.6 C 27 %
1368 08-04-2020 11:51:17 18.6 C 25 %
1369 08-04-2020 12:01:18 19.2 C 22 %
1370 08-04-2020 12:11:18 20.1 C 21 %
1371 08-04-2020 12:21:17 21.2 C 20 %
1372 08-04-2020 12:31:17 22.4 C 20 %
1373 08-04-2020 12:41:17 22.9 C 20 %
1374 08-04-2020 12:51:17 21.8 C 20 %
1375 08-04-2020 13:01:18 22.9 C 20 %
Sensor: Nr:Datum:Temp:Feuchte:
Aussen-T/F 1376 08-04-2020 13:11:18 22.4 C 20 %
1377 08-04-2020 13:21:17 22.1 C 20 %
1378 08-04-2020 13:31:18 22.3 C 20 %
1379 08-04-2020 13:41:18 23.3 C 20 %
1380 08-04-2020 13:51:17 22.6 C 20 %
1381 08-04-2020 14:01:18 23 C 20 %
1382 08-04-2020 14:11:18 23.7 C 20 %
1383 08-04-2020 14:21:17 24.8 C 20 %
1384 08-04-2020 14:31:18 28.3 C 20 %
1385 08-04-2020 14:41:18 28.9 C 20 %
1386 08-04-2020 14:51:17 28.7 C 20 %
1387 08-04-2020 15:01:17 28.7 C 20 %
1388 08-04-2020 15:11:17 30.1 C 20 %
1389 08-04-2020 15:21:18 29.3 C 20 %
1390 08-04-2020 15:31:17 29.5 C 20 %
1391 08-04-2020 15:41:17 29.1 C 20 %
1392 08-04-2020 15:51:17 32.2 C 20 %
1393 08-04-2020 16:01:17 31.1 C 20 %
1394 08-04-2020 16:11:17 29.7 C 20 %
1395 08-04-2020 16:21:18 30.7 C 20 %
1396 08-04-2020 16:31:17 29 C 20 %
1397 08-04-2020 16:41:17 32.6 C 20 %
1398 08-04-2020 16:51:17 29.7 C 20 %
1399 08-04-2020 17:01:17 29.4 C 20 %
1400 08-04-2020 17:11:17 29.7 C 20 %
Sensor: Nr:Datum:Temp:Feuchte:
Aussen-T/F 1401 08-04-2020 17:21:17 30.1 C 20 %
1402 08-04-2020 17:31:17 30.1 C 20 %
1403 08-04-2020 17:41:17 29 C 20 %
1404 08-04-2020 17:51:17 28.1 C 20 %
1405 08-04-2020 18:01:17 26.6 C 20 %
1406 08-04-2020 18:11:17 25.2 C 20 %
1407 08-04-2020 18:21:17 24.7 C 20 %
1408 08-04-2020 18:31:18 24.3 C 20 %
1409 08-04-2020 18:41:18 24.1 C 20 %
1410 08-04-2020 18:51:17 23.8 C 20 %
1411 08-04-2020 19:01:17 23.2 C 20 %
1412 08-04-2020 19:11:17 22.6 C 20 %
1413 08-04-2020 19:21:17 21.4 C 20 %
1414 08-04-2020 19:31:17 20.1 C 20 %
1415 08-04-2020 19:41:17 19.7 C 20 %
1416 08-04-2020 19:51:17 19.2 C 20 %
1417 08-04-2020 20:01:17 18.5 C 20 %
1418 08-04-2020 20:11:17 18 C 20 %
1419 08-04-2020 20:21:18 17.5 C 20 %
1420 08-04-2020 20:31:17 17 C 20 %
1421 08-04-2020 20:41:18 16.2 C 20 %
1422 08-04-2020 20:51:17 15.6 C 20 %
1423 08-04-2020 21:01:18 14.6 C 20 %
1424 08-04-2020 21:11:18 13.9 C 20 %
1425 08-04-2020 21:21:17 14.2 C 20 %
Sensor: Nr:Datum:Temp:Feuchte:
Aussen-T/F 1426 08-04-2020 21:31:17 13.7 C 20 %
1427 08-04-2020 21:41:17 13.5 C 20 %
1428 08-04-2020 21:51:17 13.4 C 20 %
1429 08-04-2020 22:01:17 12.9 C 21 %
1430 08-04-2020 22:11:18 12.7 C 21 %
1431 08-04-2020 22:21:17 12.5 C 24 %
1432 08-04-2020 22:31:17 12.2 C 25 %
1433 08-04-2020 22:41:17 11.8 C 26 %
1434 08-04-2020 22:51:18 11.6 C 26 %
1435 08-04-2020 23:01:17 12 C 25 %
1436 08-04-2020 23:11:17 11.5 C 26 %
1437 08-04-2020 23:21:17 10.9 C 28 %
1438 08-04-2020 23:31:17 10.5 C 29 %
1439 08-04-2020 23:41:17 10.7 C 28 %
1440 08-04-2020 23:51:17 11.2 C 28 %
1441 09-04-2020 00:01:18 10.7 C 29 %
1442 09-04-2020 00:11:18 10.7 C 29 %
1443 09-04-2020 00:21:17 10.3 C 30 %
1444 09-04-2020 00:31:18 10 C 30 %
1445 09-04-2020 00:41:18 10.5 C 30 %
1446 09-04-2020 00:51:17 10.5 C 30 %
1447 09-04-2020 01:01:17 10 C 30 %
1448 09-04-2020 01:11:17 9.6 C 31 %
1449 09-04-2020 01:21:17 9.2 C 32 %
1450 09-04-2020 01:31:17 9.9 C 33 %
Sensor: Nr:Datum:Temp:Feuchte:
Aussen-T/F 1451 09-04-2020 01:41:17 9.3 C 33 %
1452 09-04-2020 01:51:17 9.6 C 33 %
1453 09-04-2020 02:01:17 8.8 C 35 %
1454 09-04-2020 02:11:17 9.1 C 34 %
1455 09-04-2020 02:21:18 9 C 34 %
1456 09-04-2020 02:31:18 8.8 C 35 %
1457 09-04-2020 02:41:18 8.7 C 35 %
1458 09-04-2020 02:51:17 8.8 C 35 %
1459 09-04-2020 03:01:17 9.2 C 34 %
1460 09-04-2020 03:11:17 9.7 C 33 %
1461 09-04-2020 03:21:17 9.5 C 33 %
1462 09-04-2020 03:31:17 9.4 C 34 %
1463 09-04-2020 03:41:17 9.5 C 34 %
1464 09-04-2020 03:51:17 10.2 C 32 %
1465 09-04-2020 04:01:17 9.9 C 34 %
1466 09-04-2020 04:11:17 10.1 C 33 %
1467 09-04-2020 04:21:17 10 C 33 %
1468 09-04-2020 04:31:18 9.4 C 34 %
1469 09-04-2020 04:41:18 9.3 C 35 %
1470 09-04-2020 04:51:17 8.9 C 35 %
1471 09-04-2020 05:01:17 8.7 C 36 %
1472 09-04-2020 05:11:17 8.6 C 35 %
1473 09-04-2020 05:21:17 8.5 C 36 %
1474 09-04-2020 05:31:18 8.2 C 36 %
1475 09-04-2020 05:41:18 8.1 C 36 %
Sensor: Nr:Datum:Temp:Feuchte:
Aussen-T/F 1476 09-04-2020 05:51:17 8.1 C 37 %
1477 09-04-2020 06:01:18 8.1 C 37 %
1478 09-04-2020 06:11:18 7.7 C 38 %
1479 09-04-2020 06:21:17 7.1 C 38 %
1480 09-04-2020 06:31:17 7 C 38 %
1481 09-04-2020 06:41:17 6.6 C 39 %
1482 09-04-2020 06:51:17 6.8 C 40 %
1483 09-04-2020 07:01:17 6.9 C 40 %
1484 09-04-2020 07:11:17 7.3 C 39 %
1485 09-04-2020 07:21:17 7.3 C 39 %
1486 09-04-2020 07:31:17 7 C 39 %
1487 09-04-2020 07:41:17 6.9 C 40 %
1488 09-04-2020 07:51:17 7 C 40 %
1489 09-04-2020 08:01:17 7 C 40 %
1490 09-04-2020 08:11:17 7.3 C 40 %
1491 09-04-2020 08:21:18 7.4 C 40 %
1492 09-04-2020 08:31:17 7.6 C 40 %
1493 09-04-2020 08:41:17 8 C 39 %
1494 09-04-2020 08:51:17 8.3 C 39 %
1495 09-04-2020 09:01:17 8.5 C 38 %
1496 09-04-2020 09:11:17 8.7 C 39 %
1497 09-04-2020 09:21:17 9 C 38 %
1498 09-04-2020 09:31:17 9.3 C 38 %
1499 09-04-2020 09:41:17 9.8 C 37 %
1500 09-04-2020 09:51:17 10.4 C 36 %
Sensor: Nr:Datum:Temp:Feuchte:
Aussen-T/F 1501 09-04-2020 10:01:17 10.8 C 36 %
1502 09-04-2020 10:11:17 11.2 C 35 %
1503 09-04-2020 10:21:17 11.8 C 35 %
1504 09-04-2020 10:31:17 12.6 C 34 %
1505 09-04-2020 10:41:17 13.3 C 32 %
1506 09-04-2020 10:51:18 14.6 C 31 %
1507 09-04-2020 11:01:17 15.4 C 30 %
1508 09-04-2020 11:11:18 16.2 C 28 %
1509 09-04-2020 11:21:17 17 C 25 %
1510 09-04-2020 11:31:17 17.9 C 23 %
1511 09-04-2020 11:41:17 18.5 C 21 %
1512 09-04-2020 11:51:18 19 C 20 %
1513 09-04-2020 12:01:17 19.3 C 20 %
1514 09-04-2020 12:11:17 19.8 C 20 %
1515 09-04-2020 12:21:17 20.7 C 20 %
1516 09-04-2020 12:31:17 22 C 20 %
1517 09-04-2020 12:41:17 23 C 20 %
1518 09-04-2020 12:51:18 22.3 C 20 %
1519 09-04-2020 13:01:17 23.2 C 20 %
1520 09-04-2020 13:11:17 23.3 C 20 %
1521 09-04-2020 13:21:17 22.9 C 20 %
1522 09-04-2020 13:31:17 22.4 C 20 %
1523 09-04-2020 13:41:18 22.6 C 20 %
1524 09-04-2020 13:51:17 22.8 C 20 %
1525 09-04-2020 14:01:17 24.1 C 20 %
Sensor: Nr:Datum:Temp:Feuchte:
Aussen-T/F 1526 09-04-2020 14:11:17 23.8 C 20 %
1527 09-04-2020 14:21:17 24.3 C 20 %
1528 09-04-2020 14:31:17 26.8 C 20 %
1529 09-04-2020 14:41:17 28 C 20 %
1530 09-04-2020 14:51:17 29.2 C 20 %
1531 09-04-2020 15:01:17 28.6 C 20 %
1532 09-04-2020 15:11:17 31.7 C 20 %
1533 09-04-2020 15:21:17 28.2 C 20 %
1534 09-04-2020 15:31:18 28.7 C 20 %
1535 09-04-2020 15:41:18 28.4 C 20 %
1536 09-04-2020 15:51:17 30.1 C 20 %
1537 09-04-2020 16:01:18 29.2 C 20 %
1538 09-04-2020 16:11:18 29.3 C 20 %
1539 09-04-2020 16:21:17 31.4 C 20 %
1540 09-04-2020 16:31:17 28.8 C 20 %
1541 09-04-2020 16:41:17 28.8 C 20 %
1542 09-04-2020 16:51:17 29.2 C 20 %
1543 09-04-2020 17:01:17 28.7 C 20 %
1544 09-04-2020 17:11:17 28.4 C 20 %
1545 09-04-2020 17:21:17 29.8 C 20 %
1546 09-04-2020 17:31:17 28 C 20 %
1547 09-04-2020 17:41:17 27.6 C 20 %
1548 09-04-2020 17:51:18 27.1 C 20 %
1549 09-04-2020 18:01:18 25.2 C 20 %
1550 09-04-2020 18:11:18 24 C 20 %
Sensor: Nr:Datum:Temp:Feuchte:
Aussen-T/F 1551 09-04-2020 18:21:17 23.7 C 20 %
1552 09-04-2020 18:31:17 23.4 C 20 %
1553 09-04-2020 18:41:17 23.5 C 20 %
1554 09-04-2020 18:51:17 22.9 C 20 %
1555 09-04-2020 19:01:18 22.7 C 20 %
1556 09-04-2020 19:11:18 22.4 C 20 %
1557 09-04-2020 19:21:17 21.8 C 20 %
1558 09-04-2020 19:31:17 21.1 C 20 %
1559 09-04-2020 19:41:17 20.6 C 20 %
1560 09-04-2020 19:51:17 20.1 C 20 %
1561 09-04-2020 20:01:17 19.7 C 20 %
1562 09-04-2020 20:11:17 17.9 C 20 %
1563 09-04-2020 20:21:17 16.6 C 20 %
1564 09-04-2020 20:31:17 16.6 C 20 %
1565 09-04-2020 20:41:17 16.1 C 21 %
1566 09-04-2020 20:51:17 16.4 C 20 %
1567 09-04-2020 21:01:17 16.2 C 20 %
1568 09-04-2020 21:11:17 16.4 C 20 %
1569 09-04-2020 21:21:17 16.5 C 20 %
1570 09-04-2020 21:31:17 15.9 C 21 %
1571 09-04-2020 21:41:17 15.4 C 22 %
1572 09-04-2020 21:51:17 15.5 C 22 %
1573 09-04-2020 22:01:17 15.5 C 22 %
1574 09-04-2020 22:11:17 15.2 C 22 %
1575 09-04-2020 22:21:17 15.1 C 22 %
Sensor: Nr:Datum:Temp:Feuchte:
Aussen-T/F 1576 09-04-2020 22:31:18 14.8 C 24 %
1577 09-04-2020 22:41:18 14.6 C 25 %
1578 09-04-2020 22:51:17 14.3 C 25 %
1579 09-04-2020 23:01:18 14.2 C 25 %
1580 09-04-2020 23:11:18 14.2 C 25 %
1581 09-04-2020 23:21:17 13.6 C 26 %
1582 09-04-2020 23:31:17 13.8 C 26 %
1583 09-04-2020 23:41:18 13.7 C 26 %
1584 09-04-2020 23:51:17 12.7 C 28 %
1585 10-04-2020 00:01:17 12.7 C 29 %
1586 10-04-2020 00:11:17 11.7 C 31 %
1587 10-04-2020 00:21:18 11.8 C 31 %
1588 10-04-2020 00:31:18 11.1 C 32 %
1589 10-04-2020 00:41:18 10.7 C 34 %
1590 10-04-2020 00:51:17 10.5 C 34 %
1591 10-04-2020 01:01:17 10.1 C 35 %
1592 10-04-2020 01:11:17 10 C 35 %
1593 10-04-2020 01:21:17 9.7 C 36 %
1594 10-04-2020 01:31:17 9.6 C 36 %
1595 10-04-2020 01:41:17 9.5 C 36 %
1596 10-04-2020 01:51:17 9 C 36 %
1597 10-04-2020 02:01:17 9.2 C 36 %
1598 10-04-2020 02:11:17 8.9 C 37 %
1599 10-04-2020 02:21:18 8.7 C 37 %
1600 10-04-2020 02:31:18 8.6 C 37 %
Sensor: Nr:Datum:Temp:Feuchte:
Aussen-T/F 1601 10-04-2020 02:41:18 8.3 C 38 %
1602 10-04-2020 02:51:17 8.2 C 38 %
1603 10-04-2020 03:01:18 8.3 C 38 %
1604 10-04-2020 03:11:18 7.9 C 39 %
1605 10-04-2020 03:21:17 7.6 C 39 %
1606 10-04-2020 03:31:17 7.4 C 40 %
1607 10-04-2020 03:41:17 7.2 C 40 %
1608 10-04-2020 03:51:17 7.1 C 40 %
1609 10-04-2020 04:01:18 7 C 40 %
1610 10-04-2020 04:11:18 6.8 C 41 %
1611 10-04-2020 04:21:17 6.9 C 41 %
1612 10-04-2020 04:31:17 6.6 C 41 %
1613 10-04-2020 04:41:17 6.6 C 41 %
1614 10-04-2020 04:51:18 6.6 C 41 %
1615 10-04-2020 05:01:17 6.3 C 41 %
1616 10-04-2020 05:11:17 6.3 C 42 %
1617 10-04-2020 05:21:18 6.4 C 42 %
1618 10-04-2020 05:31:17 6.2 C 42 %
1619 10-04-2020 05:41:17 5.9 C 43 %
1620 10-04-2020 05:51:17 5.7 C 43 %
1621 10-04-2020 06:01:17 5.8 C 44 %
1622 10-04-2020 06:11:17 5.8 C 44 %
1623 10-04-2020 06:21:17 5.6 C 44 %
1624 10-04-2020 06:31:18 5.4 C 44 %
1625 10-04-2020 06:41:18 5.4 C 44 %
Sensor: Nr:Datum:Temp:Feuchte:
Aussen-T/F 1626 10-04-2020 06:51:17 5.4 C 44 %
1627 10-04-2020 07:01:18 5.3 C 44 %
1628 10-04-2020 07:11:18 5.3 C 45 %
1629 10-04-2020 07:21:17 5.3 C 45 %
1630 10-04-2020 07:31:18 5.3 C 45 %
1631 10-04-2020 07:41:18 5.3 C 45 %
1632 10-04-2020 07:51:17 5.9 C 46 %
1633 10-04-2020 08:01:17 5.8 C 45 %
1634 10-04-2020 08:11:17 5.8 C 45 %
1635 10-04-2020 08:21:17 6 C 44 %
1636 10-04-2020 08:31:17 6.1 C 45 %
1637 10-04-2020 08:41:17 6.2 C 44 %
1638 10-04-2020 08:51:17 6.5 C 45 %
1639 10-04-2020 09:01:17 6.9 C 45 %
1640 10-04-2020 09:11:17 7.8 C 42 %
1641 10-04-2020 09:21:18 8.2 C 41 %
1642 10-04-2020 09:31:18 8.5 C 40 %
1643 10-04-2020 09:41:18 9.1 C 39 %
1644 10-04-2020 09:51:17 9.4 C 39 %
1645 10-04-2020 10:01:17 9.9 C 38 %
1646 10-04-2020 10:11:17 10.2 C 37 %
1647 10-04-2020 10:21:17 10.8 C 37 %
1648 10-04-2020 10:31:17 11.6 C 36 %
1649 10-04-2020 10:41:17 12.3 C 35 %
1650 10-04-2020 10:51:17 13.4 C 33 %
Sensor: Nr:Datum:Temp:Feuchte:
Aussen-T/F 1651 10-04-2020 11:01:17 14 C 31 %
1652 10-04-2020 11:11:17 14.7 C 31 %
1653 10-04-2020 11:21:17 15.9 C 28 %
1654 10-04-2020 11:31:17 16.3 C 27 %
1655 10-04-2020 11:41:17 16.8 C 26 %
1656 10-04-2020 11:51:17 17.5 C 25 %
1657 10-04-2020 12:01:17 17.9 C 24 %
1658 10-04-2020 12:11:17 18.4 C 21 %
1659 10-04-2020 12:21:17 19.2 C 20 %
1660 10-04-2020 12:31:17 19.7 C 20 %
1661 10-04-2020 12:41:17 20.6 C 20 %
1662 10-04-2020 12:51:17 20.4 C 20 %
1663 10-04-2020 13:01:17 20.8 C 20 %
1664 10-04-2020 13:11:17 20.2 C 20 %
1665 10-04-2020 13:21:17 20.4 C 20 %
1666 10-04-2020 13:31:17 20.2 C 20 %
1667 10-04-2020 13:41:17 20.4 C 20 %
1668 10-04-2020 13:51:17 20.7 C 20 %
1669 10-04-2020 14:01:17 21.7 C 20 %
1670 10-04-2020 14:11:17 21.6 C 20 %
1671 10-04-2020 14:21:18 22 C 20 %
1672 10-04-2020 14:31:18 25.1 C 20 %
1673 10-04-2020 14:41:18 29.1 C 20 %
1674 10-04-2020 14:51:17 27.6 C 20 %
1675 10-04-2020 15:01:17 27.9 C 20 %
Sensor: Nr:Datum:Temp:Feuchte:
Aussen-T/F 1676 10-04-2020 15:11:17 31.6 C 20 %
1677 10-04-2020 15:21:17 30.1 C 20 %
1678 10-04-2020 15:31:17 30.5 C 20 %
1679 10-04-2020 15:41:17 30.2 C 20 %
1680 10-04-2020 15:51:17 29.1 C 20 %
1681 10-04-2020 16:01:17 29.8 C 20 %
1682 10-04-2020 16:11:17 30.3 C 20 %
1683 10-04-2020 16:21:17 28.8 C 20 %
1684 10-04-2020 16:31:17 29.1 C 20 %
1685 10-04-2020 16:41:17 28.3 C 20 %
1686 10-04-2020 16:51:17 30.8 C 20 %
1687 10-04-2020 17:01:17 29.6 C 20 %
1688 10-04-2020 17:11:17 28.8 C 20 %
1689 10-04-2020 17:21:17 26.8 C 20 %
1690 10-04-2020 17:31:17 28.5 C 20 %
1691 10-04-2020 17:41:17 27.6 C 20 %
1692 10-04-2020 17:51:18 26.4 C 20 %
1693 10-04-2020 18:01:17 23.6 C 20 %
1694 10-04-2020 18:11:17 23 C 20 %
1695 10-04-2020 18:21:18 22.5 C 20 %
1696 10-04-2020 18:31:18 22.2 C 20 %
1697 10-04-2020 18:41:18 22.3 C 20 %
1698 10-04-2020 18:51:17 22 C 20 %
1699 10-04-2020 19:01:17 21.6 C 20 %
1700 10-04-2020 19:11:17 21.4 C 20 %
Sensor: Nr:Datum:Temp:Feuchte:
Aussen-T/F 1701 10-04-2020 19:21:17 21.1 C 20 %
1702 10-04-2020 19:31:17 20.9 C 20 %
1703 10-04-2020 19:41:17 20.7 C 20 %
1704 10-04-2020 19:51:18 20.2 C 20 %
1705 10-04-2020 20:01:17 19.6 C 20 %
1706 10-04-2020 20:11:17 18.5 C 20 %
1707 10-04-2020 20:21:18 16 C 20 %
1708 10-04-2020 20:31:17 15.9 C 20 %
1709 10-04-2020 20:41:17 15.3 C 20 %
1710 10-04-2020 20:51:17 15 C 20 %
1711 10-04-2020 21:01:17 15.3 C 20 %
1712 10-04-2020 21:11:17 14.7 C 20 %
1713 10-04-2020 21:21:17 14.3 C 21 %
1714 10-04-2020 21:31:17 13.8 C 21 %
1715 10-04-2020 21:41:17 14.2 C 21 %
1716 10-04-2020 21:51:17 14.3 C 21 %
1717 10-04-2020 22:01:18 14.5 C 21 %
1718 10-04-2020 22:11:18 14.9 C 20 %
1719 10-04-2020 22:21:18 14.5 C 22 %
1720 10-04-2020 22:31:17 14.5 C 22 %
1721 10-04-2020 22:41:17 13.9 C 24 %
1722 10-04-2020 22:51:17 13.1 C 25 %
1723 10-04-2020 23:01:17 12.7 C 25 %
1724 10-04-2020 23:11:17 12.8 C 25 %
1725 10-04-2020 23:21:17 12 C 26 %
Sensor: Nr:Datum:Temp:Feuchte:
Aussen-T/F 1726 10-04-2020 23:31:17 12.2 C 26 %
1727 10-04-2020 23:41:17 11.2 C 28 %
1728 10-04-2020 23:51:17 11.1 C 29 %
1729 11-04-2020 00:01:18 10.5 C 30 %
1730 11-04-2020 00:11:18 10.8 C 30 %
1731 11-04-2020 00:21:17 10.8 C 30 %
1732 11-04-2020 00:31:17 10.1 C 31 %
1733 11-04-2020 00:41:18 9.9 C 32 %
1734 11-04-2020 00:51:18 10 C 31 %
1735 11-04-2020 01:01:17 9.6 C 31 %
1736 11-04-2020 01:11:17 9.6 C 32 %
1737 11-04-2020 01:21:17 9.1 C 32 %
1738 11-04-2020 01:31:18 9.2 C 32 %
1739 11-04-2020 01:41:18 9 C 32 %
1740 11-04-2020 01:51:18 8.7 C 32 %
1741 11-04-2020 02:01:17 8.4 C 32 %
1742 11-04-2020 02:11:17 8.2 C 32 %
1743 11-04-2020 02:21:18 8.1 C 32 %
1744 11-04-2020 02:31:17 8.3 C 32 %
1745 11-04-2020 02:41:17 8.1 C 32 %
1746 11-04-2020 02:51:17 7.9 C 33 %
1747 11-04-2020 03:01:17 8.5 C 31 %
1748 11-04-2020 03:11:17 8.7 C 31 %
1749 11-04-2020 03:21:17 8.8 C 30 %
1750 11-04-2020 03:31:18 8.8 C 30 %
Sensor: Nr:Datum:Temp:Feuchte:
Aussen-T/F 1751 11-04-2020 03:41:18 8.2 C 30 %
1752 11-04-2020 03:51:17 8.6 C 30 %
1753 11-04-2020 04:01:17 8.3 C 30 %
1754 11-04-2020 04:11:17 8.3 C 30 %
1755 11-04-2020 04:21:17 7.7 C 30 %
1756 11-04-2020 04:31:17 7.4 C 30 %
1757 11-04-2020 04:41:17 7.5 C 30 %
1758 11-04-2020 04:51:17 7.6 C 29 %
1759 11-04-2020 05:01:17 7.4 C 29 %
1760 11-04-2020 05:11:17 6.9 C 30 %
1761 11-04-2020 05:21:17 6.8 C 30 %
1762 11-04-2020 05:31:18 6.1 C 31 %
1763 11-04-2020 05:41:18 5.8 C 32 %
1764 11-04-2020 05:51:17 5.7 C 32 %
1765 11-04-2020 06:01:17 5.6 C 32 %
1766 11-04-2020 06:11:17 5 C 33 %
1767 11-04-2020 06:21:17 4.9 C 35 %
1768 11-04-2020 06:31:18 5 C 33 %
1769 11-04-2020 06:41:18 4.6 C 35 %
1770 11-04-2020 06:51:17 4.6 C 35 %
1771 11-04-2020 07:01:18 4.4 C 35 %
1772 11-04-2020 07:11:18 4.5 C 35 %
1773 11-04-2020 07:21:17 4.4 C 35 %
1774 11-04-2020 07:31:18 4.4 C 36 %
1775 11-04-2020 07:41:18 4.7 C 35 %
Sensor: Nr:Datum:Temp:Feuchte:
Aussen-T/F 1776 11-04-2020 07:51:17 5 C 34 %
1777 11-04-2020 08:01:18 5 C 34 %
1778 11-04-2020 08:11:18 5 C 35 %
1779 11-04-2020 08:21:18 5.1 C 35 %
1780 11-04-2020 08:31:18 5.5 C 34 %
1781 11-04-2020 08:41:18 6 C 33 %
1782 11-04-2020 08:51:18 6.4 C 32 %
1783 11-04-2020 09:01:17 6.5 C 33 %
1784 11-04-2020 09:11:18 7.1 C 31 %
1785 11-04-2020 09:21:17 7.3 C 31 %
1786 11-04-2020 09:31:18 7.8 C 31 %
1787 11-04-2020 09:41:18 8.2 C 30 %
1788 11-04-2020 09:51:17 8.6 C 30 %
1789 11-04-2020 10:01:17 9.1 C 29 %
1790 11-04-2020 10:11:17 9.5 C 29 %
1791 11-04-2020 10:21:17 10.2 C 26 %
1792 11-04-2020 10:31:17 10.7 C 27 %
1793 11-04-2020 10:41:17 11.5 C 25 %
1794 11-04-2020 10:51:17 12.3 C 21 %
1795 11-04-2020 11:01:18 12.9 C 20 %
1796 11-04-2020 11:11:18 13.7 C 20 %
1797 11-04-2020 11:21:17 14.5 C 20 %
1798 11-04-2020 11:31:17 15.3 C 20 %
1799 11-04-2020 11:41:18 16 C 20 %
1800 11-04-2020 11:51:17 16.5 C 20 %
Sensor: Nr:Datum:Temp:Feuchte:
Aussen-T/F 1801 11-04-2020 12:01:17 17.2 C 20 %
1802 11-04-2020 12:11:17 17.5 C 20 %
1803 11-04-2020 12:21:18 18.1 C 20 %
1804 11-04-2020 12:31:17 19.1 C 20 %
1805 11-04-2020 12:41:17 19.4 C 20 %
1806 11-04-2020 12:51:17 19.5 C 20 %
1807 11-04-2020 13:01:17 19.6 C 20 %
1808 11-04-2020 13:11:17 19.5 C 20 %
1809 11-04-2020 13:21:17 19.5 C 20 %
1810 11-04-2020 13:31:17 19.6 C 20 %
1811 11-04-2020 13:41:17 19.9 C 20 %
1812 11-04-2020 13:51:17 20.2 C 20 %
1813 11-04-2020 14:01:18 20.9 C 20 %
1814 11-04-2020 14:11:18 21.3 C 20 %
1815 11-04-2020 14:21:17 21.5 C 20 %
1816 11-04-2020 14:31:17 24.4 C 20 %
1817 11-04-2020 14:41:17 27.5 C 20 %
1818 11-04-2020 14:51:18 27.4 C 20 %
1819 11-04-2020 15:01:18 28.6 C 20 %
1820 11-04-2020 15:11:18 30.4 C 20 %
1821 11-04-2020 15:21:17 29.9 C 20 %
1822 11-04-2020 15:31:17 30.4 C 20 %
1823 11-04-2020 15:41:17 31.2 C 20 %
1824 11-04-2020 15:51:18 31.8 C 20 %
1825 11-04-2020 16:01:17 28.5 C 20 %
Sensor: Nr:Datum:Temp:Feuchte:
Aussen-T/F 1826 11-04-2020 16:11:17 31.4 C 20 %
1827 11-04-2020 16:21:18 30.7 C 20 %
1828 11-04-2020 16:31:17 31.5 C 20 %
1829 11-04-2020 16:41:17 31.3 C 20 %
1830 11-04-2020 16:51:17 32.1 C 20 %
1831 11-04-2020 17:01:17 31.8 C 20 %
1832 11-04-2020 17:11:17 29.5 C 20 %
1833 11-04-2020 17:21:17 29.8 C 20 %
1834 11-04-2020 17:31:17 28.7 C 20 %
1835 11-04-2020 17:41:17 26.5 C 20 %
1836 11-04-2020 17:51:17 27.5 C 20 %
1837 11-04-2020 18:01:17 24.2 C 20 %
1838 11-04-2020 18:11:17 23.4 C 20 %
1839 11-04-2020 18:21:17 23.6 C 20 %
1840 11-04-2020 18:31:17 23.6 C 20 %
1841 11-04-2020 18:41:17 23.3 C 20 %
1842 11-04-2020 18:51:17 22.9 C 20 %
1843 11-04-2020 19:01:17 22.9 C 20 %
1844 11-04-2020 19:11:17 22.7 C 20 %
1845 11-04-2020 19:21:18 22 C 20 %
1846 11-04-2020 19:31:17 21.7 C 20 %
1847 11-04-2020 19:41:17 21.2 C 20 %
1848 11-04-2020 19:51:17 18.9 C 20 %
1849 11-04-2020 20:01:17 18 C 20 %
1850 11-04-2020 20:11:17 17.1 C 20 %
Sensor: Nr:Datum:Temp:Feuchte:
Aussen-T/F 1851 11-04-2020 20:21:17 16.6 C 20 %
1852 11-04-2020 20:31:17 16.5 C 20 %
1853 11-04-2020 20:41:17 16.5 C 20 %
1854 11-04-2020 20:51:17 16.2 C 20 %
1855 11-04-2020 21:01:18 16 C 20 %
1856 11-04-2020 21:11:18 15.5 C 20 %
1857 11-04-2020 21:21:18 15.4 C 20 %
1858 11-04-2020 21:31:17 15.1 C 20 %
1859 11-04-2020 21:41:17 14.8 C 20 %
1860 11-04-2020 21:51:17 14.5 C 20 %
1861 11-04-2020 22:01:17 14.3 C 20 %
1862 11-04-2020 22:11:17 14.4 C 20 %
1863 11-04-2020 22:21:17 14 C 20 %
1864 11-04-2020 22:31:18 14 C 21 %
1865 11-04-2020 22:41:18 14.4 C 21 %
1866 11-04-2020 22:51:17 14.4 C 22 %
1867 11-04-2020 23:01:17 13.7 C 23 %
1868 11-04-2020 23:11:17 13 C 24 %
1869 11-04-2020 23:21:18 12.3 C 26 %
1870 11-04-2020 23:31:18 12.1 C 26 %
1871 11-04-2020 23:41:18 11.8 C 27 %
1872 11-04-2020 23:51:17 11.7 C 28 %
1873 12-04-2020 00:01:17 11.6 C 29 %
1874 12-04-2020 00:11:17 11.3 C 28 %
1875 12-04-2020 00:21:17 11.3 C 29 %
Sensor: Nr:Datum:Temp:Feuchte:
Aussen-T/F 1876 12-04-2020 00:31:17 11.5 C 29 %
1877 12-04-2020 00:41:17 11.6 C 29 %
1878 12-04-2020 00:51:17 11.4 C 28 %
1879 12-04-2020 01:01:17 11.3 C 28 %
1880 12-04-2020 01:11:17 11 C 28 %
1881 12-04-2020 01:21:17 10.6 C 29 %
1882 12-04-2020 01:31:18 10.3 C 29 %
1883 12-04-2020 01:41:18 10.2 C 30 %
1884 12-04-2020 01:51:17 10.6 C 29 %
1885 12-04-2020 02:01:18 10.8 C 30 %
1886 12-04-2020 02:11:18 10.7 C 31 %
1887 12-04-2020 02:21:18 10.3 C 31 %
1888 12-04-2020 02:31:17 10.4 C 30 %
1889 12-04-2020 02:41:17 10.2 C 31 %
1890 12-04-2020 02:51:17 10.1 C 31 %
1891 12-04-2020 03:01:17 10.3 C 31 %
1892 12-04-2020 03:11:17 10.2 C 31 %
1893 12-04-2020 03:21:17 10.1 C 32 %
1894 12-04-2020 03:31:17 10 C 32 %
1895 12-04-2020 03:41:18 9.9 C 33 %
1896 12-04-2020 03:51:17 10 C 32 %
1897 12-04-2020 04:01:17 9.8 C 33 %
1898 12-04-2020 04:11:17 9.7 C 33 %
1899 12-04-2020 04:21:17 8.9 C 35 %
1900 12-04-2020 04:31:17 8.8 C 34 %
Sensor: Nr:Datum:Temp:Feuchte:
Aussen-T/F 1901 12-04-2020 04:41:17 8.9 C 35 %
1902 12-04-2020 04:51:17 8.5 C 35 %
1903 12-04-2020 05:01:18 8.2 C 36 %
1904 12-04-2020 05:11:18 8.4 C 36 %
1905 12-04-2020 05:21:17 8.5 C 36 %
1906 12-04-2020 05:31:17 8.2 C 36 %
1907 12-04-2020 05:41:17 8 C 36 %
1908 12-04-2020 05:51:17 7.6 C 37 %
1909 12-04-2020 06:01:17 7.7 C 37 %
1910 12-04-2020 06:11:17 7.5 C 38 %
1911 12-04-2020 06:21:17 7.2 C 38 %
1912 12-04-2020 06:31:17 7.1 C 39 %
1913 12-04-2020 06:41:17 7.2 C 39 %
1914 12-04-2020 06:51:17 7.3 C 39 %
1915 12-04-2020 07:01:17 6.9 C 39 %
1916 12-04-2020 07:11:17 6.7 C 40 %
1917 12-04-2020 07:21:17 6.5 C 40 %
1918 12-04-2020 07:31:17 6.7 C 40 %
1919 12-04-2020 07:41:17 7.1 C 40 %
1920 12-04-2020 07:51:18 7 C 40 %
1921 12-04-2020 08:01:17 7.3 C 40 %
1922 12-04-2020 08:11:17 7.5 C 40 %
1923 12-04-2020 08:21:17 7.5 C 40 %
1924 12-04-2020 08:31:17 7.6 C 40 %
1925 12-04-2020 08:41:18 7.9 C 40 %
Sensor: Nr:Datum:Temp:Feuchte:
Aussen-T/F 1926 12-04-2020 08:51:17 8.2 C 40 %
1927 12-04-2020 09:01:18 8.8 C 39 %
1928 12-04-2020 09:11:18 9.2 C 38 %
1929 12-04-2020 09:21:17 9.5 C 38 %
1930 12-04-2020 09:31:17 10 C 37 %
1931 12-04-2020 09:41:17 10.1 C 37 %
1932 12-04-2020 09:51:17 11 C 36 %
1933 12-04-2020 10:01:17 11.3 C 36 %
1934 12-04-2020 10:11:17 11.7 C 35 %
1935 12-04-2020 10:21:17 12.2 C 35 %
1936 12-04-2020 10:31:18 13.2 C 33 %
1937 12-04-2020 10:41:18 14.4 C 31 %
1938 12-04-2020 10:51:17 14.9 C 31 %
1939 12-04-2020 11:01:17 15.6 C 30 %
1940 12-04-2020 11:11:17 17 C 27 %
1941 12-04-2020 11:21:17 17.6 C 27 %
1942 12-04-2020 11:31:17 18 C 26 %
1943 12-04-2020 11:41:17 18.5 C 24 %
1944 12-04-2020 11:51:17 19.1 C 20 %
1945 12-04-2020 12:01:17 20.6 C 20 %
1946 12-04-2020 12:11:17 20.8 C 20 %
1947 12-04-2020 12:21:17 21.7 C 20 %
1948 12-04-2020 12:31:17 21.6 C 20 %
1949 12-04-2020 12:41:17 21.8 C 20 %
1950 12-04-2020 12:51:18 21.2 C 20 %
Sensor: Nr:Datum:Temp:Feuchte:
Aussen-T/F 1951 12-04-2020 13:01:17 21.7 C 20 %
1952 12-04-2020 13:11:17 21.7 C 20 %
1953 12-04-2020 13:21:17 22 C 20 %
1954 12-04-2020 13:31:17 21.7 C 20 %
1955 12-04-2020 13:41:17 22 C 20 %
1956 12-04-2020 13:51:17 22.1 C 20 %
1957 12-04-2020 14:01:17 22.4 C 20 %
1958 12-04-2020 14:11:17 22.8 C 20 %
1959 12-04-2020 14:21:17 22.9 C 20 %
1960 12-04-2020 14:31:17 26.2 C 20 %
1961 12-04-2020 14:41:17 28.6 C 20 %
1962 12-04-2020 14:51:17 28.5 C 20 %
1963 12-04-2020 15:01:17 30.3 C 20 %
1964 12-04-2020 15:11:17 27.7 C 20 %
1965 12-04-2020 15:21:17 27.9 C 20 %
1966 12-04-2020 15:31:18 30.7 C 20 %
1967 12-04-2020 15:41:18 30.5 C 20 %
1968 12-04-2020 15:51:18 28.3 C 20 %
1969 12-04-2020 16:01:17 30.5 C 20 %
1970 12-04-2020 16:11:17 33.2 C 20 %
1971 12-04-2020 16:21:17 32.8 C 20 %
1972 12-04-2020 16:31:17 27.8 C 20 %
1973 12-04-2020 16:41:17 26 C 20 %
1974 12-04-2020 16:51:17 24.7 C 20 %
1975 12-04-2020 17:01:17 29.6 C 20 %
Sensor: Nr:Datum:Temp:Feuchte:
Aussen-T/F 1976 12-04-2020 17:11:18 29.6 C 20 %
1977 12-04-2020 17:21:17 29.5 C 20 %
1978 12-04-2020 17:31:17 26.5 C 20 %
1979 12-04-2020 17:41:17 29.3 C 20 %
1980 12-04-2020 17:51:17 29.8 C 20 %
1981 12-04-2020 18:01:18 24.6 C 20 %
1982 12-04-2020 18:11:18 24 C 20 %
1983 12-04-2020 18:21:17 24 C 20 %
1984 12-04-2020 18:31:17 23.6 C 20 %
1985 12-04-2020 18:41:17 22.9 C 20 %
1986 12-04-2020 18:51:17 22.4 C 20 %
1987 12-04-2020 19:01:17 22.5 C 20 %
1988 12-04-2020 19:11:17 22.4 C 20 %
1989 12-04-2020 19:21:17 22 C 20 %
1990 12-04-2020 19:31:17 21.6 C 20 %
1991 12-04-2020 19:41:17 20.3 C 20 %
1992 12-04-2020 19:51:18 19.1 C 20 %
1993 12-04-2020 20:01:18 18.2 C 20 %
1994 12-04-2020 20:11:18 17.9 C 20 %
1995 12-04-2020 20:21:17 17.5 C 20 %
1996 12-04-2020 20:31:18 17 C 20 %
1997 12-04-2020 20:41:18 16.8 C 20 %
1998 12-04-2020 20:51:17 16 C 20 %
1999 12-04-2020 21:01:17 15.5 C 20 %
2000 12-04-2020 21:11:17 14 C 20 %
Sensor: Nr:Datum:Temp:Feuchte:
Aussen-T/F 2001 12-04-2020 21:22:17 13.5 C 20 %
2002 12-04-2020 21:31:17 13.2 C 21 %
2003 12-04-2020 21:41:17 13.2 C 20 %
2004 12-04-2020 21:51:17 13.3 C 21 %
2005 12-04-2020 22:01:17 13.4 C 20 %
2006 12-04-2020 22:11:17 13 C 21 %
2007 12-04-2020 22:22:17 12.9 C 22 %
2008 12-04-2020 22:32:17 12.2 C 23 %
2009 12-04-2020 22:42:17 11.8 C 26 %
2010 12-04-2020 22:51:17 11.7 C 25 %
2011 12-04-2020 23:01:18 11.5 C 25 %
2012 12-04-2020 23:11:18 11.1 C 26 %
2013 12-04-2020 23:21:17 10.9 C 27 %
2014 12-04-2020 23:32:17 10.7 C 28 %
2015 12-04-2020 23:41:17 10.3 C 28 %
2016 12-04-2020 23:52:17 10.5 C 28 %
2017 13-04-2020 00:01:17 10.6 C 28 %
2018 13-04-2020 00:11:17 10.4 C 29 %
2019 13-04-2020 00:21:18 10.4 C 30 %
2020 13-04-2020 00:31:17 10.1 C 30 %
2021 13-04-2020 00:41:17 9.9 C 31 %
2022 13-04-2020 00:51:17 9.7 C 31 %
2023 13-04-2020 01:01:18 9.5 C 31 %
2024 13-04-2020 01:11:18 9.4 C 32 %
2025 13-04-2020 01:21:18 9 C 32 %
Sensor: Nr:Datum:Temp:Feuchte:
Aussen-T/F 2026 13-04-2020 01:31:18 9.3 C 32 %
2027 13-04-2020 01:41:18 9.2 C 32 %
2028 13-04-2020 01:51:18 9.3 C 32 %
2029 13-04-2020 02:02:17 9.2 C 32 %
2030 13-04-2020 02:12:17 9.2 C 32 %
2031 13-04-2020 02:21:17 9.1 C 32 %
2032 13-04-2020 02:31:18 9 C 33 %
2033 13-04-2020 02:41:18 8.6 C 34 %
2034 13-04-2020 02:51:17 8.6 C 34 %
2035 13-04-2020 03:01:18 8.4 C 34 %
2036 13-04-2020 03:11:18 8.2 C 35 %
2037 13-04-2020 03:22:17 7.9 C 35 %
2038 13-04-2020 03:32:17 8.1 C 35 %
2039 13-04-2020 03:42:17 8 C 35 %
2040 13-04-2020 03:51:17 7.8 C 35 %
2041 13-04-2020 04:02:17 7.5 C 36 %
2042 13-04-2020 04:12:17 7.2 C 36 %
2043 13-04-2020 04:21:18 6.8 C 38 %
2044 13-04-2020 04:32:17 6.8 C 38 %
2045 13-04-2020 04:41:17 6.7 C 39 %
2046 13-04-2020 04:52:17 7.7 C 37 %
2047 13-04-2020 05:02:17 7.3 C 37 %
2048 13-04-2020 05:12:17 7.5 C 38 %
2049 13-04-2020 05:22:17 7.8 C 38 %
2050 13-04-2020 05:32:17 7.6 C 37 %
Sensor: Nr:Datum:Temp:Feuchte:
Aussen-T/F 2051 13-04-2020 05:42:17 7.4 C 37 %
2052 13-04-2020 05:52:17 7.2 C 38 %
2053 13-04-2020 06:02:17 7.2 C 38 %
2054 13-04-2020 06:12:17 6.6 C 39 %
2055 13-04-2020 06:22:17 6.2 C 39 %
2056 13-04-2020 06:32:17 6.3 C 40 %
2057 13-04-2020 06:42:17 6.3 C 40 %
2058 13-04-2020 06:52:17 6.4 C 40 %
2059 13-04-2020 07:02:17 6.5 C 40 %
2060 13-04-2020 07:12:17 7.2 C 39 %
2061 13-04-2020 07:22:17 7.6 C 38 %
2062 13-04-2020 07:32:17 8.1 C 37 %
2063 13-04-2020 07:42:17 8.3 C 37 %
2064 13-04-2020 07:52:17 8.5 C 37 %
2065 13-04-2020 08:02:17 8.6 C 36 %
2066 13-04-2020 08:12:18 8.9 C 36 %
2067 13-04-2020 08:22:17 9 C 36 %
2068 13-04-2020 08:32:17 9.4 C 36 %
2069 13-04-2020 08:42:17 10.7 C 37 %
2070 13-04-2020 08:52:17 11.1 C 36 %
2071 13-04-2020 09:02:17 10.7 C 37 %
2072 13-04-2020 09:12:17 10.7 C 37 %
2073 13-04-2020 09:22:17 11 C 36 %
2074 13-04-2020 09:32:17 11.5 C 36 %
2075 13-04-2020 09:42:17 11.9 C 35 %
Sensor: Nr:Datum:Temp:Feuchte:
Aussen-T/F 2076 13-04-2020 09:52:17 11.4 C 35 %
2077 13-04-2020 10:02:17 11.2 C 35 %
2078 13-04-2020 10:12:17 11.1 C 35 %
2079 13-04-2020 10:22:17 11 C 34 %
2080 13-04-2020 10:32:17 11.1 C 34 %
2081 13-04-2020 10:42:17 11.3 C 34 %
2082 13-04-2020 10:52:17 11.6 C 33 %
2083 13-04-2020 11:02:17 11.6 C 33 %
2084 13-04-2020 11:12:17 11.4 C 32 %
2085 13-04-2020 11:22:17 11.8 C 32 %
2086 13-04-2020 11:32:17 11.5 C 31 %
2087 13-04-2020 11:42:17 11.1 C 31 %
2088 13-04-2020 11:52:16 10.8 C 32 %
2089 13-04-2020 12:02:17 10.9 C 32 %
2090 13-04-2020 12:12:17 10.5 C 33 %
2091 13-04-2020 12:22:17 10.4 C 33 %
2092 13-04-2020 12:32:17 10.7 C 32 %
2093 13-04-2020 12:42:17 11.1 C 32 %
2094 13-04-2020 12:52:17 10.6 C 32 %
2095 13-04-2020 13:02:16 10.3 C 32 %
2096 13-04-2020 13:12:16 10.2 C 32 %
2097 13-04-2020 13:22:17 10.2 C 32 %
2098 13-04-2020 13:32:17 9.6 C 33 %
2099 13-04-2020 13:42:17 8.6 C 35 %
2100 13-04-2020 13:52:17 7.6 C 39 %
Sensor: Nr:Datum:Temp:Feuchte:
Aussen-T/F 2101 13-04-2020 14:02:17 7.5 C 40 %
2102 13-04-2020 14:12:17 7.7 C 38 %
2103 13-04-2020 14:22:16 8.7 C 36 %
2104 13-04-2020 14:32:17 9.2 C 35 %
2105 13-04-2020 14:42:17 9.6 C 34 %
2106 13-04-2020 14:52:16 10.9 C 31 %
2107 13-04-2020 15:02:17 12.4 C 26 %
2108 13-04-2020 15:12:17 12.3 C 25 %
2109 13-04-2020 15:22:17 12.7 C 20 %
2110 13-04-2020 15:32:17 11.8 C 20 %
2111 13-04-2020 15:42:17 12.4 C 20 %
2112 13-04-2020 15:52:16 13.2 C 20 %
2113 13-04-2020 16:02:16 12.2 C 20 %
2114 13-04-2020 16:12:16 14.4 C 20 %
2115 13-04-2020 16:22:16 15 C 20 %
2116 13-04-2020 16:32:17 16 C 20 %
2117 13-04-2020 16:42:17 14.9 C 20 %
2118 13-04-2020 16:52:16 16.5 C 20 %
2119 13-04-2020 17:02:17 15.2 C 20 %
2120 13-04-2020 17:12:17 15.6 C 20 %
2121 13-04-2020 17:22:16 15 C 20 %
2122 13-04-2020 17:32:16 15 C 20 %
2123 13-04-2020 17:42:16 14.5 C 20 %
2124 13-04-2020 17:52:16 15.4 C 20 %
2125 13-04-2020 18:02:16 13.2 C 20 %
Sensor: Nr:Datum:Temp:Feuchte:
Aussen-T/F 2126 13-04-2020 18:12:16 12.5 C 20 %
2127 13-04-2020 18:22:17 12.1 C 20 %
2128 13-04-2020 18:32:17 11.9 C 20 %
2129 13-04-2020 18:42:18 11.1 C 20 %
2130 13-04-2020 18:52:16 11.1 C 20 %
2131 13-04-2020 19:02:16 10.8 C 20 %
2132 13-04-2020 19:12:16 10.5 C 20 %
2133 13-04-2020 19:22:16 10.2 C 20 %
2134 13-04-2020 19:32:17 10 C 20 %
2135 13-04-2020 19:42:17 9.8 C 20 %
2136 13-04-2020 19:52:16 9.6 C 20 %
2137 13-04-2020 20:02:16 9 C 20 %
2138 13-04-2020 20:12:16 8.6 C 20 %
2139 13-04-2020 20:22:16 8.5 C 20 %
2140 13-04-2020 20:32:16 8.4 C 20 %
2141 13-04-2020 20:42:16 8.2 C 20 %
2142 13-04-2020 20:52:16 7.5 C 20 %
2143 13-04-2020 21:02:16 7.5 C 20 %
2144 13-04-2020 21:12:16 7.4 C 20 %
2145 13-04-2020 21:22:16 7.3 C 20 %
2146 13-04-2020 21:32:17 7.2 C 20 %
2147 13-04-2020 21:42:17 6.7 C 20 %
2148 13-04-2020 21:52:16 6.5 C 20 %
2149 13-04-2020 22:02:16 6.1 C 20 %
2150 13-04-2020 22:12:16 5.5 C 20 %
Sensor: Nr:Datum:Temp:Feuchte:
Aussen-T/F 2151 13-04-2020 22:22:16 5.1 C 20 %
2152 13-04-2020 22:32:16 4.6 C 23 %
2153 13-04-2020 22:42:16 4.4 C 25 %
2154 13-04-2020 22:52:16 4.1 C 25 %
2155 13-04-2020 23:02:16 3.9 C 26 %
2156 13-04-2020 23:12:16 3.8 C 27 %
2157 13-04-2020 23:22:16 3.5 C 30 %
2158 13-04-2020 23:32:17 3.3 C 29 %
2159 13-04-2020 23:42:17 4 C 26 %
2160 13-04-2020 23:52:16 4 C 25 %
2161 14-04-2020 00:02:16 3.3 C 28 %
2162 14-04-2020 00:12:16 4.1 C 25 %
2163 14-04-2020 00:22:16 3.2 C 27 %
2164 14-04-2020 00:32:16 3.3 C 27 %
2165 14-04-2020 00:42:16 2.8 C 29 %
2166 14-04-2020 00:52:16 2.9 C 29 %
2167 14-04-2020 01:02:16 3.1 C 27 %
2168 14-04-2020 01:12:16 3.4 C 27 %
2169 14-04-2020 01:22:16 2.8 C 28 %
2170 14-04-2020 01:32:16 2.1 C 30 %
2171 14-04-2020 01:42:16 1.9 C 33 %
2172 14-04-2020 01:52:16 1.2 C 35 %
2173 14-04-2020 02:02:16 1.6 C 35 %
2174 14-04-2020 02:12:16 1.3 C 35 %
2175 14-04-2020 02:22:16 0.9 C 36 %
Sensor: Nr:Datum:Temp:Feuchte:
Aussen-T/F 2176 14-04-2020 02:32:16 0.8 C 36 %
2177 14-04-2020 02:42:16 1.1 C 35 %
2178 14-04-2020 02:52:18 1 C 35 %
2179 14-04-2020 03:02:18 1.1 C 35 %
2180 14-04-2020 03:12:18 1.1 C 35 %
2181 14-04-2020 03:22:17 0.7 C 36 %
2182 14-04-2020 03:32:18 1.1 C 36 %
2183 14-04-2020 03:42:18 0.9 C 36 %
2184 14-04-2020 03:52:17 1 C 35 %
2185 14-04-2020 04:02:18 0.9 C 36 %
2186 14-04-2020 04:12:18 0.9 C 36 %
2187 14-04-2020 04:22:17 0.6 C 36 %
2188 14-04-2020 04:32:17 0.7 C 36 %
2189 14-04-2020 04:42:17 0.7 C 36 %
2190 14-04-2020 04:52:18 0.6 C 36 %
2191 14-04-2020 05:02:17 0 C 37 %
2192 14-04-2020 05:12:17 0 C 38 %
2193 14-04-2020 05:22:17 0.6 C 38 %
2194 14-04-2020 05:32:17 0.6 C 39 %
2195 14-04-2020 05:42:17 0.7 C 39 %
2196 14-04-2020 05:52:17 0 C 39 %
2197 14-04-2020 06:02:17 -0.2 C 40 %
2198 14-04-2020 06:12:17 -0.7 C 41 %
2199 14-04-2020 06:22:17 -0.9 C 41 %
2200 14-04-2020 06:32:17 -0.4 C 41 %
Sensor: Nr:Datum:Temp:Feuchte:
Aussen-T/F 2201 14-04-2020 06:42:17 -0.1 C 41 %
2202 14-04-2020 06:52:17 0.5 C 41 %
2203 14-04-2020 07:02:17 0.7 C 41 %
2204 14-04-2020 07:12:17 1.1 C 40 %
2205 14-04-2020 07:22:17 1.3 C 39 %
2206 14-04-2020 07:32:17 1.6 C 39 %
2207 14-04-2020 07:42:17 1.8 C 39 %
2208 14-04-2020 07:52:18 2.1 C 37 %
2209 14-04-2020 08:02:17 2.2 C 38 %
2210 14-04-2020 08:12:17 2.3 C 37 %
2211 14-04-2020 08:22:18 1.7 C 39 %
2212 14-04-2020 08:32:17 1.7 C 40 %
2213 14-04-2020 08:42:17 2.2 C 38 %
2214 14-04-2020 08:52:17 2.4 C 38 %
2215 14-04-2020 09:02:18 3 C 37 %
2216 14-04-2020 09:12:18 3.8 C 36 %
2217 14-04-2020 09:22:17 4.7 C 34 %
2218 14-04-2020 09:32:18 5.7 C 32 %
2219 14-04-2020 09:42:18 5.3 C 31 %
2220 14-04-2020 09:52:17 6 C 31 %
2221 14-04-2020 10:02:17 6.6 C 30 %
2222 14-04-2020 10:12:17 5.8 C 30 %
2223 14-04-2020 10:22:17 5.9 C 30 %
2224 14-04-2020 10:32:17 6.7 C 30 %
2225 14-04-2020 10:42:17 7.4 C 26 %
Sensor: Nr:Datum:Temp:Feuchte:
Aussen-T/F 2226 14-04-2020 10:52:18 8.4 C 23 %
2227 14-04-2020 11:02:17 8.2 C 21 %
2228 14-04-2020 11:12:17 8 C 20 %
2229 14-04-2020 11:22:17 7.9 C 20 %
2230 14-04-2020 11:32:17 8.2 C 20 %
2231 14-04-2020 11:42:17 9.1 C 20 %
2232 14-04-2020 11:52:18 8.4 C 20 %
2233 14-04-2020 12:02:17 8.5 C 20 %
2234 14-04-2020 12:12:17 8.6 C 20 %
2235 14-04-2020 12:22:17 8.9 C 20 %
2236 14-04-2020 12:32:17 8.6 C 20 %
2237 14-04-2020 12:42:17 9.8 C 20 %
2238 14-04-2020 12:52:17 10.6 C 20 %
2239 14-04-2020 13:02:18 10.2 C 20 %
2240 14-04-2020 13:12:18 10 C 20 %
2241 14-04-2020 13:22:17 10.4 C 20 %
2242 14-04-2020 13:32:17 10.7 C 20 %
2243 14-04-2020 13:42:17 10 C 20 %
2244 14-04-2020 13:52:18 9.5 C 20 %
2245 14-04-2020 14:02:17 9.8 C 20 %
2246 14-04-2020 14:12:18 10.3 C 20 %
2247 14-04-2020 14:22:18 11.8 C 20 %
2248 14-04-2020 14:32:18 14.5 C 20 %
2249 14-04-2020 14:42:18 17.4 C 20 %
2250 14-04-2020 14:52:17 16.8 C 20 %
Sensor: Nr:Datum:Temp:Feuchte:
Aussen-T/F 2251 14-04-2020 15:02:17 17.6 C 20 %
2252 14-04-2020 15:12:18 21 C 20 %
2253 14-04-2020 15:22:17 14.7 C 20 %
2254 14-04-2020 15:32:17 16.7 C 20 %
2255 14-04-2020 15:42:17 14 C 20 %
2256 14-04-2020 15:52:17 14 C 20 %
2257 14-04-2020 16:02:17 15 C 20 %
2258 14-04-2020 16:12:17 17.2 C 20 %
2259 14-04-2020 16:22:17 17.7 C 20 %
2260 14-04-2020 16:32:18 16.3 C 20 %
2261 14-04-2020 16:42:18 14 C 20 %
2262 14-04-2020 16:52:17 14.5 C 20 %
2263 14-04-2020 17:02:18 12.2 C 20 %
2264 14-04-2020 17:12:18 14.2 C 20 %
2265 14-04-2020 17:22:17 19.2 C 20 %
2266 14-04-2020 17:32:17 16.8 C 20 %
2267 14-04-2020 17:42:18 15.5 C 20 %
2268 14-04-2020 17:52:17 16 C 20 %
2269 14-04-2020 18:02:18 13.4 C 20 %
2270 14-04-2020 18:12:18 12.4 C 20 %
2271 14-04-2020 18:22:17 12.1 C 20 %
2272 14-04-2020 18:32:18 11.9 C 20 %
2273 14-04-2020 18:42:18 11.7 C 20 %
2274 14-04-2020 18:52:17 11.3 C 20 %
2275 14-04-2020 19:02:17 11.2 C 20 %
Sensor: Nr:Datum:Temp:Feuchte:
Aussen-T/F 2276 14-04-2020 19:12:18 11 C 20 %
2277 14-04-2020 19:22:18 10.6 C 20 %
2278 14-04-2020 19:32:18 10.3 C 20 %
2279 14-04-2020 19:42:18 10.1 C 20 %
2280 14-04-2020 19:52:17 9.7 C 20 %
2281 14-04-2020 20:02:17 9.3 C 20 %
2282 14-04-2020 20:12:17 8.9 C 20 %
2283 14-04-2020 20:22:17 7.7 C 20 %
2284 14-04-2020 20:32:17 7 C 23 %
2285 14-04-2020 20:42:18 6.7 C 25 %
2286 14-04-2020 20:52:17 6.8 C 25 %
2287 14-04-2020 21:02:17 6.5 C 25 %
2288 14-04-2020 21:12:17 6.3 C 25 %
2289 14-04-2020 21:22:17 6 C 26 %
2290 14-04-2020 21:32:17 6.1 C 26 %
2291 14-04-2020 21:42:17 5.8 C 27 %
2292 14-04-2020 21:52:17 5.6 C 27 %
2293 14-04-2020 22:02:18 5.6 C 27 %
2294 14-04-2020 22:12:18 5.1 C 29 %
2295 14-04-2020 22:22:17 5.2 C 28 %
2296 14-04-2020 22:32:18 5 C 29 %
2297 14-04-2020 22:42:18 4.7 C 30 %
2298 14-04-2020 22:52:18 4.7 C 30 %
2299 14-04-2020 23:02:18 4.3 C 32 %
2300 14-04-2020 23:12:18 3.6 C 34 %
Sensor: Nr:Datum:Temp:Feuchte:
Aussen-T/F 2301 14-04-2020 23:22:17 3.2 C 35 %
2302 14-04-2020 23:32:17 3 C 35 %
2303 14-04-2020 23:42:17 2.8 C 36 %
2304 14-04-2020 23:52:17 2.6 C 36 %
2305 15-04-2020 00:02:18 2.4 C 37 %
2306 15-04-2020 00:12:18 2.1 C 37 %
2307 15-04-2020 00:22:17 1.7 C 39 %
2308 15-04-2020 00:32:18 1.6 C 39 %
2309 15-04-2020 00:42:18 1.6 C 40 %
2310 15-04-2020 00:52:17 1.6 C 39 %
2311 15-04-2020 01:02:17 1.5 C 40 %
2312 15-04-2020 01:12:17 1.3 C 40 %
2313 15-04-2020 01:22:17 1.2 C 40 %
2314 15-04-2020 01:32:17 1.3 C 40 %
2315 15-04-2020 01:42:17 1.2 C 40 %
2316 15-04-2020 01:52:17 1 C 40 %
2317 15-04-2020 02:02:17 0.8 C 41 %
2318 15-04-2020 02:12:17 0.8 C 42 %
2319 15-04-2020 02:22:17 0.8 C 42 %
2320 15-04-2020 02:32:17 0.7 C 42 %
2321 15-04-2020 02:42:17 0.6 C 42 %
2322 15-04-2020 02:52:17 0.1 C 42 %
2323 15-04-2020 03:02:17 0.2 C 43 %
2324 15-04-2020 03:12:17 0.3 C 43 %
2325 15-04-2020 03:22:17 0.2 C 43 %
Sensor: Nr:Datum:Temp:Feuchte:
Aussen-T/F 2326 15-04-2020 03:32:18 0.5 C 43 %
2327 15-04-2020 03:42:18 0.1 C 43 %
2328 15-04-2020 03:52:18 0 C 43 %
2329 15-04-2020 04:02:18 0.2 C 43 %
2330 15-04-2020 04:12:18 -0.2 C 43 %
2331 15-04-2020 04:22:17 0 C 44 %
2332 15-04-2020 04:32:18 -0.2 C 43 %
2333 15-04-2020 04:42:18 -0.3 C 44 %
2334 15-04-2020 04:52:17 -0.4 C 44 %
2335 15-04-2020 05:02:18 -0.4 C 44 %
2336 15-04-2020 05:12:18 -0.3 C 44 %
2337 15-04-2020 05:22:17 -0.4 C 45 %
2338 15-04-2020 05:32:17 -0.5 C 45 %
2339 15-04-2020 05:42:17 -0.4 C 45 %
2340 15-04-2020 05:52:17 -0.7 C 45 %
2341 15-04-2020 06:02:17 -0.7 C 45 %
2342 15-04-2020 06:12:17 -0.7 C 45 %
2343 15-04-2020 06:22:17 -0.7 C 45 %
2344 15-04-2020 06:32:17 -0.6 C 45 %
2345 15-04-2020 06:42:17 -0.7 C 45 %
2346 15-04-2020 06:52:17 -0.9 C 45 %
2347 15-04-2020 07:02:17 -0.7 C 45 %
2348 15-04-2020 07:12:17 -0.6 C 45 %
2349 15-04-2020 07:22:17 -0.5 C 45 %
2350 15-04-2020 07:32:17 -0.1 C 46 %
Sensor: Nr:Datum:Temp:Feuchte:
Aussen-T/F 2351 15-04-2020 07:42:17 0.1 C 45 %
2352 15-04-2020 07:52:18 0.4 C 45 %
2353 15-04-2020 08:02:17 0.7 C 45 %
2354 15-04-2020 08:12:17 1 C 43 %
2355 15-04-2020 08:22:18 1.4 C 42 %
2356 15-04-2020 08:32:18 1.6 C 41 %
2357 15-04-2020 08:42:18 1.9 C 41 %
2358 15-04-2020 08:52:18 2.4 C 40 %
2359 15-04-2020 09:02:17 2.8 C 40 %
2360 15-04-2020 09:12:17 3 C 38 %
2361 15-04-2020 09:22:18 3.4 C 38 %
2362 15-04-2020 09:32:18 3.5 C 37 %
2363 15-04-2020 09:42:18 4.2 C 36 %
2364 15-04-2020 09:52:17 4.4 C 36 %
2365 15-04-2020 10:02:18 4.9 C 35 %
2366 15-04-2020 10:12:18 5.4 C 35 %
2367 15-04-2020 10:22:18 6.2 C 34 %
2368 15-04-2020 10:32:18 6.9 C 33 %
2369 15-04-2020 10:42:18 7.4 C 31 %
2370 15-04-2020 10:52:18 8.1 C 30 %
2371 15-04-2020 11:02:17 8.5 C 30 %
2372 15-04-2020 11:12:17 9.2 C 29 %
2373 15-04-2020 11:22:18 9.9 C 28 %
2374 15-04-2020 11:32:17 10.4 C 26 %
2375 15-04-2020 11:42:17 11 C 22 %
Sensor: Nr:Datum:Temp:Feuchte:
Aussen-T/F 2376 15-04-2020 11:52:18 11.6 C 20 %
2377 15-04-2020 12:02:17 12.3 C 20 %
2378 15-04-2020 12:12:17 12.2 C 20 %
2379 15-04-2020 12:22:18 13.3 C 20 %
2380 15-04-2020 12:32:18 13.2 C 20 %
2381 15-04-2020 12:42:18 13.3 C 20 %
2382 15-04-2020 12:52:17 13.2 C 20 %
2383 15-04-2020 13:02:17 13.4 C 20 %
2384 15-04-2020 13:12:17 13.5 C 20 %
2385 15-04-2020 13:22:18 13.4 C 20 %
2386 15-04-2020 13:32:18 14.2 C 20 %
2387 15-04-2020 13:42:18 14.4 C 20 %
2388 15-04-2020 13:52:17 14.7 C 20 %
2389 15-04-2020 14:02:17 15.2 C 20 %
2390 15-04-2020 14:12:17 15.5 C 20 %
2391 15-04-2020 14:22:17 16.9 C 20 %
2392 15-04-2020 14:32:17 21.6 C 20 %
2393 15-04-2020 14:42:17 23.9 C 20 %
2394 15-04-2020 14:52:17 25.2 C 20 %
2395 15-04-2020 15:02:18 24.8 C 20 %
2396 15-04-2020 15:12:18 23.5 C 20 %
2397 15-04-2020 15:22:18 24.4 C 20 %
2398 15-04-2020 15:32:18 23.9 C 20 %
2399 15-04-2020 15:42:18 24.5 C 20 %
2400 15-04-2020 15:52:17 24.4 C 20 %
Sensor: Nr:Datum:Temp:Feuchte:
Aussen-T/F 2401 15-04-2020 16:02:18 24.8 C 20 %
2402 15-04-2020 16:12:18 24.6 C 20 %
2403 15-04-2020 16:22:17 23.3 C 20 %
2404 15-04-2020 16:32:18 23.7 C 20 %
2405 15-04-2020 16:42:18 25.4 C 20 %
2406 15-04-2020 16:52:18 25.9 C 20 %
2407 15-04-2020 17:02:17 25.4 C 20 %
2408 15-04-2020 17:12:17 26.8 C 20 %
2409 15-04-2020 17:22:18 24.8 C 20 %
2410 15-04-2020 17:32:17 24 C 20 %
2411 15-04-2020 17:42:17 22.4 C 20 %
2412 15-04-2020 17:52:18 24.4 C 20 %
2413 15-04-2020 18:02:18 20.6 C 20 %
2414 15-04-2020 18:12:18 20.2 C 20 %
2415 15-04-2020 18:22:18 19.7 C 20 %
2416 15-04-2020 18:32:18 19.1 C 20 %
2417 15-04-2020 18:42:18 19.4 C 20 %
2418 15-04-2020 18:52:17 19.4 C 20 %
2419 15-04-2020 19:02:17 18.8 C 20 %
2420 15-04-2020 19:12:17 18.7 C 20 %
2421 15-04-2020 19:22:17 18.2 C 20 %
2422 15-04-2020 19:32:17 18 C 20 %
2423 15-04-2020 19:42:18 17.3 C 20 %
2424 15-04-2020 19:52:17 15.3 C 20 %
2425 15-04-2020 20:02:18 14 C 20 %
Sensor: Nr:Datum:Temp:Feuchte:
Aussen-T/F 2426 15-04-2020 20:12:18 13.6 C 20 %
2427 15-04-2020 20:22:18 13.4 C 20 %
2428 15-04-2020 20:32:17 13.1 C 20 %
2429 15-04-2020 20:42:18 12.7 C 20 %
2430 15-04-2020 20:52:17 12 C 20 %
2431 15-04-2020 21:02:18 12 C 20 %
2432 15-04-2020 21:12:18 11 C 20 %
2433 15-04-2020 21:22:17 11 C 20 %
2434 15-04-2020 21:32:17 10.5 C 20 %
2435 15-04-2020 21:42:17 9.4 C 25 %
2436 15-04-2020 21:52:17 9 C 26 %
2437 15-04-2020 22:02:17 8.9 C 27 %
2438 15-04-2020 22:12:17 8.6 C 28 %
2439 15-04-2020 22:22:17 8.8 C 28 %
2440 15-04-2020 22:32:18 8.1 C 28 %
2441 15-04-2020 22:42:18 7.7 C 29 %
2442 15-04-2020 22:52:17 7.3 C 30 %
2443 15-04-2020 23:02:17 7.1 C 30 %
2444 15-04-2020 23:12:17 7.2 C 30 %
2445 15-04-2020 23:22:17 7 C 30 %
2446 15-04-2020 23:32:17 6.6 C 31 %
2447 15-04-2020 23:42:18 6.4 C 32 %
2448 15-04-2020 23:52:17 6.2 C 32 %
2449 16-04-2020 00:02:17 6.2 C 32 %
2450 16-04-2020 00:12:17 6 C 33 %
Sensor: Nr:Datum:Temp:Feuchte:
Aussen-T/F 2451 16-04-2020 00:22:17 5.8 C 34 %
2452 16-04-2020 00:32:18 5.5 C 35 %
2453 16-04-2020 00:42:18 5.3 C 35 %
2454 16-04-2020 00:52:17 5.2 C 35 %
2455 16-04-2020 01:02:17 4.8 C 35 %
2456 16-04-2020 01:12:17 4.8 C 35 %
2457 16-04-2020 01:22:17 5.1 C 35 %
2458 16-04-2020 01:32:18 5.1 C 35 %
2459 16-04-2020 01:42:18 4.7 C 36 %
2460 16-04-2020 01:52:17 4.8 C 36 %
2461 16-04-2020 02:02:18 4.6 C 36 %
2462 16-04-2020 02:12:18 4.3 C 36 %
2463 16-04-2020 02:22:18 3.9 C 38 %
2464 16-04-2020 02:32:17 4.1 C 38 %
2465 16-04-2020 02:42:17 4 C 38 %
2466 16-04-2020 02:52:17 3.7 C 39 %
2467 16-04-2020 03:02:17 3.6 C 40 %
2468 16-04-2020 03:12:17 3.6 C 39 %
2469 16-04-2020 03:22:17 3.5 C 39 %
2470 16-04-2020 03:32:17 3.3 C 39 %
2471 16-04-2020 03:42:17 3 C 40 %
2472 16-04-2020 03:52:17 2.9 C 41 %
2473 16-04-2020 04:02:17 3.2 C 40 %
2474 16-04-2020 04:12:17 3.2 C 40 %
2475 16-04-2020 04:22:17 2.7 C 41 %
Sensor: Nr:Datum:Temp:Feuchte:
Aussen-T/F 2476 16-04-2020 04:32:18 2.6 C 41 %
2477 16-04-2020 04:42:18 3 C 41 %
2478 16-04-2020 04:52:17 2.6 C 42 %
2479 16-04-2020 05:02:17 2.7 C 42 %
2480 16-04-2020 05:12:17 2.7 C 42 %
2481 16-04-2020 05:22:17 2.6 C 42 %
2482 16-04-2020 05:32:17 2.3 C 42 %
2483 16-04-2020 05:42:17 2 C 42 %
2484 16-04-2020 05:52:17 2.1 C 43 %
2485 16-04-2020 06:02:18 2.4 C 43 %
2486 16-04-2020 06:12:18 2 C 42 %
2487 16-04-2020 06:22:17 1.6 C 44 %
2488 16-04-2020 06:32:17 1.4 C 44 %
2489 16-04-2020 06:42:17 1.8 C 45 %
2490 16-04-2020 06:52:17 1.8 C 45 %
2491 16-04-2020 07:02:17 1.8 C 45 %
2492 16-04-2020 07:12:17 1.8 C 45 %
2493 16-04-2020 07:22:17 2.2 C 44 %
2494 16-04-2020 07:32:17 2.1 C 44 %
2495 16-04-2020 07:42:17 2.1 C 44 %
2496 16-04-2020 07:52:17 2.5 C 44 %
2497 16-04-2020 08:02:17 2.5 C 44 %
2498 16-04-2020 08:12:17 2.6 C 44 %
2499 16-04-2020 08:22:17 3 C 43 %
2500 16-04-2020 08:32:18 3.2 C 42 %
Sensor: Nr:Datum:Temp:Feuchte:
Aussen-T/F 2501 16-04-2020 08:42:18 3.5 C 42 %
2502 16-04-2020 08:52:17 3.6 C 41 %
2503 16-04-2020 09:02:18 3.9 C 41 %
2504 16-04-2020 09:12:18 4.2 C 41 %
2505 16-04-2020 09:22:17 4.5 C 40 %
2506 16-04-2020 09:32:17 5.1 C 40 %
2507 16-04-2020 09:42:17 5.8 C 39 %
2508 16-04-2020 09:52:17 6.6 C 37 %
2509 16-04-2020 10:02:18 7 C 36 %
2510 16-04-2020 10:12:18 7.5 C 36 %
2511 16-04-2020 10:22:17 8.1 C 35 %
2512 16-04-2020 10:32:17 9.4 C 34 %
2513 16-04-2020 10:42:18 10.4 C 31 %
2514 16-04-2020 10:52:17 11.2 C 30 %
2515 16-04-2020 11:02:18 12.2 C 29 %
2516 16-04-2020 11:12:18 14.2 C 25 %
2517 16-04-2020 11:22:17 15.5 C 20 %
2518 16-04-2020 11:32:17 16.8 C 20 %
2519 16-04-2020 11:42:17 17.6 C 20 %
2520 16-04-2020 11:52:17 18 C 20 %
2521 16-04-2020 12:02:18 18.4 C 20 %
2522 16-04-2020 12:12:18 18.7 C 20 %
2523 16-04-2020 12:22:17 19.1 C 20 %
2524 16-04-2020 12:32:18 19.3 C 20 %
2525 16-04-2020 12:42:18 19.5 C 20 %
Sensor: Nr:Datum:Temp:Feuchte:
Aussen-T/F 2526 16-04-2020 12:52:17 19.6 C 20 %
2527 16-04-2020 13:02:18 20.1 C 20 %
2528 16-04-2020 13:12:18 20.5 C 20 %
2529 16-04-2020 13:22:17 20.8 C 20 %
2530 16-04-2020 13:32:18 21.1 C 20 %
2531 16-04-2020 13:42:18 21.5 C 20 %
2532 16-04-2020 13:52:17 21.7 C 20 %
2533 16-04-2020 14:02:17 22 C 20 %
2534 16-04-2020 14:12:17 22.4 C 20 %
2535 16-04-2020 14:22:17 22.8 C 20 %
2536 16-04-2020 14:32:17 26.2 C 20 %
2537 16-04-2020 14:42:17 28 C 20 %
2538 16-04-2020 14:52:17 29.6 C 20 %
2539 16-04-2020 15:02:17 29.8 C 20 %
2540 16-04-2020 15:12:17 29.5 C 20 %
2541 16-04-2020 15:22:17 28.5 C 20 %
2542 16-04-2020 15:32:18 30.1 C 20 %
2543 16-04-2020 15:42:18 25.8 C 20 %
2544 16-04-2020 15:52:17 27.1 C 20 %
2545 16-04-2020 16:02:17 29.5 C 20 %
2546 16-04-2020 16:12:17 28.4 C 20 %
2547 16-04-2020 16:22:17 26.5 C 20 %
2548 16-04-2020 16:32:17 26.6 C 20 %
2549 16-04-2020 16:42:18 27.2 C 20 %
2550 16-04-2020 16:52:17 24.9 C 20 %
Sensor: Nr:Datum:Temp:Feuchte:
Aussen-T/F 2551 16-04-2020 17:02:17 25 C 20 %
2552 16-04-2020 17:12:17 26.1 C 20 %
2553 16-04-2020 17:22:18 28.3 C 20 %
2554 16-04-2020 17:32:17 27.6 C 20 %
2555 16-04-2020 17:42:17 27.3 C 20 %
2556 16-04-2020 17:52:17 26.5 C 20 %
2557 16-04-2020 18:02:17 25.6 C 20 %
2558 16-04-2020 18:12:17 24.3 C 20 %
2559 16-04-2020 18:22:17 24.4 C 20 %
2560 16-04-2020 18:32:17 24.2 C 20 %
2561 16-04-2020 18:42:17 23.9 C 20 %
2562 16-04-2020 18:52:17 24 C 20 %
2563 16-04-2020 19:02:17 23.2 C 20 %
2564 16-04-2020 19:12:17 22.9 C 20 %
2565 16-04-2020 19:22:17 22.2 C 20 %
2566 16-04-2020 19:32:18 21.9 C 20 %
2567 16-04-2020 19:42:18 21.2 C 20 %
2568 16-04-2020 19:52:17 20.5 C 20 %
2569 16-04-2020 20:02:17 19.5 C 20 %
2570 16-04-2020 20:12:17 19.2 C 20 %
2571 16-04-2020 20:22:17 19.3 C 20 %
2572 16-04-2020 20:32:18 19.1 C 20 %
2573 16-04-2020 20:42:18 18.9 C 20 %
2574 16-04-2020 20:52:18 18.5 C 20 %
2575 16-04-2020 21:02:17 17.9 C 20 %
Sensor: Nr:Datum:Temp:Feuchte:
Aussen-T/F 2576 16-04-2020 21:12:17 16.5 C 20 %
2577 16-04-2020 21:22:17 16.1 C 20 %
2578 16-04-2020 21:32:18 15.5 C 20 %
2579 16-04-2020 21:42:18 14.7 C 21 %
2580 16-04-2020 21:52:17 14.4 C 22 %
2581 16-04-2020 22:02:17 14.5 C 22 %
2582 16-04-2020 22:12:17 13.5 C 25 %
2583 16-04-2020 22:22:17 14.1 C 25 %
2584 16-04-2020 22:32:17 13.8 C 25 %
2585 16-04-2020 22:42:18 13.1 C 26 %
2586 16-04-2020 22:52:17 12.4 C 28 %
2587 16-04-2020 23:02:17 12.5 C 29 %
2588 16-04-2020 23:12:17 12.2 C 30 %
2589 16-04-2020 23:22:17 11.7 C 30 %
2590 16-04-2020 23:32:18 11.6 C 31 %
2591 16-04-2020 23:42:18 11.6 C 31 %
2592 16-04-2020 23:52:17 11.8 C 31 %
2593 17-04-2020 00:02:18 11.4 C 31 %
2594 17-04-2020 00:12:18 11 C 31 %
2595 17-04-2020 00:22:17 11 C 32 %
2596 17-04-2020 00:32:17 11 C 32 %
2597 17-04-2020 00:42:17 11 C 32 %
2598 17-04-2020 00:52:18 10.4 C 33 %
2599 17-04-2020 01:02:17 10.1 C 34 %
2600 17-04-2020 01:12:18 10.1 C 34 %
Sensor: Nr:Datum:Temp:Feuchte:
Aussen-T/F 2601 17-04-2020 01:22:18 9.8 C 35 %
2602 17-04-2020 01:32:18 10 C 35 %
2603 17-04-2020 01:42:18 10 C 35 %
2604 17-04-2020 01:52:17 9.5 C 36 %
2605 17-04-2020 02:02:17 9.7 C 36 %
2606 17-04-2020 02:12:17 9.6 C 36 %
2607 17-04-2020 02:22:17 9.1 C 36 %
2608 17-04-2020 02:32:17 8.9 C 37 %
2609 17-04-2020 02:42:17 8.5 C 38 %
2610 17-04-2020 02:52:17 8.1 C 38 %
2611 17-04-2020 03:02:17 7.9 C 39 %
2612 17-04-2020 03:12:18 7.9 C 40 %
2613 17-04-2020 03:22:18 7.8 C 40 %
2614 17-04-2020 03:32:17 7.8 C 40 %
2615 17-04-2020 03:42:18 7.8 C 40 %
2616 17-04-2020 03:52:18 8.5 C 39 %
2617 17-04-2020 04:02:17 8.4 C 39 %
2618 17-04-2020 04:12:17 8.3 C 39 %
2619 17-04-2020 04:22:17 8 C 39 %
2620 17-04-2020 04:32:17 7.9 C 40 %
2621 17-04-2020 04:42:17 8 C 40 %
2622 17-04-2020 04:52:17 7.8 C 40 %
2623 17-04-2020 05:02:17 7.5 C 40 %
2624 17-04-2020 05:12:18 6.9 C 41 %
2625 17-04-2020 05:22:17 6.7 C 42 %
Sensor: Nr:Datum:Temp:Feuchte:
Aussen-T/F 2626 17-04-2020 05:32:18 6.6 C 42 %
2627 17-04-2020 05:42:18 6.7 C 43 %
2628 17-04-2020 05:52:18 6.5 C 42 %
2629 17-04-2020 06:02:18 6.5 C 43 %
2630 17-04-2020 06:12:18 6.2 C 43 %
2631 17-04-2020 06:22:17 6 C 43 %
2632 17-04-2020 06:32:17 6 C 44 %
2633 17-04-2020 06:42:17 5.8 C 44 %
2634 17-04-2020 06:52:17 5.8 C 44 %
2635 17-04-2020 07:02:18 5.8 C 45 %
2636 17-04-2020 07:12:18 5.9 C 45 %
2637 17-04-2020 07:22:18 6.1 C 45 %
2638 17-04-2020 07:32:17 6.1 C 45 %
2639 17-04-2020 07:42:17 6.3 C 45 %
2640 17-04-2020 07:52:17 6.3 C 45 %
2641 17-04-2020 08:02:17 6.5 C 45 %
2642 17-04-2020 08:12:17 6.7 C 45 %
2643 17-04-2020 08:22:17 6.9 C 45 %
2644 17-04-2020 08:32:18 7 C 44 %
2645 17-04-2020 08:42:18 7.6 C 44 %
2646 17-04-2020 08:52:17 7.9 C 44 %
2647 17-04-2020 09:02:18 8.4 C 42 %
2648 17-04-2020 09:12:18 8.6 C 42 %
2649 17-04-2020 09:22:17 8.8 C 41 %
2650 17-04-2020 09:32:17 9.3 C 41 %
Sensor: Nr:Datum:Temp:Feuchte:
Aussen-T/F 2651 17-04-2020 09:42:17 9.6 C 40 %
2652 17-04-2020 09:52:18 10.3 C 39 %
2653 17-04-2020 10:02:17 10.8 C 38 %
2654 17-04-2020 10:12:17 11 C 37 %
2655 17-04-2020 10:22:18 11.8 C 36 %
2656 17-04-2020 10:32:18 12.4 C 35 %
2657 17-04-2020 10:42:18 13 C 34 %
2658 17-04-2020 10:52:17 13.9 C 34 %
2659 17-04-2020 11:02:17 14.6 C 32 %
2660 17-04-2020 11:12:17 15.8 C 30 %
2661 17-04-2020 11:22:18 16.5 C 28 %
2662 17-04-2020 11:32:17 17.1 C 28 %
2663 17-04-2020 11:42:17 17.7 C 26 %
2664 17-04-2020 11:52:17 17.9 C 25 %
2665 17-04-2020 12:02:18 18.5 C 25 %
2666 17-04-2020 12:12:18 18.7 C 24 %
2667 17-04-2020 12:22:17 19.1 C 22 %
2668 17-04-2020 12:32:17 19.7 C 20 %
2669 17-04-2020 12:42:17 19.7 C 20 %
2670 17-04-2020 12:52:17 19.7 C 20 %
2671 17-04-2020 13:02:18 20 C 20 %
2672 17-04-2020 13:12:18 20.4 C 20 %
2673 17-04-2020 13:22:17 20.6 C 20 %
2674 17-04-2020 13:32:17 20.8 C 20 %
2675 17-04-2020 13:42:17 21.1 C 20 %
Sensor: Nr:Datum:Temp:Feuchte:
Aussen-T/F 2676 17-04-2020 13:52:17 21.6 C 20 %
2677 17-04-2020 14:02:18 21.8 C 20 %
2678 17-04-2020 14:12:18 22.6 C 20 %
2679 17-04-2020 14:22:17 23.2 C 20 %
2680 17-04-2020 14:32:17 25.2 C 20 %
2681 17-04-2020 14:42:17 29 C 20 %
2682 17-04-2020 14:52:17 32.1 C 20 %
2683 17-04-2020 15:02:17 30.9 C 20 %
2684 17-04-2020 15:12:17 31.4 C 20 %
2685 17-04-2020 15:22:17 29.6 C 20 %
2686 17-04-2020 15:32:17 29.2 C 20 %
2687 17-04-2020 15:42:17 29 C 20 %
2688 17-04-2020 15:52:18 25.7 C 20 %
2689 17-04-2020 16:02:17 30.3 C 20 %
2690 17-04-2020 16:12:17 30.2 C 20 %
2691 17-04-2020 16:22:17 27.5 C 20 %
2692 17-04-2020 16:32:17 28.2 C 20 %
2693 17-04-2020 16:42:17 28.2 C 20 %
2694 17-04-2020 16:52:17 27.7 C 20 %
2695 17-04-2020 17:02:18 29.6 C 20 %
2696 17-04-2020 17:12:18 29.4 C 20 %
2697 17-04-2020 17:22:17 29.5 C 20 %
2698 17-04-2020 17:32:17 30.4 C 20 %
2699 17-04-2020 17:42:18 27.7 C 20 %
2700 17-04-2020 17:52:17 28.5 C 20 %
Sensor: Nr:Datum:Temp:Feuchte:
Aussen-T/F 2701 17-04-2020 18:02:17 26.6 C 20 %
2702 17-04-2020 18:12:17 26.2 C 20 %
2703 17-04-2020 18:22:17 25.7 C 20 %
2704 17-04-2020 18:32:17 24.8 C 20 %
2705 17-04-2020 18:42:17 24.7 C 20 %
2706 17-04-2020 18:52:18 24.2 C 20 %
2707 17-04-2020 19:02:17 24.1 C 20 %
2708 17-04-2020 19:12:17 23.7 C 20 %
2709 17-04-2020 19:22:17 23 C 20 %
2710 17-04-2020 19:32:17 22.2 C 20 %
2711 17-04-2020 19:42:17 21.7 C 20 %
2712 17-04-2020 19:52:17 20.7 C 20 %
2713 17-04-2020 20:02:17 20 C 20 %
2714 17-04-2020 20:12:17 19.5 C 20 %
2715 17-04-2020 20:22:17 18.8 C 21 %
2716 17-04-2020 20:32:17 18.4 C 21 %
2717 17-04-2020 20:42:17 18.2 C 21 %
2718 17-04-2020 20:52:17 17.7 C 23 %
2719 17-04-2020 21:02:17 17.5 C 23 %
2720 17-04-2020 21:12:17 17.7 C 24 %
2721 17-04-2020 21:22:17 17.6 C 25 %
2722 17-04-2020 21:32:18 17.8 C 24 %
2723 17-04-2020 21:42:18 17 C 25 %
2724 17-04-2020 21:52:18 16.8 C 25 %
2725 17-04-2020 22:02:17 16 C 26 %
Sensor: Nr:Datum:Temp:Feuchte:
Aussen-T/F 2726 17-04-2020 22:12:17 16 C 26 %
2727 17-04-2020 22:22:17 15.8 C 26 %
2728 17-04-2020 22:32:17 15.7 C 26 %
2729 17-04-2020 22:42:17 15.1 C 27 %
2730 17-04-2020 22:52:17 14.6 C 29 %
2731 17-04-2020 23:02:17 14.7 C 30 %
2732 17-04-2020 23:12:17 14.4 C 29 %
2733 17-04-2020 23:22:18 14.1 C 30 %
2734 17-04-2020 23:32:17 14 C 30 %
2735 17-04-2020 23:42:17 13.6 C 31 %
2736 17-04-2020 23:52:17 13.5 C 31 %
2737 18-04-2020 00:02:17 13.4 C 31 %
2738 18-04-2020 00:12:17 13.1 C 32 %
2739 18-04-2020 00:22:18 12.6 C 33 %
2740 18-04-2020 00:32:17 12.2 C 33 %
2741 18-04-2020 00:42:18 12 C 33 %
2742 18-04-2020 00:52:17 11.8 C 34 %
2743 18-04-2020 01:02:18 11.8 C 34 %
2744 18-04-2020 01:12:18 11.8 C 34 %
2745 18-04-2020 01:22:17 11.4 C 34 %
2746 18-04-2020 01:32:18 11.1 C 35 %
2747 18-04-2020 01:42:18 10.9 C 36 %
2748 18-04-2020 01:52:17 10.9 C 36 %
2749 18-04-2020 02:02:18 10.8 C 36 %
2750 18-04-2020 02:12:18 10.6 C 36 %
Sensor: Nr:Datum:Temp:Feuchte:
Aussen-T/F 2751 18-04-2020 02:22:17 10.7 C 36 %
2752 18-04-2020 02:32:17 10.1 C 37 %
2753 18-04-2020 02:42:17 10 C 38 %
2754 18-04-2020 02:52:18 9.8 C 38 %
2755 18-04-2020 03:02:17 9.7 C 39 %
2756 18-04-2020 03:12:17 9.6 C 39 %
2757 18-04-2020 03:22:18 9.2 C 39 %
2758 18-04-2020 03:32:18 9 C 39 %
2759 18-04-2020 03:42:18 9 C 39 %
2760 18-04-2020 03:52:18 8.9 C 40 %
2761 18-04-2020 04:02:17 9 C 40 %
2762 18-04-2020 04:12:17 9 C 40 %
2763 18-04-2020 04:22:17 9 C 40 %
2764 18-04-2020 04:32:18 8.9 C 41 %
2765 18-04-2020 04:42:18 8.8 C 41 %
2766 18-04-2020 04:52:17 8.6 C 41 %
2767 18-04-2020 05:02:17 8.4 C 41 %
2768 18-04-2020 05:12:17 8.5 C 41 %
2769 18-04-2020 05:22:17 8.7 C 40 %
2770 18-04-2020 05:32:17 8.6 C 41 %
2771 18-04-2020 05:42:17 8.3 C 41 %
2772 18-04-2020 05:52:18 8.6 C 41 %
2773 18-04-2020 06:02:17 8.7 C 41 %
2774 18-04-2020 06:12:17 8.6 C 41 %
2775 18-04-2020 06:22:17 8.7 C 41 %
Sensor: Nr:Datum:Temp:Feuchte:
Aussen-T/F 2776 18-04-2020 06:32:17 8.3 C 41 %
2777 18-04-2020 06:42:17 8.1 C 41 %
2778 18-04-2020 06:52:17 8.2 C 41 %
2779 18-04-2020 07:02:17 8.4 C 42 %
2780 18-04-2020 07:12:17 8.7 C 42 %
2781 18-04-2020 07:22:17 9.4 C 42 %
2782 18-04-2020 07:32:17 9.6 C 41 %
2783 18-04-2020 07:42:17 9.7 C 41 %
2784 18-04-2020 07:52:17 9.7 C 41 %
2785 18-04-2020 08:02:18 9.7 C 41 %
2786 18-04-2020 08:12:18 10 C 40 %
2787 18-04-2020 08:22:17 10.1 C 40 %
2788 18-04-2020 08:32:17 10.2 C 40 %
2789 18-04-2020 08:42:18 10.6 C 40 %
2790 18-04-2020 08:52:18 11.1 C 39 %
2791 18-04-2020 09:02:17 11.7 C 38 %
2792 18-04-2020 09:12:17 12.1 C 37 %
2793 18-04-2020 09:22:17 12.5 C 36 %
2794 18-04-2020 09:32:18 13.4 C 35 %
2795 18-04-2020 09:42:18 13.8 C 34 %
2796 18-04-2020 09:52:18 14.4 C 32 %
2797 18-04-2020 10:02:18 15 C 31 %
2798 18-04-2020 10:12:18 14.9 C 31 %
2799 18-04-2020 10:22:18 16.2 C 30 %
2800 18-04-2020 10:32:18 15.8 C 30 %
Sensor: Nr:Datum:Temp:Feuchte:
Aussen-T/F 2801 18-04-2020 10:42:18 17.2 C 29 %
2802 18-04-2020 10:52:18 17.9 C 29 %
2803 18-04-2020 11:02:18 18.5 C 27 %
2804 18-04-2020 11:12:18 18.3 C 27 %
2805 18-04-2020 11:22:17 18.5 C 26 %
2806 18-04-2020 11:32:18 17.8 C 27 %
2807 18-04-2020 11:42:18 18.6 C 26 %
2808 18-04-2020 11:52:18 18.9 C 27 %
2809 18-04-2020 12:02:17 19.1 C 26 %
2810 18-04-2020 12:12:17 20 C 25 %
2811 18-04-2020 12:22:18 20.2 C 24 %
2812 18-04-2020 12:32:18 20.1 C 24 %
2813 18-04-2020 12:42:18 19.6 C 25 %
2814 18-04-2020 12:52:17 19.3 C 25 %
2815 18-04-2020 13:02:17 20.8 C 24 %
2816 18-04-2020 13:12:17 21.8 C 21 %
2817 18-04-2020 13:22:18 21.5 C 20 %
2818 18-04-2020 13:32:18 21.8 C 20 %
2819 18-04-2020 13:42:18 22.4 C 20 %
2820 18-04-2020 13:52:18 21.6 C 20 %
2821 18-04-2020 14:02:18 21.2 C 20 %
2822 18-04-2020 14:12:18 21.7 C 20 %
2823 18-04-2020 14:22:18 22.4 C 20 %
2824 18-04-2020 14:32:17 22.4 C 20 %
2825 18-04-2020 14:42:17 22.8 C 20 %
Sensor: Nr:Datum:Temp:Feuchte:
Aussen-T/F 2826 18-04-2020 14:52:17 22.6 C 20 %
2827 18-04-2020 15:02:17 25.4 C 20 %
2828 18-04-2020 15:12:18 30.4 C 20 %
2829 18-04-2020 15:22:17 28.2 C 20 %
2830 18-04-2020 15:32:17 23.8 C 20 %
2831 18-04-2020 15:42:17 23.2 C 20 %
2832 18-04-2020 15:52:17 22.2 C 20 %
2833 18-04-2020 16:02:18 21.8 C 20 %
2834 18-04-2020 16:12:18 21.8 C 20 %
2835 18-04-2020 16:22:18 20.6 C 20 %
2836 18-04-2020 16:32:17 19.7 C 25 %
2837 18-04-2020 16:42:17 20 C 25 %
2838 18-04-2020 16:52:17 19.9 C 25 %
2839 18-04-2020 17:02:17 19.1 C 26 %
2840 18-04-2020 17:12:17 18.9 C 27 %
2841 18-04-2020 17:22:17 18.7 C 28 %
2842 18-04-2020 17:32:18 17.6 C 33 %
2843 18-04-2020 17:42:18 17.5 C 33 %
2844 18-04-2020 17:52:18 17.4 C 33 %
2845 18-04-2020 18:02:18 17.3 C 34 %
2846 18-04-2020 18:12:18 17.1 C 34 %
2847 18-04-2020 18:22:17 17.3 C 33 %
2848 18-04-2020 18:32:18 17.7 C 31 %
2849 18-04-2020 18:42:18 17.7 C 31 %
2850 18-04-2020 18:52:17 17.9 C 30 %
Sensor: Nr:Datum:Temp:Feuchte:
Aussen-T/F 2851 18-04-2020 19:02:18 18.1 C 30 %
2852 18-04-2020 19:12:18 17.9 C 30 %
2853 18-04-2020 19:22:17 17.6 C 30 %
2854 18-04-2020 19:32:17 17.8 C 30 %
2855 18-04-2020 19:42:17 18.1 C 29 %
2856 18-04-2020 19:52:18 17.7 C 30 %
2857 18-04-2020 20:02:17 17.3 C 30 %
2858 18-04-2020 20:12:17 16.5 C 30 %
2859 18-04-2020 20:22:17 15.9 C 31 %
2860 18-04-2020 20:32:17 15 C 32 %
2861 18-04-2020 20:42:17 14.8 C 34 %
2862 18-04-2020 20:52:17 14.5 C 34 %
2863 18-04-2020 21:02:18 14.5 C 35 %
2864 18-04-2020 21:12:18 14.9 C 34 %
2865 18-04-2020 21:22:17 15 C 33 %
2866 18-04-2020 21:32:17 15.1 C 33 %
2867 18-04-2020 21:42:17 15 C 33 %
2868 18-04-2020 21:52:18 14.8 C 34 %
2869 18-04-2020 22:02:17 14.4 C 34 %
2870 18-04-2020 22:12:17 14.5 C 35 %
2871 18-04-2020 22:22:17 13.7 C 35 %
2872 18-04-2020 22:32:18 13.4 C 36 %
2873 18-04-2020 22:42:18 12.8 C 37 %
2874 18-04-2020 22:52:17 12.8 C 37 %
2875 18-04-2020 23:02:18 12.7 C 38 %
Sensor: Nr:Datum:Temp:Feuchte:
Aussen-T/F 2876 18-04-2020 23:12:18 12.3 C 38 %
2877 18-04-2020 23:22:17 12.1 C 38 %
2878 18-04-2020 23:32:17 11.7 C 40 %
2879 18-04-2020 23:42:17 11.1 C 40 %
2880 18-04-2020 23:52:17 10.9 C 42 %
2881 19-04-2020 00:02:18 10.6 C 43 %
2882 19-04-2020 00:12:18 10.7 C 43 %
2883 19-04-2020 00:22:17 10.2 C 43 %
2884 19-04-2020 00:32:17 10.2 C 43 %
2885 19-04-2020 00:42:17 10.1 C 44 %
2886 19-04-2020 00:52:17 9.8 C 44 %
2887 19-04-2020 01:02:17 9.8 C 45 %
2888 19-04-2020 01:12:17 9.9 C 45 %
2889 19-04-2020 01:22:17 9.6 C 44 %
2890 19-04-2020 01:32:17 9.6 C 45 %
2891 19-04-2020 01:42:17 9.9 C 45 %
2892 19-04-2020 01:52:17 9.5 C 45 %
2893 19-04-2020 02:02:17 9.5 C 45 %
2894 19-04-2020 02:12:18 9.6 C 45 %
2895 19-04-2020 02:22:17 9.7 C 45 %
2896 19-04-2020 02:32:17 10 C 45 %
2897 19-04-2020 02:42:17 10 C 44 %
2898 19-04-2020 02:52:17 9.8 C 45 %
2899 19-04-2020 03:02:17 9.6 C 45 %
2900 19-04-2020 03:12:17 9.3 C 44 %
Sensor: Nr:Datum:Temp:Feuchte:
Aussen-T/F 2901 19-04-2020 03:22:17 9.1 C 45 %
2902 19-04-2020 03:32:17 8.9 C 45 %
2903 19-04-2020 03:42:17 8.7 C 45 %
2904 19-04-2020 03:52:17 8.7 C 45 %
2905 19-04-2020 04:02:17 8.5 C 45 %
2906 19-04-2020 04:12:17 9.2 C 45 %
2907 19-04-2020 04:22:17 9.2 C 45 %
2908 19-04-2020 04:32:17 9.4 C 45 %
2909 19-04-2020 04:42:17 9.6 C 45 %
2910 19-04-2020 04:52:17 9.6 C 45 %
2911 19-04-2020 05:02:17 9.7 C 45 %
2912 19-04-2020 05:12:17 9.6 C 45 %
2913 19-04-2020 05:22:18 9.6 C 45 %
2914 19-04-2020 05:32:17 9.7 C 45 %
2915 19-04-2020 05:42:17 9.7 C 45 %
2916 19-04-2020 05:52:17 9.8 C 45 %
2917 19-04-2020 06:02:17 9.9 C 45 %
2918 19-04-2020 06:12:17 10.1 C 44 %
2919 19-04-2020 06:22:17 10.1 C 44 %
2920 19-04-2020 06:32:17 10.2 C 44 %
2921 19-04-2020 06:42:17 10.2 C 44 %
2922 19-04-2020 06:52:18 10.3 C 44 %
2923 19-04-2020 07:02:18 10.3 C 44 %
2924 19-04-2020 07:12:18 10.4 C 44 %
2925 19-04-2020 07:22:17 10.6 C 44 %
Sensor: Nr:Datum:Temp:Feuchte:
Aussen-T/F 2926 19-04-2020 07:32:18 10.5 C 43 %
2927 19-04-2020 07:42:18 10.6 C 43 %
2928 19-04-2020 07:52:17 10.6 C 43 %
2929 19-04-2020 08:02:17 10.7 C 43 %
2930 19-04-2020 08:12:17 11.3 C 42 %
2931 19-04-2020 08:22:17 11.5 C 41 %
2932 19-04-2020 08:32:17 12 C 40 %
2933 19-04-2020 08:42:17 12.4 C 39 %
2934 19-04-2020 08:52:17 13.2 C 37 %
2935 19-04-2020 09:02:17 12.5 C 38 %
2936 19-04-2020 09:12:18 13 C 37 %
2937 19-04-2020 09:22:18 13.2 C 36 %
2938 19-04-2020 09:32:17 13.5 C 36 %
2939 19-04-2020 09:42:17 13.8 C 36 %
2940 19-04-2020 09:52:17 13.8 C 35 %
2941 19-04-2020 10:02:17 13.7 C 35 %
2942 19-04-2020 10:12:17 14.2 C 35 %
2943 19-04-2020 10:22:17 14.7 C 34 %
2944 19-04-2020 10:32:17 15.5 C 33 %
2945 19-04-2020 10:42:17 16.4 C 31 %
2946 19-04-2020 10:52:17 16.4 C 31 %
2947 19-04-2020 11:02:17 15.7 C 32 %
2948 19-04-2020 11:12:17 14.7 C 33 %
2949 19-04-2020 11:22:17 14.7 C 33 %
2950 19-04-2020 11:32:17 14.4 C 34 %
Sensor: Nr:Datum:Temp:Feuchte:
Aussen-T/F 2951 19-04-2020 11:42:17 14 C 34 %
2952 19-04-2020 11:52:17 13.8 C 35 %
2953 19-04-2020 12:02:17 14.2 C 34 %
2954 19-04-2020 12:12:17 14.7 C 34 %
2955 19-04-2020 12:22:17 16 C 31 %
2956 19-04-2020 12:32:18 16 C 31 %
2957 19-04-2020 12:42:18 16.3 C 30 %
2958 19-04-2020 12:52:17 16.9 C 30 %
2959 19-04-2020 13:02:17 17.4 C 28 %
2960 19-04-2020 13:12:17 16.9 C 29 %
2961 19-04-2020 13:22:17 17.4 C 27 %
2962 19-04-2020 13:32:17 18.8 C 26 %
2963 19-04-2020 13:42:17 19.1 C 25 %
2964 19-04-2020 13:52:17 19.3 C 25 %
2965 19-04-2020 14:02:18 18.8 C 25 %
2966 19-04-2020 14:12:18 18.6 C 25 %
2967 19-04-2020 14:22:17 18.1 C 25 %
2968 19-04-2020 14:32:17 17.4 C 26 %
2969 19-04-2020 14:42:17 18 C 26 %
2970 19-04-2020 14:52:17 17.1 C 26 %
2971 19-04-2020 15:02:18 16.9 C 26 %
2972 19-04-2020 15:12:18 16.6 C 26 %
2973 19-04-2020 15:22:17 17 C 25 %
2974 19-04-2020 15:32:17 17.2 C 25 %
2975 19-04-2020 15:42:18 17.8 C 25 %
Sensor: Nr:Datum:Temp:Feuchte:
Aussen-T/F 2976 19-04-2020 15:52:18 18.1 C 24 %
2977 19-04-2020 16:02:17 19.2 C 22 %
2978 19-04-2020 16:12:17 22.2 C 20 %
2979 19-04-2020 16:22:17 20.2 C 20 %
2980 19-04-2020 16:32:17 18.6 C 20 %
2981 19-04-2020 16:42:17 20.5 C 20 %
2982 19-04-2020 16:52:17 21.3 C 20 %
2983 19-04-2020 17:02:17 17.5 C 20 %
2984 19-04-2020 17:12:17 18.6 C 20 %
2985 19-04-2020 17:22:17 19.7 C 20 %
2986 19-04-2020 17:32:18 18.9 C 20 %
2987 19-04-2020 17:42:18 19.2 C 20 %
2988 19-04-2020 17:52:17 18.6 C 20 %
2989 19-04-2020 18:02:18 17.4 C 20 %
2990 19-04-2020 18:12:18 17.3 C 20 %
2991 19-04-2020 18:22:17 17.3 C 20 %
2992 19-04-2020 18:32:17 17.3 C 20 %
2993 19-04-2020 18:42:17 16.8 C 20 %
2994 19-04-2020 18:52:17 16.8 C 20 %
2995 19-04-2020 19:02:17 16.8 C 20 %
2996 19-04-2020 19:12:17 16.7 C 20 %
2997 19-04-2020 19:22:17 16.3 C 20 %
2998 19-04-2020 19:32:18 16 C 20 %
2999 19-04-2020 19:42:18 15.6 C 20 %
3000 19-04-2020 19:52:17 15.1 C 20 %
Sensor: Nr:Datum:Temp:Feuchte:
Aussen-T/F 3001 19-04-2020 20:02:18 14.7 C 20 %
3002 19-04-2020 20:12:18 13.7 C 23 %
3003 19-04-2020 20:22:17 13.3 C 24 %
3004 19-04-2020 20:32:17 13 C 25 %
3005 19-04-2020 20:42:17 12.5 C 26 %
3006 19-04-2020 20:52:17 12.3 C 26 %
3007 19-04-2020 21:02:18 12 C 26 %
3008 19-04-2020 21:12:18 12 C 26 %
3009 19-04-2020 21:22:17 11.7 C 27 %
3010 19-04-2020 21:32:17 11.5 C 27 %
3011 19-04-2020 21:42:17 11.4 C 27 %
3012 19-04-2020 21:52:17 11 C 27 %
3013 19-04-2020 22:02:17 11.2 C 26 %
3014 19-04-2020 22:12:17 11 C 26 %
3015 19-04-2020 22:22:17 11.1 C 26 %
3016 19-04-2020 22:32:17 10.9 C 26 %
3017 19-04-2020 22:42:17 10.3 C 26 %
3018 19-04-2020 22:52:17 10.2 C 26 %
3019 19-04-2020 23:02:18 11.1 C 25 %
3020 19-04-2020 23:12:18 10.1 C 25 %
3021 19-04-2020 23:22:18 9.7 C 27 %
3022 19-04-2020 23:32:17 10.3 C 22 %
3023 19-04-2020 23:42:17 10.3 C 25 %
3024 19-04-2020 23:52:17 10.3 C 23 %
3025 20-04-2020 00:02:17 10.1 C 25 %
Sensor: Nr:Datum:Temp:Feuchte:
Aussen-T/F 3026 20-04-2020 00:12:17 9.6 C 25 %
3027 20-04-2020 00:22:17 10.1 C 21 %
3028 20-04-2020 00:32:18 9.9 C 23 %
3029 20-04-2020 00:42:18 9.6 C 25 %
3030 20-04-2020 00:52:18 9.3 C 25 %
3031 20-04-2020 01:02:17 9.8 C 23 %
3032 20-04-2020 01:12:17 9.3 C 23 %
3033 20-04-2020 01:22:17 9.1 C 21 %
3034 20-04-2020 01:32:17 9.6 C 21 %
3035 20-04-2020 01:42:17 9.1 C 21 %
3036 20-04-2020 01:52:17 8.5 C 25 %
3037 20-04-2020 02:02:18 8.1 C 26 %
3038 20-04-2020 02:12:18 7.9 C 26 %
3039 20-04-2020 02:22:17 7.5 C 27 %
3040 20-04-2020 02:32:18 7.3 C 27 %
3041 20-04-2020 02:42:18 7.3 C 27 %
3042 20-04-2020 02:52:17 7.3 C 27 %
3043 20-04-2020 03:02:17 7 C 27 %
3044 20-04-2020 03:12:17 6.9 C 28 %
3045 20-04-2020 03:22:17 6.7 C 29 %
3046 20-04-2020 03:32:17 6.9 C 28 %
3047 20-04-2020 03:42:17 6.9 C 28 %
3048 20-04-2020 03:52:17 6.7 C 29 %
3049 20-04-2020 04:02:17 6.6 C 28 %
3050 20-04-2020 04:12:17 6.5 C 28 %
Sensor: Nr:Datum:Temp:Feuchte:
Aussen-T/F 3051 20-04-2020 04:22:17 6.4 C 29 %
3052 20-04-2020 04:32:18 6.4 C 28 %
3053 20-04-2020 04:42:18 6.4 C 28 %
3054 20-04-2020 04:52:17 6.2 C 29 %
3055 20-04-2020 05:02:18 6.4 C 29 %
3056 20-04-2020 05:12:18 6.3 C 29 %
3057 20-04-2020 05:22:17 6.3 C 29 %
3058 20-04-2020 05:32:17 6.2 C 30 %
3059 20-04-2020 05:42:18 6.3 C 29 %
3060 20-04-2020 05:52:17 6.3 C 29 %
3061 20-04-2020 06:02:18 6 C 30 %
3062 20-04-2020 06:12:18 5.9 C 30 %
3063 20-04-2020 06:22:17 5.9 C 30 %
3064 20-04-2020 06:32:17 6.1 C 30 %
3065 20-04-2020 06:42:17 6.1 C 30 %
3066 20-04-2020 06:52:17 5.9 C 30 %
3067 20-04-2020 07:02:17 6.1 C 30 %
3068 20-04-2020 07:12:17 6.2 C 30 %
3069 20-04-2020 07:22:17 6.2 C 30 %
3070 20-04-2020 07:32:17 6.4 C 30 %
3071 20-04-2020 07:42:17 7.2 C 27 %
3072 20-04-2020 07:52:17 7.4 C 27 %
3073 20-04-2020 08:02:18 7.3 C 27 %
3074 20-04-2020 08:12:18 7.9 C 26 %
3075 20-04-2020 08:22:17 7.8 C 27 %
Sensor: Nr:Datum:Temp:Feuchte:
Aussen-T/F 3076 20-04-2020 08:32:17 7.7 C 28 %
3077 20-04-2020 08:42:18 7.9 C 26 %
3078 20-04-2020 08:52:18 8.1 C 26 %
3079 20-04-2020 09:02:17 8.3 C 26 %
3080 20-04-2020 09:12:17 8.2 C 27 %
3081 20-04-2020 09:22:17 8.4 C 27 %
3082 20-04-2020 09:32:17 9 C 25 %
3083 20-04-2020 09:42:17 9.4 C 25 %
3084 20-04-2020 09:52:18 9.4 C 26 %
3085 20-04-2020 10:02:18 9.9 C 26 %
3086 20-04-2020 10:12:18 10.7 C 22 %
3087 20-04-2020 10:22:17 11.4 C 20 %
3088 20-04-2020 10:32:17 12.1 C 20 %
3089 20-04-2020 10:42:18 12.7 C 20 %
3090 20-04-2020 10:52:17 13.1 C 20 %
3091 20-04-2020 11:02:18 13.7 C 20 %
3092 20-04-2020 11:12:18 14 C 20 %
3093 20-04-2020 11:22:17 14.4 C 20 %
3094 20-04-2020 11:32:17 14.7 C 20 %
3095 20-04-2020 11:42:18 14.8 C 20 %
3096 20-04-2020 11:52:17 15 C 20 %
3097 20-04-2020 12:02:17 15.2 C 20 %
3098 20-04-2020 12:12:17 15 C 20 %
3099 20-04-2020 12:22:17 15 C 20 %
3100 20-04-2020 12:32:17 15.1 C 20 %
Sensor: Nr:Datum:Temp:Feuchte:
Aussen-T/F 3101 20-04-2020 12:42:17 15.1 C 20 %
3102 20-04-2020 12:52:17 15.4 C 20 %
3103 20-04-2020 13:02:17 15.4 C 20 %
3104 20-04-2020 13:12:17 16 C 20 %
3105 20-04-2020 13:22:17 15.8 C 20 %
3106 20-04-2020 13:32:17 16.1 C 20 %
3107 20-04-2020 13:42:17 16.1 C 20 %
3108 20-04-2020 13:52:17 16.8 C 20 %
3109 20-04-2020 14:02:17 16.9 C 20 %
3110 20-04-2020 14:12:17 17.3 C 20 %
3111 20-04-2020 14:22:17 18.3 C 20 %
3112 20-04-2020 14:32:18 21 C 20 %
3113 20-04-2020 14:42:18 23 C 20 %
3114 20-04-2020 14:52:18 23.2 C 20 %
3115 20-04-2020 15:02:17 22.9 C 20 %
3116 20-04-2020 15:12:17 21.8 C 20 %
3117 20-04-2020 15:22:17 22.9 C 20 %
3118 20-04-2020 15:32:17 23.3 C 20 %
3119 20-04-2020 15:42:17 24.7 C 20 %
3120 20-04-2020 15:52:17 22.5 C 20 %
3121 20-04-2020 16:02:17 24.5 C 20 %
3122 20-04-2020 16:12:17 22.7 C 20 %
3123 20-04-2020 16:22:17 23 C 20 %
3124 20-04-2020 16:32:17 23.5 C 20 %
3125 20-04-2020 16:42:17 23.6 C 20 %
Sensor: Nr:Datum:Temp:Feuchte:
Aussen-T/F 3126 20-04-2020 16:52:17 23.4 C 20 %
3127 20-04-2020 17:02:17 23.7 C 20 %
3128 20-04-2020 17:12:17 22.3 C 20 %
3129 20-04-2020 17:22:17 21.6 C 20 %
3130 20-04-2020 17:32:17 20.4 C 20 %
3131 20-04-2020 17:42:17 22.4 C 20 %
3132 20-04-2020 17:52:17 20.9 C 20 %
3133 20-04-2020 18:02:18 19.1 C 20 %
3134 20-04-2020 18:12:18 19 C 20 %
3135 20-04-2020 18:22:18 18.5 C 20 %
3136 20-04-2020 18:32:17 18.4 C 20 %
3137 20-04-2020 18:42:18 18.2 C 20 %
3138 20-04-2020 18:52:18 18.3 C 20 %
3139 20-04-2020 19:02:17 17.8 C 20 %
3140 20-04-2020 19:12:17 17.6 C 20 %
3141 20-04-2020 19:22:17 17.2 C 20 %
3142 20-04-2020 19:32:17 17 C 20 %
3143 20-04-2020 19:42:17 16.6 C 20 %
3144 20-04-2020 19:52:17 16.3 C 20 %
3145 20-04-2020 20:02:17 16 C 20 %
3146 20-04-2020 20:12:17 15.6 C 20 %
3147 20-04-2020 20:22:17 15 C 20 %
3148 20-04-2020 20:32:17 14.4 C 20 %
3149 20-04-2020 20:42:17 14.5 C 20 %
3150 20-04-2020 20:52:17 13.8 C 20 %
Sensor: Nr:Datum:Temp:Feuchte:
Aussen-T/F 3151 20-04-2020 21:02:17 13.7 C 20 %
3152 20-04-2020 21:12:17 12.9 C 20 %
3153 20-04-2020 21:22:17 12.6 C 20 %
3154 20-04-2020 21:32:17 12 C 20 %
3155 20-04-2020 21:42:17 12.2 C 20 %
3156 20-04-2020 21:52:17 12.6 C 20 %
3157 20-04-2020 22:02:17 11.8 C 20 %
3158 20-04-2020 22:12:17 11.9 C 20 %
3159 20-04-2020 22:22:17 12.1 C 20 %
3160 20-04-2020 22:32:17 12.2 C 20 %
3161 20-04-2020 22:42:17 11.9 C 20 %
3162 20-04-2020 22:52:18 11.5 C 20 %
3163 20-04-2020 23:02:17 11.5 C 20 %
3164 20-04-2020 23:12:17 11.6 C 20 %
3165 20-04-2020 23:22:17 11 C 20 %
3166 20-04-2020 23:32:18 11.6 C 20 %
3167 20-04-2020 23:42:18 11 C 20 %
3168 20-04-2020 23:52:17 11 C 20 %
3169 21-04-2020 00:02:17 10.9 C 20 %
3170 21-04-2020 00:12:17 10.3 C 20 %
3171 21-04-2020 00:22:17 10.4 C 20 %
3172 21-04-2020 00:32:17 9.9 C 20 %
3173 21-04-2020 00:42:17 10.5 C 20 %
3174 21-04-2020 00:52:17 10 C 20 %
3175 21-04-2020 01:02:18 9.4 C 20 %
Sensor: Nr:Datum:Temp:Feuchte:
Aussen-T/F 3176 21-04-2020 01:12:18 8.9 C 20 %
3177 21-04-2020 01:22:18 9 C 20 %
3178 21-04-2020 01:32:18 8.9 C 20 %
3179 21-04-2020 01:42:18 9.2 C 20 %
3180 21-04-2020 01:52:17 8.4 C 20 %
3181 21-04-2020 02:02:17 9.2 C 20 %
3182 21-04-2020 02:12:18 9.1 C 20 %
3183 21-04-2020 02:22:17 9.1 C 20 %
3184 21-04-2020 02:32:18 8.9 C 20 %
3185 21-04-2020 02:42:18 9.2 C 20 %
3186 21-04-2020 02:52:17 9 C 20 %
3187 21-04-2020 03:02:17 9.3 C 20 %
3188 21-04-2020 03:12:17 9.1 C 20 %
3189 21-04-2020 03:22:18 9.2 C 20 %
3190 21-04-2020 03:32:17 9.1 C 20 %
3191 21-04-2020 03:42:17 8.3 C 20 %
3192 21-04-2020 03:52:18 8.6 C 20 %
3193 21-04-2020 04:02:18 8.1 C 20 %
3194 21-04-2020 04:12:18 7.4 C 23 %
3195 21-04-2020 04:22:17 7.8 C 20 %
3196 21-04-2020 04:32:17 7.7 C 23 %
3197 21-04-2020 04:42:17 7.5 C 25 %
3198 21-04-2020 04:52:17 7.5 C 25 %
3199 21-04-2020 05:02:17 7.1 C 25 %
3200 21-04-2020 05:12:17 7.7 C 25 %
Sensor: Nr:Datum:Temp:Feuchte:
Aussen-T/F 3201 21-04-2020 05:22:17 7.3 C 25 %
3202 21-04-2020 05:32:18 7 C 25 %
3203 21-04-2020 05:42:18 6.8 C 26 %
3204 21-04-2020 05:52:17 6.5 C 27 %
3205 21-04-2020 06:02:17 6.9 C 27 %
3206 21-04-2020 06:12:17 6.6 C 27 %
3207 21-04-2020 06:22:18 6.6 C 27 %
3208 21-04-2020 06:32:18 6.3 C 28 %
3209 21-04-2020 06:42:18 6.4 C 28 %
3210 21-04-2020 06:52:17 6.3 C 29 %
3211 21-04-2020 07:02:18 6.1 C 30 %
3212 21-04-2020 07:12:18 6.2 C 29 %
3213 21-04-2020 07:22:17 6.3 C 30 %
3214 21-04-2020 07:32:17 6.5 C 30 %
3215 21-04-2020 07:42:17 7.3 C 27 %
3216 21-04-2020 07:52:17 6.9 C 29 %
3217 21-04-2020 08:02:17 7.4 C 27 %
3218 21-04-2020 08:12:17 7.7 C 26 %
3219 21-04-2020 08:22:17 7.6 C 26 %
3220 21-04-2020 08:32:17 7.2 C 28 %
3221 21-04-2020 08:42:18 7.5 C 27 %
3222 21-04-2020 08:52:17 8.3 C 27 %
3223 21-04-2020 09:02:17 8.7 C 25 %
3224 21-04-2020 09:12:17 9.2 C 23 %
3225 21-04-2020 09:22:17 9.7 C 21 %
Sensor: Nr:Datum:Temp:Feuchte:
Aussen-T/F 3226 21-04-2020 09:32:17 10.2 C 20 %
3227 21-04-2020 09:42:17 10.7 C 20 %
3228 21-04-2020 09:52:17 10.9 C 20 %
3229 21-04-2020 10:02:17 10.9 C 20 %
3230 21-04-2020 10:12:17 11.7 C 20 %
3231 21-04-2020 10:22:17 12.2 C 20 %
3232 21-04-2020 10:32:17 12.8 C 20 %
3233 21-04-2020 10:42:17 13.2 C 20 %
3234 21-04-2020 10:52:17 13.5 C 20 %
3235 21-04-2020 11:02:17 13.9 C 20 %
3236 21-04-2020 11:12:17 14.6 C 20 %
3237 21-04-2020 11:22:17 14.6 C 20 %
3238 21-04-2020 11:32:18 14.7 C 20 %
3239 21-04-2020 11:42:18 15.2 C 20 %
3240 21-04-2020 11:52:18 15.7 C 20 %
3241 21-04-2020 12:02:17 16.4 C 20 %
3242 21-04-2020 12:12:18 16.1 C 20 %
3243 21-04-2020 12:22:17 16.1 C 20 %
3244 21-04-2020 12:32:17 16.2 C 20 %
3245 21-04-2020 12:42:17 16.4 C 20 %
3246 21-04-2020 12:52:17 16.6 C 20 %
3247 21-04-2020 13:02:17 16.9 C 20 %
3248 21-04-2020 13:12:17 17.4 C 20 %
3249 21-04-2020 13:22:17 17.2 C 20 %
3250 21-04-2020 13:32:17 17.3 C 20 %
Sensor: Nr:Datum:Temp:Feuchte:
Aussen-T/F 3251 21-04-2020 13:42:17 17.9 C 20 %
3252 21-04-2020 13:52:17 18.1 C 20 %
3253 21-04-2020 14:02:17 18.5 C 20 %
3254 21-04-2020 14:12:17 19 C 20 %
3255 21-04-2020 14:22:17 19.4 C 20 %
3256 21-04-2020 14:32:17 22 C 20 %
3257 21-04-2020 14:42:17 24.4 C 20 %
3258 21-04-2020 14:52:17 24.2 C 20 %
3259 21-04-2020 15:02:17 24.5 C 20 %
3260 21-04-2020 15:12:17 22.2 C 20 %
3261 21-04-2020 15:22:17 23.7 C 20 %
3262 21-04-2020 15:32:18 23.2 C 20 %
3263 21-04-2020 15:42:18 24 C 20 %
3264 21-04-2020 15:52:17 23.4 C 20 %
3265 21-04-2020 16:02:18 22.8 C 20 %
3266 21-04-2020 16:12:18 23.2 C 20 %
3267 21-04-2020 16:22:17 22.9 C 20 %
3268 21-04-2020 16:32:17 23.2 C 20 %
3269 21-04-2020 16:42:17 24.3 C 20 %
3270 21-04-2020 16:52:17 22.8 C 20 %
3271 21-04-2020 17:02:17 23.6 C 20 %
3272 21-04-2020 17:12:17 24.8 C 20 %
3273 21-04-2020 17:22:18 22.8 C 20 %
3274 21-04-2020 17:32:17 21.9 C 20 %
3275 21-04-2020 17:42:17 22.3 C 20 %
Sensor: Nr:Datum:Temp:Feuchte:
Aussen-T/F 3276 21-04-2020 17:52:17 22.9 C 20 %
3277 21-04-2020 18:02:18 21.1 C 20 %
3278 21-04-2020 18:12:18 20.9 C 20 %
3279 21-04-2020 18:22:17 20.5 C 20 %
3280 21-04-2020 18:32:17 20.3 C 20 %
3281 21-04-2020 18:42:17 20 C 20 %
3282 21-04-2020 18:52:18 20 C 20 %
3283 21-04-2020 19:02:17 19.6 C 20 %
3284 21-04-2020 19:12:17 19.4 C 20 %
3285 21-04-2020 19:22:17 19.1 C 20 %
3286 21-04-2020 19:32:18 18.9 C 20 %
3287 21-04-2020 19:42:18 18.7 C 20 %
3288 21-04-2020 19:52:17 18.3 C 20 %
3289 21-04-2020 20:02:17 17.9 C 20 %
3290 21-04-2020 20:12:17 17.4 C 20 %
3291 21-04-2020 20:22:17 16.7 C 20 %
3292 21-04-2020 20:32:17 16.2 C 20 %
3293 21-04-2020 20:42:17 15.5 C 20 %
3294 21-04-2020 20:52:17 14.8 C 20 %
3295 21-04-2020 21:02:18 14.2 C 20 %
3296 21-04-2020 21:12:18 14.5 C 20 %
3297 21-04-2020 21:22:17 14.1 C 20 %
3298 21-04-2020 21:32:17 13.9 C 20 %
3299 21-04-2020 21:42:17 13.2 C 20 %
3300 21-04-2020 21:52:18 12.9 C 20 %
Sensor: Nr:Datum:Temp:Feuchte:
Aussen-T/F 3301 21-04-2020 22:02:17 13.2 C 20 %
3302 21-04-2020 22:12:17 13 C 20 %
3303 21-04-2020 22:22:17 13.4 C 20 %
3304 21-04-2020 22:32:17 12.6 C 20 %
3305 21-04-2020 22:42:17 12 C 20 %
3306 21-04-2020 22:52:18 11.8 C 20 %
3307 21-04-2020 23:02:18 12.1 C 20 %
3308 21-04-2020 23:12:18 11.8 C 20 %
3309 21-04-2020 23:22:17 11.5 C 20 %
3310 21-04-2020 23:32:18 11.3 C 20 %
3311 21-04-2020 23:42:18 11.3 C 20 %
3312 21-04-2020 23:52:18 11.1 C 20 %
3313 22-04-2020 00:02:18 11.1 C 20 %
3314 22-04-2020 00:12:18 10.6 C 20 %
3315 22-04-2020 00:22:17 11.1 C 20 %
3316 22-04-2020 00:32:18 11.4 C 20 %
3317 22-04-2020 00:42:18 10.9 C 20 %
3318 22-04-2020 00:52:17 11 C 20 %
3319 22-04-2020 01:02:17 10.8 C 20 %
3320 22-04-2020 01:12:17 10 C 21 %
3321 22-04-2020 01:22:17 9.9 C 25 %
3322 22-04-2020 01:32:18 9.7 C 25 %
3323 22-04-2020 01:42:18 10.2 C 21 %
3324 22-04-2020 01:52:17 9.9 C 23 %
3325 22-04-2020 02:02:17 9.9 C 23 %
Sensor: Nr:Datum:Temp:Feuchte:
Aussen-T/F 3326 22-04-2020 02:12:17 9.8 C 25 %
3327 22-04-2020 02:22:17 9.5 C 25 %
3328 22-04-2020 02:32:17 9.3 C 25 %
3329 22-04-2020 02:42:17 9.7 C 25 %
3330 22-04-2020 02:52:17 9.3 C 25 %
3331 22-04-2020 03:02:17 9.5 C 25 %
3332 22-04-2020 03:12:17 9 C 25 %
3333 22-04-2020 03:22:18 8.8 C 26 %
3334 22-04-2020 03:32:18 8.5 C 27 %
3335 22-04-2020 03:42:18 8.4 C 27 %
3336 22-04-2020 03:52:17 8.3 C 27 %
3337 22-04-2020 04:02:18 8.4 C 27 %
3338 22-04-2020 04:12:18 8.3 C 27 %
3339 22-04-2020 04:22:17 8 C 27 %
3340 22-04-2020 04:32:18 7.9 C 27 %
3341 22-04-2020 04:42:18 7.9 C 27 %
3342 22-04-2020 04:52:17 7.4 C 28 %
3343 22-04-2020 05:02:18 7.5 C 28 %
3344 22-04-2020 05:12:18 7.3 C 28 %
3345 22-04-2020 05:22:17 7.1 C 29 %
3346 22-04-2020 05:32:17 7.1 C 29 %
3347 22-04-2020 05:42:18 6.9 C 30 %
3348 22-04-2020 05:52:17 6.7 C 30 %
3349 22-04-2020 06:02:18 6.7 C 30 %
3350 22-04-2020 06:12:18 6.1 C 31 %
Sensor: Nr:Datum:Temp:Feuchte:
Aussen-T/F 3351 22-04-2020 06:22:17 5.8 C 32 %
3352 22-04-2020 06:32:17 5.6 C 33 %
3353 22-04-2020 06:42:17 5.3 C 35 %
3354 22-04-2020 06:52:17 5.6 C 35 %
3355 22-04-2020 07:02:17 5.6 C 35 %
3356 22-04-2020 07:12:17 5.4 C 35 %
3357 22-04-2020 07:22:18 5.9 C 35 %
3358 22-04-2020 07:32:17 5.5 C 35 %
3359 22-04-2020 07:42:17 5.7 C 35 %
3360 22-04-2020 07:52:17 5.9 C 35 %
3361 22-04-2020 08:02:17 6.5 C 34 %
3362 22-04-2020 08:12:17 6.6 C 34 %
3363 22-04-2020 08:22:17 7 C 33 %
3364 22-04-2020 08:32:17 7.5 C 32 %
3365 22-04-2020 08:42:17 8 C 31 %
3366 22-04-2020 08:52:18 8.9 C 30 %
3367 22-04-2020 09:02:18 9.1 C 30 %
3368 22-04-2020 09:12:18 9.1 C 30 %
3369 22-04-2020 09:22:17 10.1 C 26 %
3370 22-04-2020 09:32:17 10.7 C 26 %
3371 22-04-2020 09:42:17 10.7 C 26 %
3372 22-04-2020 09:52:17 11.3 C 24 %
3373 22-04-2020 10:02:17 11.5 C 24 %
3374 22-04-2020 10:12:17 12.5 C 20 %
3375 22-04-2020 10:22:17 13 C 20 %
Sensor: Nr:Datum:Temp:Feuchte:
Aussen-T/F 3376 22-04-2020 10:32:17 13.7 C 20 %
3377 22-04-2020 10:42:17 14.2 C 20 %
3378 22-04-2020 10:52:17 14.8 C 20 %
3379 22-04-2020 11:02:17 15.4 C 20 %
3380 22-04-2020 11:12:17 15.7 C 20 %
3381 22-04-2020 11:22:17 16.2 C 20 %
3382 22-04-2020 11:32:17 16.4 C 20 %
3383 22-04-2020 11:42:17 17.1 C 20 %
3384 22-04-2020 11:52:18 17.1 C 20 %
3385 22-04-2020 12:02:18 17.9 C 20 %
3386 22-04-2020 12:12:18 17.6 C 20 %
3387 22-04-2020 12:22:17 17.7 C 20 %
3388 22-04-2020 12:32:17 17.7 C 20 %
3389 22-04-2020 12:42:17 17.7 C 20 %
3390 22-04-2020 12:52:18 18 C 20 %
3391 22-04-2020 13:02:17 18.6 C 20 %
3392 22-04-2020 13:12:17 19.3 C 20 %
3393 22-04-2020 13:22:17 19 C 20 %
3394 22-04-2020 13:32:17 18.9 C 20 %
3395 22-04-2020 13:42:17 19.1 C 20 %
3396 22-04-2020 13:52:17 19.4 C 20 %
3397 22-04-2020 14:02:17 19.8 C 20 %
3398 22-04-2020 14:12:17 20.3 C 20 %
3399 22-04-2020 14:22:17 21.2 C 20 %
3400 22-04-2020 14:32:17 25.4 C 20 %
Sensor: Nr:Datum:Temp:Feuchte:
Aussen-T/F 3401 22-04-2020 14:42:17 27.1 C 20 %
3402 22-04-2020 14:52:17 25.8 C 20 %
3403 22-04-2020 15:02:17 24.9 C 20 %
3404 22-04-2020 15:12:18 26.4 C 20 %
3405 22-04-2020 15:22:17 27.6 C 20 %
3406 22-04-2020 15:32:17 27 C 20 %
3407 22-04-2020 15:42:17 25.4 C 20 %
3408 22-04-2020 15:52:17 25.7 C 20 %
3409 22-04-2020 16:02:17 25.3 C 20 %
3410 22-04-2020 16:12:17 27.2 C 20 %
3411 22-04-2020 16:22:17 26.8 C 20 %
3412 22-04-2020 16:32:18 27.7 C 20 %
3413 22-04-2020 16:42:18 25.2 C 20 %
3414 22-04-2020 16:52:17 26.3 C 20 %
3415 22-04-2020 17:02:17 25.2 C 20 %
3416 22-04-2020 17:12:17 24.6 C 20 %
3417 22-04-2020 17:22:17 25.1 C 20 %
3418 22-04-2020 17:32:17 25.5 C 20 %
3419 22-04-2020 17:42:17 25.6 C 20 %
3420 22-04-2020 17:52:17 25.2 C 20 %
3421 22-04-2020 18:02:17 23.1 C 20 %
3422 22-04-2020 18:12:17 22 C 20 %
3423 22-04-2020 18:22:17 22.1 C 20 %
3424 22-04-2020 18:32:17 21.9 C 20 %
3425 22-04-2020 18:42:17 21.9 C 20 %
Sensor: Nr:Datum:Temp:Feuchte:
Aussen-T/F 3426 22-04-2020 18:52:17 21.6 C 20 %
3427 22-04-2020 19:02:17 21.1 C 20 %
3428 22-04-2020 19:12:17 21.2 C 20 %
3429 22-04-2020 19:22:17 20.8 C 20 %
3430 22-04-2020 19:32:18 20.4 C 20 %
3431 22-04-2020 19:42:18 20.3 C 20 %
3432 22-04-2020 19:52:17 20 C 20 %
3433 22-04-2020 20:02:18 19.4 C 20 %
3434 22-04-2020 20:12:18 18.4 C 20 %
3435 22-04-2020 20:22:17 17 C 20 %
3436 22-04-2020 20:32:17 16.3 C 20 %
3437 22-04-2020 20:42:17 16.2 C 20 %
3438 22-04-2020 20:52:17 15.9 C 20 %
3439 22-04-2020 21:02:17 15.7 C 20 %
3440 22-04-2020 21:12:17 15 C 20 %
3441 22-04-2020 21:22:17 14.6 C 20 %
3442 22-04-2020 21:32:17 14.4 C 20 %
3443 22-04-2020 21:42:17 14.4 C 20 %
3444 22-04-2020 21:52:17 14.1 C 20 %
3445 22-04-2020 22:02:17 13.7 C 20 %
3446 22-04-2020 22:12:17 13.8 C 20 %
3447 22-04-2020 22:22:17 14.2 C 20 %
3448 22-04-2020 22:32:17 13.6 C 20 %
3449 22-04-2020 22:42:17 13.5 C 20 %
3450 22-04-2020 22:52:18 13.5 C 20 %
Sensor: Nr:Datum:Temp:Feuchte:
Aussen-T/F 3451 22-04-2020 23:02:17 13.7 C 20 %
3452 22-04-2020 23:12:17 13.5 C 20 %
3453 22-04-2020 23:22:17 13.2 C 20 %
3454 22-04-2020 23:32:17 12.9 C 20 %
3455 22-04-2020 23:42:17 13.2 C 20 %
3456 22-04-2020 23:52:18 12.8 C 20 %
3457 23-04-2020 00:02:17 12.6 C 20 %
3458 23-04-2020 00:12:17 12.4 C 20 %
3459 23-04-2020 00:22:17 12.4 C 20 %
3460 23-04-2020 00:32:17 12.2 C 20 %
3461 23-04-2020 00:42:17 12.2 C 20 %
3462 23-04-2020 00:52:17 12.3 C 20 %
3463 23-04-2020 01:02:17 12.1 C 20 %
3464 23-04-2020 01:12:17 11.9 C 20 %
3465 23-04-2020 01:22:18 11 C 20 %
3466 23-04-2020 01:32:17 12 C 20 %
3467 23-04-2020 01:42:17 10.9 C 20 %
3468 23-04-2020 01:52:17 10.5 C 22 %
3469 23-04-2020 02:02:17 9.7 C 25 %
3470 23-04-2020 02:12:17 9.7 C 26 %
3471 23-04-2020 02:22:18 9.7 C 25 %
3472 23-04-2020 02:32:17 9.8 C 26 %
3473 23-04-2020 02:42:17 9.6 C 25 %
3474 23-04-2020 02:52:17 9.3 C 26 %
3475 23-04-2020 03:02:18 9.2 C 26 %
Sensor: Nr:Datum:Temp:Feuchte:
Aussen-T/F 3476 23-04-2020 03:12:18 9.2 C 26 %
3477 23-04-2020 03:22:17 9.4 C 26 %
3478 23-04-2020 03:32:17 9.4 C 26 %
3479 23-04-2020 03:42:17 9.3 C 26 %
3480 23-04-2020 03:52:17 9.1 C 26 %
3481 23-04-2020 04:02:17 8.6 C 27 %
3482 23-04-2020 04:12:17 8.1 C 29 %
3483 23-04-2020 04:22:17 7.5 C 30 %
3484 23-04-2020 04:32:17 7.2 C 32 %
3485 23-04-2020 04:42:17 7.2 C 32 %
3486 23-04-2020 04:52:17 6.9 C 33 %
3487 23-04-2020 05:02:17 6.4 C 34 %
3488 23-04-2020 05:12:17 6.2 C 34 %
3489 23-04-2020 05:22:17 5.9 C 35 %
3490 23-04-2020 05:32:17 6 C 35 %
3491 23-04-2020 05:42:17 6 C 35 %
3492 23-04-2020 05:52:17 5.8 C 36 %
3493 23-04-2020 06:02:17 5.8 C 36 %
3494 23-04-2020 06:12:18 5.4 C 36 %
3495 23-04-2020 06:22:17 5.4 C 36 %
3496 23-04-2020 06:32:18 5.3 C 36 %
3497 23-04-2020 06:42:18 5.3 C 36 %
3498 23-04-2020 06:52:17 5.3 C 36 %
3499 23-04-2020 07:02:17 5.3 C 37 %
3500 23-04-2020 07:12:17 5.3 C 37 %
Sensor: Nr:Datum:Temp:Feuchte:
Aussen-T/F 3501 23-04-2020 07:22:17 5.2 C 37 %
3502 23-04-2020 07:32:17 5.2 C 39 %
3503 23-04-2020 07:42:17 5.2 C 39 %
3504 23-04-2020 07:52:17 5.3 C 39 %
3505 23-04-2020 08:02:17 5.4 C 39 %
3506 23-04-2020 08:12:18 5.5 C 39 %
3507 23-04-2020 08:22:18 5.9 C 39 %
3508 23-04-2020 08:32:18 6.2 C 38 %
3509 23-04-2020 08:42:18 6.5 C 38 %
3510 23-04-2020 08:52:17 6.9 C 38 %
3511 23-04-2020 09:02:17 7.7 C 36 %
3512 23-04-2020 09:12:17 8.1 C 36 %
3513 23-04-2020 09:22:17 8.6 C 35 %
3514 23-04-2020 09:32:17 9.2 C 35 %
3515 23-04-2020 09:42:17 9.7 C 34 %
3516 23-04-2020 09:52:17 9.9 C 34 %
3517 23-04-2020 10:02:18 10.5 C 33 %
3518 23-04-2020 10:12:18 11 C 32 %
3519 23-04-2020 10:22:17 11.8 C 30 %
3520 23-04-2020 10:32:17 12.7 C 28 %
3521 23-04-2020 10:42:17 13.2 C 27 %
3522 23-04-2020 10:52:17 14.8 C 22 %
3523 23-04-2020 11:02:18 16 C 20 %
3524 23-04-2020 11:12:18 16.3 C 20 %
3525 23-04-2020 11:22:17 17.2 C 20 %
Sensor: Nr:Datum:Temp:Feuchte:
Aussen-T/F 3526 23-04-2020 11:32:17 17.4 C 20 %
3527 23-04-2020 11:42:17 17.7 C 20 %
3528 23-04-2020 11:52:18 17.9 C 20 %
3529 23-04-2020 12:02:17 18.9 C 20 %
3530 23-04-2020 12:12:17 18.2 C 20 %
3531 23-04-2020 12:22:17 18 C 20 %
3532 23-04-2020 12:32:18 18.5 C 20 %
3533 23-04-2020 12:42:18 18.3 C 20 %
3534 23-04-2020 12:52:17 18.4 C 20 %
3535 23-04-2020 13:02:17 19.2 C 20 %
3536 23-04-2020 13:12:17 19.5 C 20 %
3537 23-04-2020 13:22:17 19.1 C 20 %
3538 23-04-2020 13:32:17 19.2 C 20 %
3539 23-04-2020 13:42:17 19.7 C 20 %
3540 23-04-2020 13:52:17 20.1 C 20 %
3541 23-04-2020 14:02:17 20.4 C 20 %
3542 23-04-2020 14:12:17 20.7 C 20 %
3543 23-04-2020 14:22:17 21.6 C 20 %
3544 23-04-2020 14:32:17 27.4 C 20 %
3545 23-04-2020 14:42:17 29.1 C 20 %
3546 23-04-2020 14:52:17 29 C 20 %
3547 23-04-2020 15:02:17 29.3 C 20 %
3548 23-04-2020 15:12:17 29.5 C 20 %
3549 23-04-2020 15:22:18 28.8 C 20 %
3550 23-04-2020 15:32:17 30.3 C 20 %
Sensor: Nr:Datum:Temp:Feuchte:
Aussen-T/F 3551 23-04-2020 15:42:17 31.4 C 20 %
3552 23-04-2020 15:52:17 28.9 C 20 %
3553 23-04-2020 16:02:18 27.7 C 20 %
3554 23-04-2020 16:12:18 28.1 C 20 %
3555 23-04-2020 16:22:17 28.4 C 20 %
3556 23-04-2020 16:32:18 28.3 C 20 %
3557 23-04-2020 16:42:18 29 C 20 %
3558 23-04-2020 16:52:17 29.2 C 20 %
3559 23-04-2020 17:02:17 31.6 C 20 %
3560 23-04-2020 17:12:18 28.2 C 20 %
3561 23-04-2020 17:22:17 28.6 C 20 %
3562 23-04-2020 17:32:18 28.1 C 20 %
3563 23-04-2020 17:42:18 28 C 20 %
3564 23-04-2020 17:52:18 30.1 C 20 %
3565 23-04-2020 18:02:17 27.1 C 20 %
3566 23-04-2020 18:12:17 24.5 C 20 %
3567 23-04-2020 18:22:17 23.9 C 20 %
3568 23-04-2020 18:32:17 23.6 C 20 %
3569 23-04-2020 18:42:17 23.7 C 20 %
3570 23-04-2020 18:52:17 23.2 C 20 %
3571 23-04-2020 19:02:17 22.5 C 20 %
3572 23-04-2020 19:12:17 22.4 C 20 %
3573 23-04-2020 19:22:17 22 C 20 %
3574 23-04-2020 19:32:18 21.2 C 20 %
3575 23-04-2020 19:42:18 20 C 20 %
Sensor: Nr:Datum:Temp:Feuchte:
Aussen-T/F 3576 23-04-2020 19:52:17 18.6 C 20 %
3577 23-04-2020 20:02:18 18.6 C 20 %
3578 23-04-2020 20:12:18 17.9 C 20 %
3579 23-04-2020 20:22:17 17.2 C 20 %
3580 23-04-2020 20:32:18 16.5 C 20 %
3581 23-04-2020 20:42:18 15.5 C 20 %
3582 23-04-2020 20:52:18 14.3 C 20 %
3583 23-04-2020 21:02:18 14 C 20 %
3584 23-04-2020 21:12:18 14.1 C 20 %
3585 23-04-2020 21:22:17 13.5 C 20 %
3586 23-04-2020 21:32:17 13.1 C 20 %
3587 23-04-2020 21:42:17 12.9 C 20 %
3588 23-04-2020 21:52:17 12.5 C 20 %
3589 23-04-2020 22:02:17 12 C 23 %
3590 23-04-2020 22:12:17 11.6 C 25 %
3591 23-04-2020 22:22:17 11.5 C 25 %
3592 23-04-2020 22:32:18 11 C 26 %
3593 23-04-2020 22:42:18 11.1 C 26 %
3594 23-04-2020 22:52:18 10.8 C 26 %
3595 23-04-2020 23:02:18 10.4 C 27 %
3596 23-04-2020 23:12:18 10.3 C 27 %
3597 23-04-2020 23:22:18 9.6 C 29 %
3598 23-04-2020 23:32:17 9.6 C 29 %
3599 23-04-2020 23:42:17 9.6 C 29 %
3600 23-04-2020 23:52:17 9.2 C 30 %
Sensor: Nr:Datum:Temp:Feuchte:
Aussen-T/F 3601 24-04-2020 00:02:18 9.2 C 30 %
3602 24-04-2020 00:12:18 9.3 C 30 %
3603 24-04-2020 00:22:17 9.2 C 30 %
3604 24-04-2020 00:32:18 8.6 C 31 %
3605 24-04-2020 00:42:18 8.4 C 31 %
3606 24-04-2020 00:52:17 8.3 C 32 %
3607 24-04-2020 01:02:18 8.1 C 32 %
3608 24-04-2020 01:12:18 8.3 C 33 %
3609 24-04-2020 01:22:17 8.1 C 32 %
3610 24-04-2020 01:32:18 8.1 C 33 %
3611 24-04-2020 01:42:18 8.2 C 33 %
3612 24-04-2020 01:52:17 7.8 C 33 %
3613 24-04-2020 02:02:17 7.5 C 34 %
3614 24-04-2020 02:12:17 7.1 C 34 %
3615 24-04-2020 02:22:17 7 C 35 %
3616 24-04-2020 02:32:18 7.2 C 35 %
3617 24-04-2020 02:42:18 6.8 C 36 %
3618 24-04-2020 02:52:18 7 C 35 %
3619 24-04-2020 03:02:17 7 C 35 %
3620 24-04-2020 03:12:18 6.8 C 36 %
3621 24-04-2020 03:22:17 6.2 C 36 %
3622 24-04-2020 03:32:17 6.4 C 37 %
3623 24-04-2020 03:42:17 6.3 C 37 %
3624 24-04-2020 03:52:17 6.2 C 37 %
3625 24-04-2020 04:02:17 6.2 C 37 %
Sensor: Nr:Datum:Temp:Feuchte:
Aussen-T/F 3626 24-04-2020 04:12:17 6.1 C 37 %
3627 24-04-2020 04:22:17 6 C 37 %
3628 24-04-2020 04:32:17 5.9 C 38 %
3629 24-04-2020 04:42:17 6.2 C 38 %
3630 24-04-2020 04:52:17 6.3 C 38 %
3631 24-04-2020 05:02:17 6.2 C 38 %
3632 24-04-2020 05:12:17 6 C 38 %
3633 24-04-2020 05:22:17 5.9 C 39 %
3634 24-04-2020 05:32:18 6.3 C 38 %
3635 24-04-2020 05:42:18 6.2 C 38 %
3636 24-04-2020 05:52:17 6.1 C 38 %
3637 24-04-2020 06:02:17 6.1 C 38 %
3638 24-04-2020 06:12:17 5.9 C 39 %
3639 24-04-2020 06:22:18 6 C 39 %
3640 24-04-2020 06:32:17 6 C 38 %
3641 24-04-2020 06:42:17 6 C 39 %
3642 24-04-2020 06:52:17 6.2 C 39 %
3643 24-04-2020 07:02:17 6.3 C 38 %
3644 24-04-2020 07:12:17 6.3 C 39 %
3645 24-04-2020 07:22:17 6.3 C 39 %
3646 24-04-2020 07:32:18 6.3 C 39 %
3647 24-04-2020 07:42:18 6.5 C 39 %
3648 24-04-2020 07:52:17 6.7 C 39 %
3649 24-04-2020 08:02:18 6.8 C 39 %
3650 24-04-2020 08:12:18 7.3 C 38 %
Sensor: Nr:Datum:Temp:Feuchte:
Aussen-T/F 3651 24-04-2020 08:22:17 8.2 C 36 %
3652 24-04-2020 08:32:17 9 C 35 %
3653 24-04-2020 08:42:17 9.6 C 35 %
3654 24-04-2020 08:52:17 9.9 C 34 %
3655 24-04-2020 09:02:17 10.4 C 33 %
3656 24-04-2020 09:12:18 11 C 32 %
3657 24-04-2020 09:22:17 11.5 C 31 %
3658 24-04-2020 09:32:18 11.9 C 31 %
3659 24-04-2020 09:42:18 12.5 C 30 %
3660 24-04-2020 09:52:17 12.4 C 30 %
3661 24-04-2020 10:02:17 12.8 C 30 %
3662 24-04-2020 10:12:17 13.1 C 29 %
3663 24-04-2020 10:22:17 14 C 28 %
3664 24-04-2020 10:32:17 14.2 C 28 %
3665 24-04-2020 10:42:17 14.6 C 27 %
3666 24-04-2020 10:52:17 15 C 26 %
3667 24-04-2020 11:02:17 15.6 C 26 %
3668 24-04-2020 11:12:18 15.6 C 26 %
3669 24-04-2020 11:22:17 16.5 C 25 %
3670 24-04-2020 11:32:18 16.6 C 24 %
3671 24-04-2020 11:42:18 17 C 24 %
3672 24-04-2020 11:52:17 17 C 23 %
3673 24-04-2020 12:02:17 17.9 C 23 %
3674 24-04-2020 12:12:17 18.1 C 21 %
3675 24-04-2020 12:22:17 18.2 C 21 %
Sensor: Nr:Datum:Temp:Feuchte:
Aussen-T/F 3676 24-04-2020 12:32:18 18.4 C 21 %
3677 24-04-2020 12:42:18 18.9 C 20 %
3678 24-04-2020 12:52:18 19.3 C 20 %
3679 24-04-2020 13:02:17 19.6 C 20 %
3680 24-04-2020 13:12:17 20.2 C 20 %
3681 24-04-2020 13:22:17 20.5 C 20 %
3682 24-04-2020 13:32:18 20.7 C 20 %
3683 24-04-2020 13:42:18 21 C 20 %
3684 24-04-2020 13:52:17 21.3 C 20 %
3685 24-04-2020 14:02:17 21.8 C 20 %
3686 24-04-2020 14:12:17 22.2 C 20 %
3687 24-04-2020 14:22:17 23.5 C 20 %
3688 24-04-2020 14:32:17 26.8 C 20 %
3689 24-04-2020 14:42:17 28.5 C 20 %
3690 24-04-2020 14:52:17 27.1 C 20 %
3691 24-04-2020 15:02:18 28 C 20 %
3692 24-04-2020 15:12:18 31 C 20 %
3693 24-04-2020 15:22:17 27.6 C 20 %
3694 24-04-2020 15:32:17 28.1 C 20 %
3695 24-04-2020 15:42:18 27.5 C 20 %
3696 24-04-2020 15:52:17 28.8 C 20 %
3697 24-04-2020 16:02:18 28.7 C 20 %
3698 24-04-2020 16:12:18 28.7 C 20 %
3699 24-04-2020 16:22:18 27.2 C 20 %
3700 24-04-2020 16:32:18 26.8 C 20 %
Sensor: Nr:Datum:Temp:Feuchte:
Aussen-T/F 3701 24-04-2020 16:42:18 28 C 20 %
3702 24-04-2020 16:52:17 26.3 C 20 %
3703 24-04-2020 17:02:17 26 C 20 %
3704 24-04-2020 17:12:17 26.7 C 20 %
3705 24-04-2020 17:22:18 26.4 C 20 %
3706 24-04-2020 17:32:18 26.3 C 20 %
3707 24-04-2020 17:42:18 24.2 C 20 %
3708 24-04-2020 17:52:17 26 C 20 %
3709 24-04-2020 18:02:18 24.1 C 20 %
3710 24-04-2020 18:12:18 22.3 C 20 %
3711 24-04-2020 18:22:17 22.2 C 20 %
3712 24-04-2020 18:32:17 22 C 20 %
3713 24-04-2020 18:42:17 20.9 C 20 %
3714 24-04-2020 18:52:18 21 C 20 %
3715 24-04-2020 19:02:17 20.5 C 20 %
3716 24-04-2020 19:12:17 20.3 C 20 %
3717 24-04-2020 19:23:17 20 C 20 %
3718 24-04-2020 19:32:17 19.9 C 20 %
3719 24-04-2020 19:42:18 19.6 C 20 %
3720 24-04-2020 19:53:17 19.2 C 20 %
3721 24-04-2020 20:02:18 19 C 20 %
3722 24-04-2020 20:12:18 18.5 C 20 %
3723 24-04-2020 20:22:17 17.7 C 20 %
3724 24-04-2020 20:32:18 17.3 C 20 %
3725 24-04-2020 20:42:18 16.8 C 20 %
Sensor: Nr:Datum:Temp:Feuchte:
Aussen-T/F 3726 24-04-2020 20:52:18 16.1 C 20 %
3727 24-04-2020 21:02:18 15.9 C 20 %
3728 24-04-2020 21:12:18 15.5 C 20 %
3729 24-04-2020 21:23:17 15.4 C 20 %
3730 24-04-2020 21:33:17 15 C 20 %
3731 24-04-2020 21:42:17 15.1 C 20 %
3732 24-04-2020 21:52:17 14.7 C 20 %
3733 24-04-2020 22:03:17 14.4 C 20 %
3734 24-04-2020 22:13:17 14.1 C 20 %
3735 24-04-2020 22:22:18 14.2 C 20 %
3736 24-04-2020 22:32:18 14.4 C 20 %
3737 24-04-2020 22:42:18 13.9 C 20 %
3738 24-04-2020 22:52:18 13.3 C 20 %
3739 24-04-2020 23:02:18 13.2 C 20 %
3740 24-04-2020 23:12:18 13.2 C 20 %
3741 24-04-2020 23:22:17 12.7 C 20 %
3742 24-04-2020 23:33:17 12.5 C 20 %
3743 24-04-2020 23:43:17 13 C 20 %
3744 24-04-2020 23:53:17 12.4 C 20 %
3745 25-04-2020 00:02:18 12.6 C 20 %
3746 25-04-2020 00:12:18 12.7 C 20 %
3747 25-04-2020 00:23:17 12.6 C 20 %
3748 25-04-2020 00:32:18 12.3 C 20 %
3749 25-04-2020 00:42:18 11.8 C 20 %
3750 25-04-2020 00:52:18 11.7 C 20 %
Sensor: Nr:Datum:Temp:Feuchte:
Aussen-T/F 3751 25-04-2020 01:03:17 11.7 C 20 %
3752 25-04-2020 01:12:17 11.7 C 20 %
3753 25-04-2020 01:23:17 11.3 C 22 %
3754 25-04-2020 01:33:17 11 C 25 %
3755 25-04-2020 01:43:17 11.1 C 25 %
3756 25-04-2020 01:52:17 11.1 C 25 %
3757 25-04-2020 02:02:18 10.4 C 26 %
3758 25-04-2020 02:12:18 10.3 C 26 %
3759 25-04-2020 02:23:17 9.7 C 29 %
3760 25-04-2020 02:33:17 9.5 C 29 %
3761 25-04-2020 02:43:17 9.4 C 30 %
3762 25-04-2020 02:53:17 9.8 C 29 %
3763 25-04-2020 03:03:17 10.1 C 28 %
3764 25-04-2020 03:13:17 10 C 28 %
3765 25-04-2020 03:22:18 10 C 28 %
3766 25-04-2020 03:33:17 9.7 C 30 %
3767 25-04-2020 03:43:17 9 C 30 %
3768 25-04-2020 03:53:17 9 C 30 %
3769 25-04-2020 04:02:18 9.3 C 30 %
3770 25-04-2020 04:12:18 8.9 C 30 %
3771 25-04-2020 04:23:17 8.9 C 30 %
3772 25-04-2020 04:33:18 8.7 C 31 %
3773 25-04-2020 04:42:18 8.2 C 32 %
3774 25-04-2020 04:53:17 8.3 C 33 %
3775 25-04-2020 05:03:17 8.1 C 33 %
Sensor: Nr:Datum:Temp:Feuchte:
Aussen-T/F 3776 25-04-2020 05:13:18 7.5 C 35 %
3777 25-04-2020 05:23:18 7 C 36 %
3778 25-04-2020 05:32:18 7.1 C 37 %
3779 25-04-2020 05:42:18 7.2 C 38 %
3780 25-04-2020 05:53:18 7.6 C 38 %
3781 25-04-2020 06:02:18 8 C 36 %
3782 25-04-2020 06:12:18 8.2 C 36 %
3783 25-04-2020 06:23:17 8.3 C 36 %
3784 25-04-2020 06:33:17 8.3 C 36 %
3785 25-04-2020 06:43:18 8.4 C 35 %
3786 25-04-2020 06:53:17 8.3 C 35 %
3787 25-04-2020 07:03:18 8.3 C 35 %
3788 25-04-2020 07:12:18 8.4 C 35 %
3789 25-04-2020 07:23:17 8.3 C 35 %
3790 25-04-2020 07:32:18 8.4 C 35 %
3791 25-04-2020 07:42:18 8.4 C 35 %
3792 25-04-2020 07:52:18 8.4 C 35 %
3793 25-04-2020 08:03:17 8.4 C 34 %
3794 25-04-2020 08:13:17 8.7 C 34 %
3795 25-04-2020 08:23:17 8.6 C 34 %
3796 25-04-2020 08:33:17 8.7 C 34 %
3797 25-04-2020 08:43:17 8.8 C 34 %
3798 25-04-2020 08:53:17 8.8 C 32 %
3799 25-04-2020 09:03:17 9.3 C 32 %
3800 25-04-2020 09:13:17 9.6 C 31 %
Sensor: Nr:Datum:Temp:Feuchte:
Aussen-T/F 3801 25-04-2020 09:23:17 9.7 C 31 %
3802 25-04-2020 09:33:17 9.8 C 31 %
3803 25-04-2020 09:43:17 10.2 C 30 %
3804 25-04-2020 09:53:17 10.4 C 30 %
3805 25-04-2020 10:03:17 10.8 C 30 %
3806 25-04-2020 10:13:17 10.5 C 28 %
3807 25-04-2020 10:23:17 11 C 28 %
3808 25-04-2020 10:32:18 11.1 C 27 %
3809 25-04-2020 10:42:18 10.5 C 27 %
3810 25-04-2020 10:53:17 11.5 C 26 %
3811 25-04-2020 11:03:17 12.4 C 25 %
3812 25-04-2020 11:13:18 12 C 24 %
3813 25-04-2020 11:23:17 10.9 C 25 %
3814 25-04-2020 11:32:18 11.6 C 25 %
3815 25-04-2020 11:42:18 11.2 C 25 %
3816 25-04-2020 11:53:17 11.8 C 25 %
3817 25-04-2020 12:03:18 11.2 C 25 %
3818 25-04-2020 12:13:18 11.5 C 25 %
3819 25-04-2020 12:23:18 11.7 C 25 %
3820 25-04-2020 12:33:17 11.7 C 25 %
3821 25-04-2020 12:43:18 11.4 C 25 %
3822 25-04-2020 12:53:17 12.3 C 24 %
3823 25-04-2020 13:03:17 12.4 C 22 %
3824 25-04-2020 13:13:17 12.5 C 23 %
3825 25-04-2020 13:23:17 13.2 C 21 %
Sensor: Nr:Datum:Temp:Feuchte:
Aussen-T/F 3826 25-04-2020 13:33:17 13.1 C 21 %
3827 25-04-2020 13:43:17 13.2 C 21 %
3828 25-04-2020 13:53:17 13.7 C 20 %
3829 25-04-2020 14:03:17 13.8 C 20 %
3830 25-04-2020 14:13:17 14.1 C 20 %
3831 25-04-2020 14:23:17 15.8 C 20 %
3832 25-04-2020 14:33:17 21 C 20 %
3833 25-04-2020 14:43:17 22.5 C 20 %
3834 25-04-2020 14:53:17 20.7 C 20 %
3835 25-04-2020 15:03:17 23.8 C 20 %
3836 25-04-2020 15:13:17 23.8 C 20 %
3837 25-04-2020 15:23:17 23.7 C 20 %
3838 25-04-2020 15:33:18 25.7 C 20 %
3839 25-04-2020 15:43:18 25.7 C 20 %
3840 25-04-2020 15:53:18 26.3 C 20 %
3841 25-04-2020 16:03:17 23.2 C 20 %
3842 25-04-2020 16:13:17 24.8 C 20 %
3843 25-04-2020 16:23:17 23.9 C 20 %
3844 25-04-2020 16:33:17 25.3 C 20 %
3845 25-04-2020 16:43:17 22.5 C 20 %
3846 25-04-2020 16:53:17 23.9 C 20 %
3847 25-04-2020 17:03:17 25.1 C 20 %
3848 25-04-2020 17:13:17 25.9 C 20 %
3849 25-04-2020 17:23:17 26.4 C 20 %
3850 25-04-2020 17:33:18 27.1 C 20 %
Sensor: Nr:Datum:Temp:Feuchte:
Aussen-T/F 3851 25-04-2020 17:43:18 22.5 C 20 %
3852 25-04-2020 17:53:17 23.3 C 20 %
3853 25-04-2020 18:03:17 20.1 C 20 %
3854 25-04-2020 18:13:17 18.5 C 20 %
3855 25-04-2020 18:23:17 18.6 C 20 %
3856 25-04-2020 18:33:17 18.3 C 20 %
3857 25-04-2020 18:43:17 17.9 C 20 %
3858 25-04-2020 18:53:17 17.7 C 20 %
3859 25-04-2020 19:03:17 17.5 C 20 %
3860 25-04-2020 19:13:17 17.1 C 20 %
3861 25-04-2020 19:23:17 16.9 C 20 %
3862 25-04-2020 19:33:17 16.4 C 20 %
3863 25-04-2020 19:43:18 16.2 C 20 %
3864 25-04-2020 19:53:17 15.7 C 20 %
3865 25-04-2020 20:03:18 15.4 C 20 %
3866 25-04-2020 20:13:18 14.7 C 20 %
3867 25-04-2020 20:23:17 13.9 C 20 %
3868 25-04-2020 20:33:17 13.8 C 20 %
3869 25-04-2020 20:43:17 12.7 C 20 %
3870 25-04-2020 20:53:17 12.4 C 20 %
3871 25-04-2020 21:03:18 12.1 C 20 %
3872 25-04-2020 21:13:18 12 C 20 %
3873 25-04-2020 21:23:17 11.4 C 21 %
3874 25-04-2020 21:33:17 11.1 C 22 %
3875 25-04-2020 21:43:18 11.2 C 21 %
Sensor: Nr:Datum:Temp:Feuchte:
Aussen-T/F 3876 25-04-2020 21:53:17 11 C 22 %
3877 25-04-2020 22:03:17 11 C 22 %
3878 25-04-2020 22:13:17 10.9 C 23 %
3879 25-04-2020 22:23:17 10.1 C 25 %
3880 25-04-2020 22:33:17 10.1 C 25 %
3881 25-04-2020 22:43:17 9.9 C 26 %
3882 25-04-2020 22:53:18 9.8 C 27 %
3883 25-04-2020 23:03:17 9.6 C 27 %
3884 25-04-2020 23:13:17 9.5 C 27 %
3885 25-04-2020 23:23:17 9.1 C 28 %
3886 25-04-2020 23:33:18 8.7 C 30 %
3887 25-04-2020 23:43:18 8.2 C 31 %
3888 25-04-2020 23:53:17 7.7 C 32 %
3889 26-04-2020 00:03:18 7.1 C 33 %
3890 26-04-2020 00:13:18 6.8 C 35 %
3891 26-04-2020 00:23:17 6.6 C 35 %
3892 26-04-2020 00:33:18 6.3 C 35 %
3893 26-04-2020 00:43:18 6.2 C 36 %
3894 26-04-2020 00:53:17 5.9 C 37 %
3895 26-04-2020 01:03:17 5.8 C 37 %
3896 26-04-2020 01:13:18 5.5 C 38 %
3897 26-04-2020 01:23:17 5.6 C 38 %
3898 26-04-2020 01:33:17 5.2 C 38 %
3899 26-04-2020 01:43:17 5.1 C 38 %
3900 26-04-2020 01:53:17 5.1 C 39 %
Sensor: Nr:Datum:Temp:Feuchte:
Aussen-T/F 3901 26-04-2020 02:03:17 4.7 C 40 %
3902 26-04-2020 02:13:17 4.7 C 40 %
3903 26-04-2020 02:23:17 4.6 C 40 %
3904 26-04-2020 02:33:17 4.5 C 40 %
3905 26-04-2020 02:43:17 4.8 C 41 %
3906 26-04-2020 02:53:18 4.7 C 41 %
3907 26-04-2020 03:03:17 4.4 C 41 %
3908 26-04-2020 03:13:18 4.3 C 41 %
3909 26-04-2020 03:23:17 4.1 C 41 %
3910 26-04-2020 03:33:18 4 C 41 %
3911 26-04-2020 03:43:18 3.8 C 42 %
3912 26-04-2020 03:53:17 3.6 C 43 %
3913 26-04-2020 04:03:18 3.9 C 44 %
3914 26-04-2020 04:13:18 3.6 C 43 %
3915 26-04-2020 04:23:17 3.4 C 43 %
3916 26-04-2020 04:33:17 3.2 C 43 %
3917 26-04-2020 04:43:17 3.3 C 44 %
3918 26-04-2020 04:53:17 3.1 C 44 %
3919 26-04-2020 05:03:18 3.1 C 45 %
3920 26-04-2020 05:13:18 3 C 44 %
3921 26-04-2020 05:23:17 2.7 C 45 %
3922 26-04-2020 05:33:17 2.6 C 45 %
3923 26-04-2020 05:43:17 2.7 C 46 %
3924 26-04-2020 05:53:17 2.5 C 46 %
3925 26-04-2020 06:03:17 2.3 C 46 %
Sensor: Nr:Datum:Temp:Feuchte:
Aussen-T/F 3926 26-04-2020 06:13:17 2.4 C 46 %
3927 26-04-2020 06:23:17 2.4 C 46 %
3928 26-04-2020 06:33:17 2.4 C 46 %
3929 26-04-2020 06:43:18 2.3 C 46 %
3930 26-04-2020 06:53:17 2.3 C 46 %
3931 26-04-2020 07:03:17 2.3 C 46 %
3932 26-04-2020 07:13:17 2.6 C 47 %
3933 26-04-2020 07:23:17 2.7 C 47 %
3934 26-04-2020 07:33:17 2.8 C 46 %
3935 26-04-2020 07:43:17 2.8 C 46 %
3936 26-04-2020 07:53:17 2.9 C 47 %
3937 26-04-2020 08:03:17 3.2 C 46 %
3938 26-04-2020 08:13:17 3.4 C 46 %
3939 26-04-2020 08:23:17 3.6 C 46 %
3940 26-04-2020 08:33:17 4 C 45 %
3941 26-04-2020 08:43:17 4.3 C 45 %
3942 26-04-2020 08:53:17 4.5 C 45 %
3943 26-04-2020 09:03:17 4.9 C 45 %
3944 26-04-2020 09:13:17 5.2 C 43 %
3945 26-04-2020 09:23:17 5.8 C 44 %
3946 26-04-2020 09:33:17 6.4 C 42 %
3947 26-04-2020 09:43:17 6.8 C 41 %
3948 26-04-2020 09:53:17 7.4 C 40 %
3949 26-04-2020 10:03:18 7.8 C 39 %
3950 26-04-2020 10:13:18 8.5 C 38 %
Sensor: Nr:Datum:Temp:Feuchte:
Aussen-T/F 3951 26-04-2020 10:23:17 9 C 37 %
3952 26-04-2020 10:33:18 9.6 C 36 %
3953 26-04-2020 10:43:18 10.4 C 35 %
3954 26-04-2020 10:53:17 11.3 C 32 %
3955 26-04-2020 11:03:17 12.2 C 31 %
3956 26-04-2020 11:13:17 12.8 C 29 %
3957 26-04-2020 11:23:17 13.6 C 27 %
3958 26-04-2020 11:33:17 14.1 C 26 %
3959 26-04-2020 11:43:17 14.7 C 25 %
3960 26-04-2020 11:53:17 15.2 C 22 %
3961 26-04-2020 12:03:17 15.2 C 21 %
3962 26-04-2020 12:13:17 15.1 C 20 %
3963 26-04-2020 12:23:18 15.4 C 20 %
3964 26-04-2020 12:33:17 15.9 C 20 %
3965 26-04-2020 12:43:18 15.9 C 20 %
3966 26-04-2020 12:53:17 16.2 C 20 %
3967 26-04-2020 13:03:17 16.5 C 20 %
3968 26-04-2020 13:13:17 16.8 C 20 %
3969 26-04-2020 13:23:18 16.6 C 20 %
3970 26-04-2020 13:33:17 16.8 C 20 %
3971 26-04-2020 13:43:17 17.1 C 20 %
3972 26-04-2020 13:53:17 17.1 C 20 %
3973 26-04-2020 14:03:17 17.4 C 20 %
3974 26-04-2020 14:13:17 18.1 C 20 %
3975 26-04-2020 14:23:17 19.3 C 20 %
Sensor: Nr:Datum:Temp:Feuchte:
Aussen-T/F 3976 26-04-2020 14:33:18 25 C 20 %
3977 26-04-2020 14:43:18 24.8 C 20 %
3978 26-04-2020 14:53:17 26.7 C 20 %
3979 26-04-2020 15:03:18 26.6 C 20 %
3980 26-04-2020 15:13:18 28.3 C 20 %
3981 26-04-2020 15:23:17 29.7 C 20 %
3982 26-04-2020 15:33:17 29.5 C 20 %
3983 26-04-2020 15:43:17 28 C 20 %
3984 26-04-2020 15:53:18 29 C 20 %
3985 26-04-2020 16:03:18 30.5 C 20 %
3986 26-04-2020 16:13:18 27.6 C 20 %
3987 26-04-2020 16:23:17 28.4 C 20 %
3988 26-04-2020 16:33:17 26.5 C 20 %
3989 26-04-2020 16:43:17 30.3 C 20 %
3990 26-04-2020 16:53:17 28.1 C 20 %
3991 26-04-2020 17:03:18 29 C 20 %
3992 26-04-2020 17:13:18 28.3 C 20 %
3993 26-04-2020 17:23:18 27.4 C 20 %
3994 26-04-2020 17:33:18 27.2 C 20 %
3995 26-04-2020 17:43:18 28 C 20 %
3996 26-04-2020 17:53:17 26.5 C 20 %
3997 26-04-2020 18:03:17 25.8 C 20 %
3998 26-04-2020 18:13:17 23.1 C 20 %
3999 26-04-2020 18:23:17 22 C 20 %
4000 26-04-2020 18:33:17 21.9 C 20 %
Sensor: Nr:Datum:Temp:Feuchte:
Aussen-T/F 4001 26-04-2020 18:43:17 21.1 C 20 %
4002 26-04-2020 18:53:17 21.1 C 20 %
4003 26-04-2020 19:03:17 20.9 C 20 %
4004 26-04-2020 19:13:17 20.2 C 20 %
4005 26-04-2020 19:23:17 19.7 C 20 %
4006 26-04-2020 19:33:17 19.5 C 20 %
4007 26-04-2020 19:43:18 19.1 C 20 %
4008 26-04-2020 19:53:17 18.2 C 20 %
4009 26-04-2020 20:03:18 17.3 C 20 %
4010 26-04-2020 20:13:18 16.6 C 20 %
4011 26-04-2020 20:23:17 15.8 C 20 %
4012 26-04-2020 20:33:17 14.7 C 20 %
4013 26-04-2020 20:43:17 14.3 C 20 %
4014 26-04-2020 20:53:18 14 C 20 %
4015 26-04-2020 21:03:18 13.7 C 20 %
4016 26-04-2020 21:13:18 13.1 C 20 %
4017 26-04-2020 21:23:17 12.6 C 20 %
4018 26-04-2020 21:33:18 12.4 C 20 %
4019 26-04-2020 21:43:18 12.1 C 20 %
4020 26-04-2020 21:53:17 11.6 C 23 %
4021 26-04-2020 22:03:17 11.3 C 25 %
4022 26-04-2020 22:13:17 10.9 C 26 %
4023 26-04-2020 22:23:18 10.7 C 26 %
4024 26-04-2020 22:33:17 10.5 C 26 %
4025 26-04-2020 22:43:17 9.9 C 28 %
Sensor: Nr:Datum:Temp:Feuchte:
Aussen-T/F 4026 26-04-2020 22:53:17 9.6 C 29 %
4027 26-04-2020 23:03:17 9.2 C 29 %
4028 26-04-2020 23:13:17 9 C 30 %
4029 26-04-2020 23:23:17 8.9 C 30 %
4030 26-04-2020 23:33:18 8.8 C 30 %
4031 26-04-2020 23:43:18 8.7 C 30 %
4032 26-04-2020 23:53:17 8.5 C 30 %
4033 27-04-2020 00:03:18 8.3 C 30 %
4034 27-04-2020 00:13:18 8 C 31 %
4035 27-04-2020 00:23:18 7.9 C 32 %
4036 27-04-2020 00:33:17 7.6 C 32 %
4037 27-04-2020 00:43:17 7.4 C 33 %
4038 27-04-2020 00:53:17 7.2 C 33 %
4039 27-04-2020 01:03:18 7.1 C 33 %
4040 27-04-2020 01:13:18 6.8 C 35 %
4041 27-04-2020 01:23:18 6.9 C 35 %
4042 27-04-2020 01:33:17 6.9 C 35 %
4043 27-04-2020 01:43:17 6.8 C 35 %
4044 27-04-2020 01:53:17 6.4 C 35 %
4045 27-04-2020 02:03:17 6.2 C 36 %
4046 27-04-2020 02:13:17 6 C 36 %
4047 27-04-2020 02:23:17 5.9 C 37 %
4048 27-04-2020 02:33:17 5.7 C 37 %
4049 27-04-2020 02:43:17 6 C 37 %
4050 27-04-2020 02:53:17 6 C 37 %
Sensor: Nr:Datum:Temp:Feuchte:
Aussen-T/F 4051 27-04-2020 03:03:18 5.7 C 38 %
4052 27-04-2020 03:13:18 5.6 C 38 %
4053 27-04-2020 03:23:18 5.6 C 38 %
4054 27-04-2020 03:33:17 5.6 C 38 %
4055 27-04-2020 03:43:17 5.6 C 39 %
4056 27-04-2020 03:53:17 5.7 C 39 %
4057 27-04-2020 04:03:18 5 C 38 %
4058 27-04-2020 04:13:18 4.8 C 40 %
4059 27-04-2020 04:23:17 4.4 C 40 %
4060 27-04-2020 04:33:18 4.3 C 41 %
4061 27-04-2020 04:43:18 4 C 41 %
4062 27-04-2020 04:53:17 4.1 C 42 %
4063 27-04-2020 05:03:17 4 C 42 %
4064 27-04-2020 05:13:17 4.2 C 42 %
4065 27-04-2020 05:23:17 3.7 C 43 %
4066 27-04-2020 05:33:17 3.7 C 43 %
4067 27-04-2020 05:43:17 3.4 C 43 %
4068 27-04-2020 05:53:17 3.7 C 44 %
4069 27-04-2020 06:03:18 3.5 C 44 %
4070 27-04-2020 06:13:18 3.4 C 44 %
4071 27-04-2020 06:23:17 3.6 C 45 %
4072 27-04-2020 06:33:17 3.8 C 45 %
4073 27-04-2020 06:43:17 3.8 C 44 %
4074 27-04-2020 06:53:17 3.8 C 44 %
4075 27-04-2020 07:03:17 3.8 C 44 %
Sensor: Nr:Datum:Temp:Feuchte:
Aussen-T/F 4076 27-04-2020 07:13:17 3.9 C 45 %
4077 27-04-2020 07:23:17 3.9 C 45 %
4078 27-04-2020 07:33:17 4.2 C 44 %
4079 27-04-2020 07:43:17 4.5 C 43 %
4080 27-04-2020 07:53:17 4.6 C 43 %
4081 27-04-2020 08:03:17 4.9 C 42 %
4082 27-04-2020 08:13:17 4.8 C 42 %
4083 27-04-2020 08:23:17 5.1 C 42 %
4084 27-04-2020 08:33:17 5.5 C 41 %
4085 27-04-2020 08:43:17 5.7 C 41 %
4086 27-04-2020 08:53:17 6 C 41 %
4087 27-04-2020 09:03:18 6.4 C 40 %
4088 27-04-2020 09:13:18 6.6 C 40 %
4089 27-04-2020 09:23:17 7 C 40 %
4090 27-04-2020 09:33:17 7.6 C 39 %
4091 27-04-2020 09:43:17 8.3 C 37 %
4092 27-04-2020 09:53:17 8.5 C 38 %
4093 27-04-2020 10:03:17 9.1 C 37 %
4094 27-04-2020 10:13:17 9.9 C 37 %
4095 27-04-2020 10:23:17 10.7 C 35 %
4096 27-04-2020 10:33:17 11.7 C 34 %
4097 27-04-2020 10:43:17 12.3 C 32 %
4098 27-04-2020 10:53:17 13.5 C 30 %
4099 27-04-2020 11:03:17 15.5 C 25 %
4100 27-04-2020 11:13:17 16.6 C 22 %
Sensor: Nr:Datum:Temp:Feuchte:
Aussen-T/F 4101 27-04-2020 11:23:17 16.8 C 20 %
4102 27-04-2020 11:33:17 17.2 C 20 %
4103 27-04-2020 11:43:17 17.5 C 20 %
4104 27-04-2020 11:53:17 17.7 C 20 %
4105 27-04-2020 12:03:17 18.1 C 20 %
4106 27-04-2020 12:13:17 18.4 C 20 %
4107 27-04-2020 12:23:17 18.3 C 20 %
4108 27-04-2020 12:33:17 18.7 C 20 %
4109 27-04-2020 12:43:17 19 C 20 %
4110 27-04-2020 12:53:18 19.1 C 20 %
4111 27-04-2020 13:03:17 19.7 C 20 %
4112 27-04-2020 13:13:17 19.5 C 20 %
4113 27-04-2020 13:23:17 19.6 C 20 %
4114 27-04-2020 13:33:17 20.1 C 20 %
4115 27-04-2020 13:43:17 20.2 C 20 %
4116 27-04-2020 13:53:17 20.4 C 20 %
4117 27-04-2020 14:03:18 21 C 20 %
4118 27-04-2020 14:13:18 21.4 C 20 %
4119 27-04-2020 14:23:17 25.1 C 20 %
4120 27-04-2020 14:33:18 25.5 C 20 %
4121 27-04-2020 14:43:18 28.2 C 20 %
4122 27-04-2020 14:53:17 28.9 C 20 %
4123 27-04-2020 15:03:17 30.1 C 20 %
4124 27-04-2020 15:13:17 27.6 C 20 %
4125 27-04-2020 15:23:17 26.7 C 20 %
Sensor: Nr:Datum:Temp:Feuchte:
Aussen-T/F 4126 27-04-2020 15:33:17 27.5 C 20 %
4127 27-04-2020 15:43:17 27.6 C 20 %
4128 27-04-2020 15:53:17 27.9 C 20 %
4129 27-04-2020 16:03:17 26.8 C 20 %
4130 27-04-2020 16:13:17 23.7 C 20 %
4131 27-04-2020 16:23:17 23.4 C 20 %
4132 27-04-2020 16:33:17 24.1 C 20 %
4133 27-04-2020 16:43:17 23.7 C 20 %
4134 27-04-2020 16:53:17 22.7 C 20 %
4135 27-04-2020 17:03:18 22.1 C 20 %
4136 27-04-2020 17:13:18 22.1 C 20 %
4137 27-04-2020 17:23:17 21.6 C 20 %
4138 27-04-2020 17:33:17 21.7 C 20 %
4139 27-04-2020 17:43:17 21.6 C 20 %
4140 27-04-2020 17:53:17 22.2 C 20 %
4141 27-04-2020 18:03:17 21.5 C 20 %
4142 27-04-2020 18:13:17 21.8 C 20 %
4143 27-04-2020 18:23:17 24 C 20 %
4144 27-04-2020 18:33:18 23.1 C 20 %
4145 27-04-2020 18:43:18 22.4 C 20 %
4146 27-04-2020 18:53:17 22.1 C 20 %
4147 27-04-2020 19:03:17 20.9 C 20 %
4148 27-04-2020 19:13:17 19.4 C 20 %
4149 27-04-2020 19:23:18 19.2 C 20 %
4150 27-04-2020 19:33:17 18.3 C 20 %
Sensor: Nr:Datum:Temp:Feuchte:
Aussen-T/F 4151 27-04-2020 19:43:18 18.2 C 20 %
4152 27-04-2020 19:53:17 17.4 C 20 %
4153 27-04-2020 20:03:17 17.1 C 20 %
4154 27-04-2020 20:13:17 16.8 C 20 %
4155 27-04-2020 20:23:17 16.2 C 20 %
4156 27-04-2020 20:33:17 15.4 C 21 %
4157 27-04-2020 20:43:17 15.1 C 21 %
4158 27-04-2020 20:53:18 15.2 C 21 %
4159 27-04-2020 21:03:17 15 C 21 %
4160 27-04-2020 21:13:17 15 C 22 %
4161 27-04-2020 21:23:17 14.6 C 25 %
4162 27-04-2020 21:33:18 14.2 C 25 %
4163 27-04-2020 21:43:18 13.6 C 26 %
4164 27-04-2020 21:53:17 13.2 C 27 %
4165 27-04-2020 22:03:18 13.3 C 27 %
4166 27-04-2020 22:13:18 13.3 C 27 %
4167 27-04-2020 22:23:17 13 C 28 %
4168 27-04-2020 22:33:17 12.3 C 30 %
4169 27-04-2020 22:43:17 12.1 C 30 %
4170 27-04-2020 22:53:18 12 C 30 %
4171 27-04-2020 23:03:17 12 C 30 %
4172 27-04-2020 23:13:17 12 C 30 %
4173 27-04-2020 23:23:17 11.8 C 31 %
4174 27-04-2020 23:33:17 11.4 C 32 %
4175 27-04-2020 23:43:17 11 C 32 %
Sensor: Nr:Datum:Temp:Feuchte:
Aussen-T/F 4176 27-04-2020 23:53:18 10.6 C 34 %
4177 28-04-2020 00:03:17 10.5 C 35 %
4178 28-04-2020 00:13:17 10 C 35 %
4179 28-04-2020 00:23:17 10 C 35 %
4180 28-04-2020 00:33:18 9.8 C 36 %
4181 28-04-2020 00:43:18 9.8 C 36 %
4182 28-04-2020 00:53:17 9.7 C 36 %
4183 28-04-2020 01:03:18 9.5 C 36 %
4184 28-04-2020 01:13:18 9.3 C 37 %
4185 28-04-2020 01:23:17 9.1 C 37 %
4186 28-04-2020 01:33:17 9.1 C 37 %
4187 28-04-2020 01:43:18 9.2 C 37 %
4188 28-04-2020 01:53:17 8.8 C 38 %
4189 28-04-2020 02:03:18 8.7 C 39 %
4190 28-04-2020 02:13:18 8.8 C 39 %
4191 28-04-2020 02:23:17 8.4 C 39 %
4192 28-04-2020 02:33:18 8.2 C 39 %
4193 28-04-2020 02:43:18 8.3 C 40 %
4194 28-04-2020 02:53:18 8.6 C 40 %
4195 28-04-2020 03:03:17 8.7 C 40 %
4196 28-04-2020 03:13:17 8.4 C 40 %
4197 28-04-2020 03:23:17 8.3 C 40 %
4198 28-04-2020 03:33:18 8.3 C 40 %
4199 28-04-2020 03:43:18 7.8 C 40 %
4200 28-04-2020 03:53:18 7.7 C 41 %
Sensor: Nr:Datum:Temp:Feuchte:
Aussen-T/F 4201 28-04-2020 04:03:18 7.9 C 41 %
4202 28-04-2020 04:13:18 7.4 C 41 %
4203 28-04-2020 04:23:18 7.3 C 41 %
4204 28-04-2020 04:33:18 7.3 C 42 %
4205 28-04-2020 04:43:18 7.6 C 43 %
4206 28-04-2020 04:53:17 7.7 C 42 %
4207 28-04-2020 05:03:17 7.8 C 41 %
4208 28-04-2020 05:13:17 7.8 C 42 %
4209 28-04-2020 05:23:17 7.8 C 41 %
4210 28-04-2020 05:33:18 7.9 C 41 %
4211 28-04-2020 05:43:18 7.7 C 41 %
4212 28-04-2020 05:53:17 7.5 C 41 %
4213 28-04-2020 06:03:17 7.2 C 41 %
4214 28-04-2020 06:13:17 7 C 42 %
4215 28-04-2020 06:23:17 7.3 C 43 %
4216 28-04-2020 06:33:18 7.6 C 43 %
4217 28-04-2020 06:43:18 8 C 42 %
4218 28-04-2020 06:53:17 8.3 C 41 %
4219 28-04-2020 07:03:18 8.7 C 41 %
4220 28-04-2020 07:13:18 9.1 C 40 %
4221 28-04-2020 07:23:18 9.3 C 39 %
4222 28-04-2020 07:33:17 9.5 C 39 %
4223 28-04-2020 07:43:17 9.6 C 39 %
4224 28-04-2020 07:53:17 9.4 C 39 %
4225 28-04-2020 08:03:17 9.2 C 40 %
Sensor: Nr:Datum:Temp:Feuchte:
Aussen-T/F 4226 28-04-2020 08:13:17 9.5 C 41 %
4227 28-04-2020 08:23:17 9.8 C 41 %
4228 28-04-2020 08:33:17 10 C 41 %
4229 28-04-2020 08:43:17 10.1 C 41 %
4230 28-04-2020 08:53:17 10.6 C 40 %
4231 28-04-2020 09:03:17 10.7 C 40 %
4232 28-04-2020 09:13:17 11.2 C 39 %
4233 28-04-2020 09:23:17 11.7 C 39 %
4234 28-04-2020 09:33:18 11.8 C 39 %
4235 28-04-2020 09:43:18 11.8 C 38 %
4236 28-04-2020 09:53:17 12.2 C 38 %
4237 28-04-2020 10:03:17 12.8 C 38 %
4238 28-04-2020 10:13:17 12.9 C 37 %
4239 28-04-2020 10:23:18 13.3 C 36 %
4240 28-04-2020 10:33:17 13.7 C 36 %
4241 28-04-2020 10:43:17 14 C 35 %
4242 28-04-2020 10:53:17 14.1 C 35 %
4243 28-04-2020 11:03:17 13.4 C 37 %
4244 28-04-2020 11:13:17 13.8 C 38 %
4245 28-04-2020 11:23:17 13.5 C 38 %
4246 28-04-2020 11:33:17 14.2 C 38 %
4247 28-04-2020 11:43:17 14.3 C 37 %
4248 28-04-2020 11:53:17 14.6 C 38 %
4249 28-04-2020 12:03:17 14.9 C 37 %
4250 28-04-2020 12:13:17 15 C 37 %
Sensor: Nr:Datum:Temp:Feuchte:
Aussen-T/F 4251 28-04-2020 12:23:17 14.9 C 38 %
4252 28-04-2020 12:33:17 15.2 C 37 %
4253 28-04-2020 12:43:17 15 C 38 %
4254 28-04-2020 12:53:17 14.9 C 39 %
4255 28-04-2020 13:03:18 14.7 C 39 %
4256 28-04-2020 13:13:18 14.5 C 41 %
4257 28-04-2020 13:23:17 14.2 C 41 %
4258 28-04-2020 13:33:17 14.9 C 40 %
4259 28-04-2020 13:43:17 14.9 C 38 %
4260 28-04-2020 13:53:17 15.2 C 36 %
4261 28-04-2020 14:03:17 16.2 C 36 %
4262 28-04-2020 14:13:17 16.9 C 35 %
4263 28-04-2020 14:23:18 20.2 C 30 %
4264 28-04-2020 14:33:18 17.5 C 32 %
4265 28-04-2020 14:43:18 16.5 C 34 %
4266 28-04-2020 14:53:17 17.2 C 33 %
4267 28-04-2020 15:03:17 16.4 C 34 %
4268 28-04-2020 15:13:17 15.6 C 36 %
4269 28-04-2020 15:23:17 15.6 C 36 %
4270 28-04-2020 15:33:17 18.1 C 32 %
4271 28-04-2020 15:43:17 16.5 C 33 %
4272 28-04-2020 15:53:17 17 C 32 %
4273 28-04-2020 16:03:18 17.1 C 32 %
4274 28-04-2020 16:13:18 16.7 C 32 %
4275 28-04-2020 16:23:17 16.9 C 32 %
Sensor: Nr:Datum:Temp:Feuchte:
Aussen-T/F 4276 28-04-2020 16:33:17 18.5 C 30 %
4277 28-04-2020 16:43:17 20.1 C 26 %
4278 28-04-2020 16:53:17 19.4 C 27 %
4279 28-04-2020 17:03:17 17.6 C 30 %
4280 28-04-2020 17:13:17 17.4 C 30 %
4281 28-04-2020 17:23:17 17.2 C 29 %
4282 28-04-2020 17:33:17 17 C 30 %
4283 28-04-2020 17:43:17 16.8 C 30 %
4284 28-04-2020 17:53:17 17.6 C 28 %
4285 28-04-2020 18:03:17 18.2 C 27 %
4286 28-04-2020 18:13:17 17.4 C 29 %
4287 28-04-2020 18:23:17 18 C 28 %
4288 28-04-2020 18:33:18 17.6 C 28 %
4289 28-04-2020 18:43:18 17.7 C 28 %
4290 28-04-2020 18:53:17 16.6 C 30 %
4291 28-04-2020 19:03:17 16.3 C 30 %
4292 28-04-2020 19:13:17 16.3 C 30 %
4293 28-04-2020 19:23:17 16.3 C 30 %
4294 28-04-2020 19:33:18 16.4 C 30 %
4295 28-04-2020 19:43:18 16.5 C 30 %
4296 28-04-2020 19:53:17 16.1 C 30 %
4297 28-04-2020 20:03:18 15 C 32 %
4298 28-04-2020 20:13:18 14.2 C 35 %
4299 28-04-2020 20:23:17 13.6 C 37 %
4300 28-04-2020 20:33:17 13.4 C 37 %
Sensor: Nr:Datum:Temp:Feuchte:
Aussen-T/F 4301 28-04-2020 20:43:18 13.1 C 37 %
4302 28-04-2020 20:53:17 13 C 38 %
4303 28-04-2020 21:03:17 12.5 C 39 %
4304 28-04-2020 21:13:17 13.5 C 36 %
4305 28-04-2020 21:23:17 13.9 C 35 %
4306 28-04-2020 21:33:17 14.6 C 34 %
4307 28-04-2020 21:43:17 14.4 C 34 %
4308 28-04-2020 21:53:17 14.2 C 34 %
4309 28-04-2020 22:03:17 13.4 C 35 %
4310 28-04-2020 22:13:17 12.8 C 37 %
4311 28-04-2020 22:23:17 12.8 C 37 %
4312 28-04-2020 22:33:17 13 C 36 %
4313 28-04-2020 22:43:17 13.1 C 36 %
4314 28-04-2020 22:53:18 12.9 C 37 %
4315 28-04-2020 23:03:17 12.7 C 38 %
4316 28-04-2020 23:13:18 12.7 C 38 %
4317 28-04-2020 23:23:18 12.7 C 38 %
4318 28-04-2020 23:33:18 12.7 C 38 %
4319 28-04-2020 23:43:18 12.5 C 39 %
4320 28-04-2020 23:53:18 12.2 C 39 %
4321 29-04-2020 00:03:17 12.2 C 39 %
4322 29-04-2020 00:13:17 12.2 C 39 %
4323 29-04-2020 00:23:17 12.1 C 39 %
4324 29-04-2020 00:33:18 11.8 C 40 %
4325 29-04-2020 00:43:18 11.5 C 40 %
Sensor: Nr:Datum:Temp:Feuchte:
Aussen-T/F 4326 29-04-2020 00:53:18 11.5 C 40 %
4327 29-04-2020 01:03:18 11.5 C 40 %
4328 29-04-2020 01:13:18 11.6 C 40 %
4329 29-04-2020 01:23:17 11.7 C 40 %
4330 29-04-2020 01:33:17 11.6 C 42 %
4331 29-04-2020 01:43:17 11.4 C 43 %
4332 29-04-2020 01:53:17 11.4 C 44 %
4333 29-04-2020 02:03:17 11.4 C 44 %
4334 29-04-2020 02:13:17 11.4 C 41 %
4335 29-04-2020 02:23:17 12.3 C 37 %
4336 29-04-2020 02:33:18 12.6 C 37 %
4337 29-04-2020 02:43:18 12.5 C 36 %
4338 29-04-2020 02:53:17 12.1 C 36 %
4339 29-04-2020 03:03:17 12 C 36 %
4340 29-04-2020 03:13:17 11.4 C 39 %
4341 29-04-2020 03:23:17 11.5 C 39 %
4342 29-04-2020 03:33:17 11.7 C 39 %
4343 29-04-2020 03:43:17 12 C 37 %
4344 29-04-2020 03:53:17 12.1 C 37 %
4345 29-04-2020 04:03:17 11.9 C 39 %
4346 29-04-2020 04:13:17 11.9 C 39 %
4347 29-04-2020 04:23:17 11.7 C 39 %
4348 29-04-2020 04:33:17 11.9 C 38 %
4349 29-04-2020 04:43:18 11.6 C 39 %
4350 29-04-2020 04:53:17 11.4 C 39 %
Sensor: Nr:Datum:Temp:Feuchte:
Aussen-T/F 4351 29-04-2020 05:03:18 11.7 C 39 %
4352 29-04-2020 05:13:18 11.5 C 39 %
4353 29-04-2020 05:23:18 11.7 C 39 %
4354 29-04-2020 05:33:17 11.5 C 39 %
4355 29-04-2020 05:43:17 11.4 C 39 %
4356 29-04-2020 05:53:17 11.3 C 40 %
4357 29-04-2020 06:03:18 11.3 C 40 %
4358 29-04-2020 06:13:18 11.5 C 39 %
4359 29-04-2020 06:23:17 11.6 C 38 %
4360 29-04-2020 06:33:17 11.2 C 39 %
4361 29-04-2020 06:43:17 11 C 40 %
4362 29-04-2020 06:53:17 11.2 C 40 %
4363 29-04-2020 07:03:17 11.5 C 39 %
4364 29-04-2020 07:13:17 11.9 C 39 %
4365 29-04-2020 07:23:17 12.1 C 37 %
4366 29-04-2020 07:33:17 12.3 C 37 %
4367 29-04-2020 07:43:17 12.4 C 36 %
4368 29-04-2020 07:53:17 12.7 C 36 %
4369 29-04-2020 08:03:17 12.9 C 36 %
4370 29-04-2020 08:13:17 12.9 C 36 %
4371 29-04-2020 08:23:17 12.7 C 36 %
4372 29-04-2020 08:33:17 12.6 C 36 %
4373 29-04-2020 08:43:17 12.5 C 36 %
4374 29-04-2020 08:53:17 13 C 35 %
4375 29-04-2020 09:03:17 13.1 C 35 %
Sensor: Nr:Datum:Temp:Feuchte:
Aussen-T/F 4376 29-04-2020 09:13:17 13.2 C 35 %
4377 29-04-2020 09:23:17 13.5 C 34 %
4378 29-04-2020 09:33:17 13.6 C 33 %
4379 29-04-2020 09:43:17 13.9 C 32 %
4380 29-04-2020 09:53:17 14.1 C 32 %
4381 29-04-2020 10:03:17 14.5 C 31 %
4382 29-04-2020 10:13:17 14.8 C 30 %
4383 29-04-2020 10:23:17 15.1 C 29 %
4384 29-04-2020 10:33:17 14.8 C 30 %
4385 29-04-2020 10:43:17 15 C 29 %
4386 29-04-2020 10:53:17 15.5 C 28 %
4387 29-04-2020 11:03:17 16 C 28 %
4388 29-04-2020 11:13:17 16 C 28 %
4389 29-04-2020 11:23:17 16.3 C 27 %
4390 29-04-2020 11:33:18 16.8 C 27 %
4391 29-04-2020 11:43:18 16.9 C 25 %
4392 29-04-2020 11:53:17 17.1 C 25 %
4393 29-04-2020 12:03:18 17.5 C 25 %
4394 29-04-2020 12:13:18 16.4 C 25 %
4395 29-04-2020 12:23:17 15.5 C 26 %
4396 29-04-2020 12:33:17 15.9 C 26 %
4397 29-04-2020 12:43:17 16.3 C 25 %
4398 29-04-2020 12:53:17 16.2 C 25 %
4399 29-04-2020 13:03:17 17.5 C 25 %
4400 29-04-2020 13:13:17 16.4 C 25 %
Sensor: Nr:Datum:Temp:Feuchte:
Aussen-T/F 4401 29-04-2020 13:23:18 16.1 C 25 %
4402 29-04-2020 13:33:18 17.5 C 25 %
4403 29-04-2020 13:43:18 17.3 C 25 %
4404 29-04-2020 13:53:18 16.6 C 25 %
4405 29-04-2020 14:03:18 16.7 C 26 %
4406 29-04-2020 14:13:18 15.7 C 26 %
4407 29-04-2020 14:23:18 15.9 C 26 %
4408 29-04-2020 14:33:17 16.1 C 26 %
4409 29-04-2020 14:43:17 19.2 C 22 %
4410 29-04-2020 14:53:17 21.1 C 20 %
4411 29-04-2020 15:03:17 20.9 C 20 %
4412 29-04-2020 15:13:17 22.7 C 20 %
4413 29-04-2020 15:23:17 22.3 C 20 %
4414 29-04-2020 15:33:17 19.6 C 20 %
4415 29-04-2020 15:43:17 18.7 C 20 %
4416 29-04-2020 15:53:17 19.2 C 20 %
4417 29-04-2020 16:03:17 17.4 C 22 %
4418 29-04-2020 16:13:17 17.9 C 22 %
4419 29-04-2020 16:23:17 18.4 C 20 %
4420 29-04-2020 16:33:17 17.7 C 21 %
4421 29-04-2020 16:43:17 20.2 C 20 %
4422 29-04-2020 16:53:17 18.2 C 20 %
4423 29-04-2020 17:03:17 17.4 C 22 %
4424 29-04-2020 17:13:17 16 C 25 %
4425 29-04-2020 17:23:17 19.4 C 23 %
Sensor: Nr:Datum:Temp:Feuchte:
Aussen-T/F 4426 29-04-2020 17:33:17 21.1 C 20 %
4427 29-04-2020 17:43:17 21.2 C 20 %
4428 29-04-2020 17:53:17 20.2 C 20 %
4429 29-04-2020 18:03:17 21 C 20 %
4430 29-04-2020 18:13:18 17.5 C 21 %
4431 29-04-2020 18:23:17 17.4 C 21 %
4432 29-04-2020 18:33:17 17.7 C 22 %
4433 29-04-2020 18:43:17 17.9 C 22 %
4434 29-04-2020 18:53:17 17.2 C 23 %
4435 29-04-2020 19:03:18 17 C 25 %
4436 29-04-2020 19:13:18 17.5 C 24 %
4437 29-04-2020 19:23:17 17.5 C 23 %
4438 29-04-2020 19:33:17 17.1 C 23 %
4439 29-04-2020 19:43:18 16.7 C 24 %
4440 29-04-2020 19:53:17 16.1 C 25 %
4441 29-04-2020 20:03:18 15.4 C 26 %
4442 29-04-2020 20:13:18 15 C 26 %
4443 29-04-2020 20:23:18 14.7 C 29 %
4444 29-04-2020 20:33:17 14.5 C 29 %
4445 29-04-2020 20:43:17 14.5 C 28 %
4446 29-04-2020 20:53:18 14.4 C 28 %
4447 29-04-2020 21:03:18 13.8 C 30 %
4448 29-04-2020 21:13:18 13.2 C 31 %
4449 29-04-2020 21:23:17 12.9 C 33 %
4450 29-04-2020 21:33:17 13 C 32 %
Sensor: Nr:Datum:Temp:Feuchte:
Aussen-T/F 4451 29-04-2020 21:43:17 13.5 C 32 %
4452 29-04-2020 21:53:17 13.2 C 32 %
4453 29-04-2020 22:03:18 13 C 32 %
4454 29-04-2020 22:13:18 13.2 C 33 %
4455 29-04-2020 22:23:17 13.5 C 32 %
4456 29-04-2020 22:33:17 13.3 C 32 %
4457 29-04-2020 22:43:17 13.1 C 32 %
4458 29-04-2020 22:53:18 13.3 C 33 %
4459 29-04-2020 23:03:18 12.8 C 35 %
4460 29-04-2020 23:13:18 12.8 C 35 %
4461 29-04-2020 23:23:17 13 C 34 %
4462 29-04-2020 23:33:17 13.2 C 33 %
4463 29-04-2020 23:43:17 13.2 C 34 %
4464 29-04-2020 23:53:18 12.9 C 35 %
Sensor: Nr:Datum:Temp:Feuchte:
G-T/H 1 30-03-2020 00:00:18 9.6 C 61 %
2 30-03-2020 00:10:18 9.6 C 60 %
3 30-03-2020 00:20:17 9.6 C 60 %
4 30-03-2020 00:30:17 9.6 C 60 %
5 30-03-2020 00:40:17 9.6 C 60 %
6 30-03-2020 00:50:17 9.5 C 60 %
7 30-03-2020 01:00:18 9.5 C 60 %
8 30-03-2020 01:10:18 9.5 C 61 %
9 30-03-2020 01:20:17 9.5 C 61 %
10 30-03-2020 01:30:18 9.5 C 61 %
11 30-03-2020 01:40:18 9.5 C 61 %
12 30-03-2020 01:50:17 9.4 C 61 %
13 30-03-2020 02:00:17 9.4 C 61 %
14 30-03-2020 02:10:17 9.4 C 61 %
15 30-03-2020 02:20:17 9.4 C 61 %
16 30-03-2020 02:30:18 9.4 C 61 %
17 30-03-2020 02:40:18 9.3 C 61 %
18 30-03-2020 02:50:17 9.3 C 61 %
19 30-03-2020 03:00:18 9.3 C 61 %
20 30-03-2020 03:10:18 9.3 C 61 %
21 30-03-2020 03:20:18 9.3 C 61 %
22 30-03-2020 03:30:18 9.3 C 61 %
23 30-03-2020 03:40:18 9.2 C 61 %
24 30-03-2020 03:50:17 9.2 C 61 %
25 30-03-2020 04:00:18 9.2 C 61 %
Sensor: Nr:Datum:Temp:Feuchte:
G-T/H 26 30-03-2020 04:10:18 9.1 C 61 %
27 30-03-2020 04:20:17 9.2 C 60 %
28 30-03-2020 04:30:17 9.2 C 60 %
29 30-03-2020 04:40:17 9.1 C 60 %
30 30-03-2020 04:50:17 9.1 C 60 %
31 30-03-2020 05:00:17 9 C 60 %
32 30-03-2020 05:10:17 9 C 60 %
33 30-03-2020 05:20:17 9 C 60 %
34 30-03-2020 05:30:18 9 C 60 %
35 30-03-2020 05:40:18 9 C 60 %
36 30-03-2020 05:50:17 9 C 60 %
37 30-03-2020 06:00:18 8.9 C 61 %
38 30-03-2020 06:10:18 8.9 C 61 %
39 30-03-2020 06:20:17 8.9 C 61 %
40 30-03-2020 06:30:17 8.8 C 61 %
41 30-03-2020 06:40:17 8.9 C 61 %
42 30-03-2020 06:50:17 8.8 C 61 %
43 30-03-2020 07:00:17 8.7 C 61 %
44 30-03-2020 07:10:17 8.7 C 61 %
45 30-03-2020 07:20:17 8.7 C 61 %
46 30-03-2020 07:30:18 8.7 C 60 %
47 30-03-2020 07:40:18 8.7 C 60 %
48 30-03-2020 07:50:17 8.7 C 60 %
49 30-03-2020 08:00:18 8.6 C 60 %
50 30-03-2020 08:10:18 8.6 C 60 %
Sensor: Nr:Datum:Temp:Feuchte:
G-T/H 51 30-03-2020 08:20:18 8.6 C 60 %
52 30-03-2020 08:30:18 8.5 C 60 %
53 30-03-2020 08:40:18 8.5 C 60 %
54 30-03-2020 08:50:17 8.5 C 60 %
55 30-03-2020 09:00:18 8.5 C 60 %
56 30-03-2020 09:10:18 8.5 C 60 %
57 30-03-2020 09:20:18 8.5 C 60 %
58 30-03-2020 09:30:18 8.5 C 60 %
59 30-03-2020 09:40:18 8.4 C 60 %
60 30-03-2020 09:50:18 8.4 C 60 %
61 30-03-2020 10:00:18 8.4 C 60 %
62 30-03-2020 10:10:18 8.4 C 60 %
63 30-03-2020 10:20:17 8.3 C 60 %
64 30-03-2020 10:30:17 8.3 C 60 %
65 30-03-2020 10:40:17 8.3 C 60 %
66 30-03-2020 10:50:17 8.3 C 60 %
67 30-03-2020 11:00:17 8.3 C 60 %
68 30-03-2020 11:10:18 8.3 C 60 %
69 30-03-2020 11:20:18 8.2 C 60 %
70 30-03-2020 11:30:18 8.2 C 60 %
71 30-03-2020 11:40:18 8.2 C 60 %
72 30-03-2020 11:50:18 8.2 C 60 %
73 30-03-2020 12:00:18 8.2 C 60 %
74 30-03-2020 12:10:18 8.2 C 60 %
75 30-03-2020 12:20:18 8.2 C 60 %
Sensor: Nr:Datum:Temp:Feuchte:
G-T/H 76 30-03-2020 12:30:18 8.2 C 60 %
77 30-03-2020 12:40:18 8.2 C 60 %
78 30-03-2020 12:50:18 8.2 C 60 %
79 30-03-2020 13:00:18 8.1 C 60 %
80 30-03-2020 13:10:18 8.2 C 60 %
81 30-03-2020 13:20:18 7.9 C 52 %
82 30-03-2020 13:30:17 8 C 50 %
83 30-03-2020 13:40:17 8 C 50 %
84 30-03-2020 13:50:17 8 C 51 %
85 30-03-2020 14:00:17 8 C 52 %
86 30-03-2020 14:10:17 8.1 C 53 %
87 30-03-2020 14:20:18 8.1 C 54 %
88 30-03-2020 14:30:18 8.1 C 54 %
89 30-03-2020 14:40:18 8.1 C 55 %
90 30-03-2020 14:50:18 8.1 C 55 %
91 30-03-2020 15:00:18 8.1 C 56 %
92 30-03-2020 15:10:18 8.1 C 56 %
93 30-03-2020 15:20:17 8.2 C 56 %
94 30-03-2020 15:30:18 8.2 C 56 %
95 30-03-2020 15:40:18 8.2 C 57 %
96 30-03-2020 15:50:18 8.2 C 57 %
97 30-03-2020 16:00:18 8.2 C 57 %
98 30-03-2020 16:10:18 8.3 C 57 %
99 30-03-2020 16:20:17 8.3 C 57 %
100 30-03-2020 16:30:18 8.3 C 58 %
Sensor: Nr:Datum:Temp:Feuchte:
G-T/H 101 30-03-2020 16:40:18 8.3 C 58 %
102 30-03-2020 16:50:18 8.3 C 58 %
103 30-03-2020 17:00:17 8.3 C 58 %
104 30-03-2020 17:10:17 8.3 C 58 %
105 30-03-2020 17:20:18 8.4 C 58 %
106 30-03-2020 17:30:18 8.4 C 58 %
107 30-03-2020 17:40:18 8.4 C 58 %
108 30-03-2020 17:50:18 8.4 C 58 %
109 30-03-2020 18:00:18 8.4 C 59 %
110 30-03-2020 18:10:18 8.4 C 59 %
111 30-03-2020 18:20:18 8.4 C 59 %
112 30-03-2020 18:30:18 8.5 C 59 %
113 30-03-2020 18:40:18 8.4 C 59 %
114 30-03-2020 18:50:18 8.4 C 59 %
115 30-03-2020 19:00:18 8.4 C 60 %
116 30-03-2020 19:10:18 8.5 C 60 %
117 30-03-2020 19:20:17 8.5 C 60 %
118 30-03-2020 19:30:18 8.5 C 60 %
119 30-03-2020 19:40:18 8.5 C 60 %
120 30-03-2020 19:50:17 8.5 C 60 %
121 30-03-2020 20:00:18 8.5 C 60 %
122 30-03-2020 20:10:18 8.5 C 60 %
123 30-03-2020 20:20:17 8.5 C 61 %
124 30-03-2020 20:30:18 8.5 C 61 %
125 30-03-2020 20:40:18 8.5 C 61 %
Sensor: Nr:Datum:Temp:Feuchte:
G-T/H 126 30-03-2020 20:50:18 8.5 C 61 %
127 30-03-2020 21:00:18 8.5 C 61 %
128 30-03-2020 21:10:18 8.5 C 61 %
129 30-03-2020 21:20:18 8.5 C 61 %
130 30-03-2020 21:30:18 8.5 C 61 %
131 30-03-2020 21:40:18 8.5 C 61 %
132 30-03-2020 21:50:18 8.5 C 61 %
133 30-03-2020 22:00:18 8.5 C 62 %
134 30-03-2020 22:10:18 8.5 C 62 %
135 30-03-2020 22:20:17 8.5 C 62 %
136 30-03-2020 22:30:18 8.5 C 62 %
137 30-03-2020 22:40:18 8.5 C 62 %
138 30-03-2020 22:50:18 8.5 C 62 %
139 30-03-2020 23:00:18 8.5 C 62 %
140 30-03-2020 23:10:18 8.5 C 62 %
141 30-03-2020 23:20:18 8.5 C 62 %
142 30-03-2020 23:30:18 8.6 C 62 %
143 30-03-2020 23:40:18 8.5 C 62 %
144 30-03-2020 23:50:17 8.5 C 62 %
145 31-03-2020 00:00:18 8.5 C 62 %
146 31-03-2020 00:10:18 8.5 C 62 %
147 31-03-2020 00:20:18 8.5 C 62 %
148 31-03-2020 00:30:18 8.5 C 63 %
149 31-03-2020 00:40:18 8.6 C 63 %
150 31-03-2020 00:50:18 8.5 C 63 %
Sensor: Nr:Datum:Temp:Feuchte:
G-T/H 151 31-03-2020 01:00:18 8.5 C 63 %
152 31-03-2020 01:10:18 8.5 C 63 %
153 31-03-2020 01:20:18 8.6 C 63 %
154 31-03-2020 01:30:18 8.5 C 63 %
155 31-03-2020 01:40:18 8.6 C 63 %
156 31-03-2020 01:50:18 8.5 C 63 %
157 31-03-2020 02:00:18 8.5 C 63 %
158 31-03-2020 02:10:18 8.5 C 63 %
159 31-03-2020 02:20:17 8.5 C 63 %
160 31-03-2020 02:30:18 8.5 C 63 %
161 31-03-2020 02:40:18 8.5 C 63 %
162 31-03-2020 02:50:18 8.5 C 63 %
163 31-03-2020 03:00:18 8.5 C 64 %
164 31-03-2020 03:10:18 8.5 C 64 %
165 31-03-2020 03:20:17 8.5 C 64 %
166 31-03-2020 03:30:18 8.5 C 64 %
167 31-03-2020 03:40:18 8.5 C 64 %
168 31-03-2020 03:50:18 8.5 C 64 %
169 31-03-2020 04:00:18 8.5 C 64 %
170 31-03-2020 04:10:18 8.5 C 64 %
171 31-03-2020 04:20:18 8.5 C 64 %
172 31-03-2020 04:30:17 8.5 C 64 %
173 31-03-2020 04:40:18 8.5 C 64 %
174 31-03-2020 04:50:17 8.5 C 64 %
175 31-03-2020 05:00:18 8.5 C 64 %
Sensor: Nr:Datum:Temp:Feuchte:
G-T/H 176 31-03-2020 05:10:18 8.5 C 64 %
177 31-03-2020 05:20:17 8.5 C 64 %
178 31-03-2020 05:30:18 8.5 C 64 %
179 31-03-2020 05:40:18 8.5 C 64 %
180 31-03-2020 05:50:18 8.5 C 64 %
181 31-03-2020 06:00:18 8.5 C 64 %
182 31-03-2020 06:10:18 8.5 C 64 %
183 31-03-2020 06:20:18 8.5 C 64 %
184 31-03-2020 06:30:18 8.4 C 64 %
185 31-03-2020 06:40:18 8.5 C 64 %
186 31-03-2020 06:50:18 8.4 C 64 %
187 31-03-2020 07:00:18 8.5 C 64 %
188 31-03-2020 07:10:18 8.4 C 64 %
189 31-03-2020 07:20:18 8.4 C 64 %
190 31-03-